<?xml version="1.0" encoding="UTF-8" standalone="no" ?>
<gpx xmlns="http://www.topografix.com/GPX/1/1" xmlns:xsi="http://www.w3.org/2001/XMLSchema-instance" xsi:schemaLocation="http://www.topografix.com/GPX/1/1 http://www.topografix.com/GPX/1/1/gpx.xsd" version="1.1" creator="VisuGPX - https://www.visugpx.com">
  <metadata>
    <name>VERRIERES - VEZOUILLAC</name>
    <desc><![CDATA[randonnée sans aucune difficulté
de plus, prés de millau]]></desc>
  </metadata>
  <trk>
    <name><![CDATA[13 févr. 2014 13:53:57]]></name>
    <cmt><![CDATA[13 févr. 2014 13:53:57]]></cmt>
    <trkseg>
      <trkpt lat="44.19385" lon="3.06677">
        <ele>460</ele>
        <time>2014-02-13T12:53:59Z</time>
      </trkpt>
      <trkpt lat="44.19381" lon="3.06671">
        <ele>460</ele>
        <time>2014-02-13T12:53:59Z</time>
      </trkpt>
      <trkpt lat="44.19381" lon="3.06651">
        <ele>461</ele>
        <time>2014-02-13T12:54:02Z</time>
      </trkpt>
      <trkpt lat="44.19389" lon="3.06661">
        <ele>462</ele>
        <time>2014-02-13T12:54:03Z</time>
      </trkpt>
      <trkpt lat="44.19425" lon="3.06701">
        <ele>491</ele>
        <time>2014-02-13T12:55:34Z</time>
      </trkpt>
      <trkpt lat="44.19442" lon="3.06711">
        <ele>481</ele>
        <time>2014-02-13T12:56:00Z</time>
      </trkpt>
      <trkpt lat="44.19441" lon="3.06709">
        <ele>471</ele>
        <time>2014-02-13T12:56:43Z</time>
      </trkpt>
      <trkpt lat="44.19447" lon="3.06707">
        <ele>469</ele>
        <time>2014-02-13T12:56:49Z</time>
      </trkpt>
      <trkpt lat="44.19476" lon="3.06689">
        <ele>454</ele>
        <time>2014-02-13T12:57:21Z</time>
      </trkpt>
      <trkpt lat="44.1948" lon="3.06686">
        <ele>452</ele>
        <time>2014-02-13T12:57:25Z</time>
      </trkpt>
      <trkpt lat="44.19485" lon="3.06689">
        <ele>451</ele>
        <time>2014-02-13T12:57:30Z</time>
      </trkpt>
      <trkpt lat="44.1949" lon="3.06692">
        <ele>450</ele>
        <time>2014-02-13T12:57:34Z</time>
      </trkpt>
      <trkpt lat="44.19494" lon="3.06694">
        <ele>450</ele>
        <time>2014-02-13T12:57:37Z</time>
      </trkpt>
      <trkpt lat="44.19499" lon="3.06691">
        <ele>450</ele>
        <time>2014-02-13T12:57:42Z</time>
      </trkpt>
      <trkpt lat="44.19503" lon="3.06685">
        <ele>449</ele>
        <time>2014-02-13T12:57:47Z</time>
      </trkpt>
      <trkpt lat="44.19505" lon="3.06679">
        <ele>449</ele>
        <time>2014-02-13T12:57:50Z</time>
      </trkpt>
      <trkpt lat="44.19508" lon="3.06673">
        <ele>448</ele>
        <time>2014-02-13T12:57:54Z</time>
      </trkpt>
      <trkpt lat="44.19511" lon="3.06668">
        <ele>448</ele>
        <time>2014-02-13T12:57:57Z</time>
      </trkpt>
      <trkpt lat="44.19513" lon="3.06662">
        <ele>448</ele>
        <time>2014-02-13T12:58:00Z</time>
      </trkpt>
      <trkpt lat="44.19516" lon="3.06657">
        <ele>448</ele>
        <time>2014-02-13T12:58:04Z</time>
      </trkpt>
      <trkpt lat="44.1952" lon="3.06653">
        <ele>447</ele>
        <time>2014-02-13T12:58:07Z</time>
      </trkpt>
      <trkpt lat="44.19527" lon="3.06645">
        <ele>446</ele>
        <time>2014-02-13T12:58:13Z</time>
      </trkpt>
      <trkpt lat="44.19532" lon="3.06641">
        <ele>445</ele>
        <time>2014-02-13T12:58:19Z</time>
      </trkpt>
      <trkpt lat="44.19536" lon="3.06637">
        <ele>444</ele>
        <time>2014-02-13T12:58:24Z</time>
      </trkpt>
      <trkpt lat="44.19538" lon="3.06632">
        <ele>444</ele>
        <time>2014-02-13T12:58:27Z</time>
      </trkpt>
      <trkpt lat="44.1954" lon="3.06625">
        <ele>444</ele>
        <time>2014-02-13T12:58:30Z</time>
      </trkpt>
      <trkpt lat="44.19543" lon="3.06618">
        <ele>444</ele>
        <time>2014-02-13T12:58:34Z</time>
      </trkpt>
      <trkpt lat="44.19546" lon="3.06611">
        <ele>444</ele>
        <time>2014-02-13T12:58:38Z</time>
      </trkpt>
      <trkpt lat="44.19549" lon="3.06604">
        <ele>444</ele>
        <time>2014-02-13T12:58:41Z</time>
      </trkpt>
      <trkpt lat="44.19552" lon="3.06591">
        <ele>444</ele>
        <time>2014-02-13T12:58:48Z</time>
      </trkpt>
      <trkpt lat="44.19561" lon="3.06586">
        <ele>444</ele>
        <time>2014-02-13T12:58:58Z</time>
      </trkpt>
      <trkpt lat="44.19568" lon="3.06576">
        <ele>444</ele>
        <time>2014-02-13T12:59:05Z</time>
      </trkpt>
      <trkpt lat="44.19573" lon="3.06564">
        <ele>444</ele>
        <time>2014-02-13T12:59:10Z</time>
      </trkpt>
      <trkpt lat="44.19579" lon="3.06554">
        <ele>444</ele>
        <time>2014-02-13T12:59:15Z</time>
      </trkpt>
      <trkpt lat="44.19587" lon="3.06544">
        <ele>443</ele>
        <time>2014-02-13T12:59:24Z</time>
      </trkpt>
      <trkpt lat="44.19592" lon="3.06534">
        <ele>442</ele>
        <time>2014-02-13T12:59:28Z</time>
      </trkpt>
      <trkpt lat="44.19595" lon="3.06527">
        <ele>442</ele>
        <time>2014-02-13T12:59:31Z</time>
      </trkpt>
      <trkpt lat="44.19598" lon="3.06521">
        <ele>442</ele>
        <time>2014-02-13T12:59:34Z</time>
      </trkpt>
      <trkpt lat="44.19601" lon="3.06515">
        <ele>442</ele>
        <time>2014-02-13T12:59:37Z</time>
      </trkpt>
      <trkpt lat="44.19605" lon="3.0651">
        <ele>442</ele>
        <time>2014-02-13T12:59:43Z</time>
      </trkpt>
      <trkpt lat="44.19607" lon="3.06504">
        <ele>442</ele>
        <time>2014-02-13T12:59:46Z</time>
      </trkpt>
      <trkpt lat="44.19611" lon="3.06499">
        <ele>442</ele>
        <time>2014-02-13T12:59:50Z</time>
      </trkpt>
      <trkpt lat="44.19615" lon="3.06496">
        <ele>443</ele>
        <time>2014-02-13T12:59:54Z</time>
      </trkpt>
      <trkpt lat="44.19621" lon="3.06495">
        <ele>444</ele>
        <time>2014-02-13T12:59:58Z</time>
      </trkpt>
      <trkpt lat="44.19626" lon="3.06494">
        <ele>445</ele>
        <time>2014-02-13T13:00:01Z</time>
      </trkpt>
      <trkpt lat="44.19631" lon="3.06493">
        <ele>445</ele>
        <time>2014-02-13T13:00:04Z</time>
      </trkpt>
      <trkpt lat="44.19637" lon="3.06491">
        <ele>445</ele>
        <time>2014-02-13T13:00:07Z</time>
      </trkpt>
      <trkpt lat="44.19647" lon="3.06487">
        <ele>446</ele>
        <time>2014-02-13T13:00:12Z</time>
      </trkpt>
      <trkpt lat="44.19651" lon="3.06484">
        <ele>446</ele>
        <time>2014-02-13T13:00:18Z</time>
      </trkpt>
      <trkpt lat="44.1966" lon="3.06485">
        <ele>446</ele>
        <time>2014-02-13T13:00:24Z</time>
      </trkpt>
      <trkpt lat="44.1967" lon="3.06485">
        <ele>447</ele>
        <time>2014-02-13T13:00:31Z</time>
      </trkpt>
      <trkpt lat="44.19679" lon="3.06485">
        <ele>448</ele>
        <time>2014-02-13T13:00:37Z</time>
      </trkpt>
      <trkpt lat="44.19694" lon="3.06482">
        <ele>449</ele>
        <time>2014-02-13T13:00:52Z</time>
      </trkpt>
      <trkpt lat="44.19712" lon="3.0647">
        <ele>450</ele>
        <time>2014-02-13T13:01:01Z</time>
      </trkpt>
      <trkpt lat="44.1972" lon="3.06462">
        <ele>451</ele>
        <time>2014-02-13T13:01:07Z</time>
      </trkpt>
      <trkpt lat="44.19729" lon="3.06462">
        <ele>451</ele>
        <time>2014-02-13T13:01:16Z</time>
      </trkpt>
      <trkpt lat="44.19756" lon="3.06464">
        <ele>452</ele>
        <time>2014-02-13T13:01:31Z</time>
      </trkpt>
      <trkpt lat="44.19765" lon="3.06461">
        <ele>453</ele>
        <time>2014-02-13T13:01:37Z</time>
      </trkpt>
      <trkpt lat="44.19774" lon="3.06456">
        <ele>454</ele>
        <time>2014-02-13T13:01:44Z</time>
      </trkpt>
      <trkpt lat="44.19783" lon="3.06456">
        <ele>456</ele>
        <time>2014-02-13T13:01:52Z</time>
      </trkpt>
      <trkpt lat="44.19789" lon="3.06456">
        <ele>456</ele>
        <time>2014-02-13T13:01:56Z</time>
      </trkpt>
      <trkpt lat="44.19795" lon="3.06456">
        <ele>456</ele>
        <time>2014-02-13T13:01:58Z</time>
      </trkpt>
      <trkpt lat="44.19799" lon="3.06455">
        <ele>456</ele>
        <time>2014-02-13T13:02:01Z</time>
      </trkpt>
      <trkpt lat="44.19808" lon="3.06451">
        <ele>454</ele>
        <time>2014-02-13T13:02:08Z</time>
      </trkpt>
      <trkpt lat="44.19816" lon="3.06451">
        <ele>454</ele>
        <time>2014-02-13T13:02:11Z</time>
      </trkpt>
      <trkpt lat="44.19825" lon="3.06443">
        <ele>453</ele>
        <time>2014-02-13T13:02:17Z</time>
      </trkpt>
      <trkpt lat="44.19831" lon="3.06434">
        <ele>451</ele>
        <time>2014-02-13T13:02:24Z</time>
      </trkpt>
      <trkpt lat="44.19835" lon="3.06425">
        <ele>451</ele>
        <time>2014-02-13T13:02:28Z</time>
      </trkpt>
      <trkpt lat="44.1984" lon="3.06423">
        <ele>450</ele>
        <time>2014-02-13T13:02:32Z</time>
      </trkpt>
      <trkpt lat="44.19844" lon="3.06419">
        <ele>450</ele>
        <time>2014-02-13T13:02:36Z</time>
      </trkpt>
      <trkpt lat="44.19848" lon="3.06414">
        <ele>450</ele>
        <time>2014-02-13T13:02:40Z</time>
      </trkpt>
      <trkpt lat="44.19851" lon="3.06409">
        <ele>450</ele>
        <time>2014-02-13T13:02:44Z</time>
      </trkpt>
      <trkpt lat="44.19855" lon="3.06405">
        <ele>449</ele>
        <time>2014-02-13T13:02:49Z</time>
      </trkpt>
      <trkpt lat="44.19861" lon="3.06403">
        <ele>449</ele>
        <time>2014-02-13T13:02:53Z</time>
      </trkpt>
      <trkpt lat="44.19864" lon="3.06398">
        <ele>449</ele>
        <time>2014-02-13T13:02:58Z</time>
      </trkpt>
      <trkpt lat="44.19868" lon="3.06392">
        <ele>449</ele>
        <time>2014-02-13T13:03:02Z</time>
      </trkpt>
      <trkpt lat="44.19872" lon="3.06386">
        <ele>451</ele>
        <time>2014-02-13T13:03:05Z</time>
      </trkpt>
      <trkpt lat="44.19876" lon="3.06383">
        <ele>452</ele>
        <time>2014-02-13T13:03:08Z</time>
      </trkpt>
      <trkpt lat="44.1988" lon="3.06379">
        <ele>453</ele>
        <time>2014-02-13T13:03:12Z</time>
      </trkpt>
      <trkpt lat="44.19884" lon="3.06375">
        <ele>453</ele>
        <time>2014-02-13T13:03:14Z</time>
      </trkpt>
      <trkpt lat="44.19888" lon="3.0637">
        <ele>453</ele>
        <time>2014-02-13T13:03:17Z</time>
      </trkpt>
      <trkpt lat="44.19891" lon="3.06363">
        <ele>454</ele>
        <time>2014-02-13T13:03:20Z</time>
      </trkpt>
      <trkpt lat="44.19895" lon="3.06358">
        <ele>455</ele>
        <time>2014-02-13T13:03:24Z</time>
      </trkpt>
      <trkpt lat="44.19898" lon="3.06354">
        <ele>455</ele>
        <time>2014-02-13T13:03:26Z</time>
      </trkpt>
      <trkpt lat="44.19902" lon="3.06348">
        <ele>456</ele>
        <time>2014-02-13T13:03:30Z</time>
      </trkpt>
      <trkpt lat="44.19908" lon="3.06346">
        <ele>456</ele>
        <time>2014-02-13T13:03:34Z</time>
      </trkpt>
      <trkpt lat="44.19914" lon="3.06344">
        <ele>456</ele>
        <time>2014-02-13T13:03:38Z</time>
      </trkpt>
      <trkpt lat="44.19919" lon="3.06342">
        <ele>456</ele>
        <time>2014-02-13T13:03:41Z</time>
      </trkpt>
      <trkpt lat="44.19924" lon="3.06342">
        <ele>456</ele>
        <time>2014-02-13T13:03:44Z</time>
      </trkpt>
      <trkpt lat="44.19932" lon="3.06342">
        <ele>456</ele>
        <time>2014-02-13T13:03:50Z</time>
      </trkpt>
      <trkpt lat="44.19935" lon="3.06337">
        <ele>456</ele>
        <time>2014-02-13T13:03:53Z</time>
      </trkpt>
      <trkpt lat="44.19939" lon="3.06332">
        <ele>455</ele>
        <time>2014-02-13T13:03:57Z</time>
      </trkpt>
      <trkpt lat="44.19943" lon="3.06326">
        <ele>454</ele>
        <time>2014-02-13T13:04:01Z</time>
      </trkpt>
      <trkpt lat="44.19947" lon="3.06322">
        <ele>453</ele>
        <time>2014-02-13T13:04:05Z</time>
      </trkpt>
      <trkpt lat="44.19951" lon="3.06317">
        <ele>452</ele>
        <time>2014-02-13T13:04:09Z</time>
      </trkpt>
      <trkpt lat="44.19954" lon="3.06313">
        <ele>451</ele>
        <time>2014-02-13T13:04:12Z</time>
      </trkpt>
      <trkpt lat="44.19957" lon="3.06306">
        <ele>449</ele>
        <time>2014-02-13T13:04:16Z</time>
      </trkpt>
      <trkpt lat="44.19959" lon="3.06299">
        <ele>448</ele>
        <time>2014-02-13T13:04:20Z</time>
      </trkpt>
      <trkpt lat="44.19963" lon="3.06293">
        <ele>447</ele>
        <time>2014-02-13T13:04:24Z</time>
      </trkpt>
      <trkpt lat="44.19964" lon="3.06287">
        <ele>447</ele>
        <time>2014-02-13T13:04:28Z</time>
      </trkpt>
      <trkpt lat="44.19966" lon="3.06279">
        <ele>446</ele>
        <time>2014-02-13T13:04:31Z</time>
      </trkpt>
      <trkpt lat="44.19966" lon="3.06272">
        <ele>446</ele>
        <time>2014-02-13T13:04:34Z</time>
      </trkpt>
      <trkpt lat="44.19965" lon="3.06265">
        <ele>446</ele>
        <time>2014-02-13T13:04:37Z</time>
      </trkpt>
      <trkpt lat="44.19966" lon="3.06257">
        <ele>446</ele>
        <time>2014-02-13T13:04:41Z</time>
      </trkpt>
      <trkpt lat="44.19968" lon="3.06249">
        <ele>447</ele>
        <time>2014-02-13T13:04:45Z</time>
      </trkpt>
      <trkpt lat="44.19969" lon="3.06242">
        <ele>448</ele>
        <time>2014-02-13T13:04:49Z</time>
      </trkpt>
      <trkpt lat="44.1997" lon="3.06235">
        <ele>448</ele>
        <time>2014-02-13T13:04:54Z</time>
      </trkpt>
      <trkpt lat="44.1997" lon="3.06229">
        <ele>449</ele>
        <time>2014-02-13T13:04:58Z</time>
      </trkpt>
      <trkpt lat="44.19972" lon="3.06221">
        <ele>449</ele>
        <time>2014-02-13T13:05:02Z</time>
      </trkpt>
      <trkpt lat="44.19973" lon="3.06214">
        <ele>449</ele>
        <time>2014-02-13T13:05:05Z</time>
      </trkpt>
      <trkpt lat="44.19974" lon="3.06208">
        <ele>449</ele>
        <time>2014-02-13T13:05:08Z</time>
      </trkpt>
      <trkpt lat="44.19976" lon="3.06201">
        <ele>449</ele>
        <time>2014-02-13T13:05:11Z</time>
      </trkpt>
      <trkpt lat="44.19976" lon="3.06192">
        <ele>451</ele>
        <time>2014-02-13T13:05:13Z</time>
      </trkpt>
      <trkpt lat="44.19977" lon="3.06182">
        <ele>452</ele>
        <time>2014-02-13T13:05:15Z</time>
      </trkpt>
      <trkpt lat="44.19977" lon="3.06178">
        <ele>453</ele>
        <time>2014-02-13T13:05:16Z</time>
      </trkpt>
      <trkpt lat="44.19978" lon="3.06175">
        <ele>453</ele>
        <time>2014-02-13T13:05:17Z</time>
      </trkpt>
      <trkpt lat="44.19979" lon="3.06171">
        <ele>453</ele>
        <time>2014-02-13T13:05:19Z</time>
      </trkpt>
      <trkpt lat="44.1998" lon="3.06167">
        <ele>453</ele>
        <time>2014-02-13T13:05:21Z</time>
      </trkpt>
      <trkpt lat="44.19982" lon="3.06164">
        <ele>454</ele>
        <time>2014-02-13T13:05:24Z</time>
      </trkpt>
      <trkpt lat="44.19988" lon="3.0616">
        <ele>453</ele>
        <time>2014-02-13T13:05:31Z</time>
      </trkpt>
      <trkpt lat="44.19993" lon="3.0615">
        <ele>453</ele>
        <time>2014-02-13T13:05:39Z</time>
      </trkpt>
      <trkpt lat="44.19997" lon="3.06146">
        <ele>453</ele>
        <time>2014-02-13T13:05:43Z</time>
      </trkpt>
      <trkpt lat="44.19999" lon="3.0614">
        <ele>452</ele>
        <time>2014-02-13T13:05:47Z</time>
      </trkpt>
      <trkpt lat="44.20001" lon="3.06129">
        <ele>453</ele>
        <time>2014-02-13T13:05:53Z</time>
      </trkpt>
      <trkpt lat="44.20002" lon="3.06121">
        <ele>453</ele>
        <time>2014-02-13T13:05:57Z</time>
      </trkpt>
      <trkpt lat="44.20004" lon="3.06114">
        <ele>453</ele>
        <time>2014-02-13T13:05:59Z</time>
      </trkpt>
      <trkpt lat="44.20006" lon="3.06106">
        <ele>453</ele>
        <time>2014-02-13T13:06:02Z</time>
      </trkpt>
      <trkpt lat="44.20006" lon="3.06097">
        <ele>453</ele>
        <time>2014-02-13T13:06:05Z</time>
      </trkpt>
      <trkpt lat="44.20007" lon="3.06091">
        <ele>453</ele>
        <time>2014-02-13T13:06:08Z</time>
      </trkpt>
      <trkpt lat="44.20007" lon="3.06083">
        <ele>453</ele>
        <time>2014-02-13T13:06:13Z</time>
      </trkpt>
      <trkpt lat="44.20008" lon="3.06075">
        <ele>454</ele>
        <time>2014-02-13T13:06:15Z</time>
      </trkpt>
      <trkpt lat="44.2001" lon="3.06069">
        <ele>453</ele>
        <time>2014-02-13T13:06:19Z</time>
      </trkpt>
      <trkpt lat="44.20015" lon="3.06065">
        <ele>453</ele>
        <time>2014-02-13T13:06:24Z</time>
      </trkpt>
      <trkpt lat="44.20017" lon="3.06059">
        <ele>452</ele>
        <time>2014-02-13T13:06:26Z</time>
      </trkpt>
      <trkpt lat="44.20019" lon="3.06052">
        <ele>451</ele>
        <time>2014-02-13T13:06:28Z</time>
      </trkpt>
      <trkpt lat="44.20021" lon="3.06043">
        <ele>451</ele>
        <time>2014-02-13T13:06:31Z</time>
      </trkpt>
      <trkpt lat="44.20023" lon="3.06036">
        <ele>451</ele>
        <time>2014-02-13T13:06:34Z</time>
      </trkpt>
      <trkpt lat="44.20027" lon="3.0603">
        <ele>452</ele>
        <time>2014-02-13T13:06:40Z</time>
      </trkpt>
      <trkpt lat="44.20027" lon="3.06021">
        <ele>453</ele>
        <time>2014-02-13T13:06:43Z</time>
      </trkpt>
      <trkpt lat="44.20028" lon="3.06013">
        <ele>453</ele>
        <time>2014-02-13T13:06:45Z</time>
      </trkpt>
      <trkpt lat="44.2003" lon="3.06005">
        <ele>454</ele>
        <time>2014-02-13T13:06:48Z</time>
      </trkpt>
      <trkpt lat="44.20031" lon="3.05997">
        <ele>455</ele>
        <time>2014-02-13T13:06:51Z</time>
      </trkpt>
      <trkpt lat="44.20033" lon="3.0599">
        <ele>455</ele>
        <time>2014-02-13T13:06:54Z</time>
      </trkpt>
      <trkpt lat="44.20037" lon="3.05984">
        <ele>455</ele>
        <time>2014-02-13T13:06:57Z</time>
      </trkpt>
      <trkpt lat="44.20041" lon="3.05981">
        <ele>454</ele>
        <time>2014-02-13T13:07:01Z</time>
      </trkpt>
      <trkpt lat="44.20045" lon="3.05975">
        <ele>453</ele>
        <time>2014-02-13T13:07:06Z</time>
      </trkpt>
      <trkpt lat="44.20046" lon="3.05969">
        <ele>453</ele>
        <time>2014-02-13T13:07:09Z</time>
      </trkpt>
      <trkpt lat="44.20048" lon="3.05962">
        <ele>452</ele>
        <time>2014-02-13T13:07:13Z</time>
      </trkpt>
      <trkpt lat="44.2005" lon="3.05955">
        <ele>452</ele>
        <time>2014-02-13T13:07:17Z</time>
      </trkpt>
      <trkpt lat="44.20052" lon="3.05949">
        <ele>451</ele>
        <time>2014-02-13T13:07:21Z</time>
      </trkpt>
      <trkpt lat="44.20056" lon="3.05945">
        <ele>452</ele>
        <time>2014-02-13T13:07:30Z</time>
      </trkpt>
      <trkpt lat="44.20063" lon="3.05943">
        <ele>453</ele>
        <time>2014-02-13T13:07:47Z</time>
      </trkpt>
      <trkpt lat="44.20067" lon="3.05939">
        <ele>453</ele>
        <time>2014-02-13T13:07:50Z</time>
      </trkpt>
      <trkpt lat="44.20072" lon="3.05934">
        <ele>452</ele>
        <time>2014-02-13T13:07:53Z</time>
      </trkpt>
      <trkpt lat="44.20076" lon="3.0593">
        <ele>453</ele>
        <time>2014-02-13T13:07:56Z</time>
      </trkpt>
      <trkpt lat="44.20081" lon="3.05926">
        <ele>453</ele>
        <time>2014-02-13T13:07:59Z</time>
      </trkpt>
      <trkpt lat="44.20085" lon="3.05926">
        <ele>453</ele>
        <time>2014-02-13T13:08:03Z</time>
      </trkpt>
      <trkpt lat="44.20088" lon="3.05925">
        <ele>453</ele>
        <time>2014-02-13T13:08:26Z</time>
      </trkpt>
      <trkpt lat="44.2009" lon="3.05932">
        <ele>453</ele>
        <time>2014-02-13T13:08:30Z</time>
      </trkpt>
      <trkpt lat="44.20092" lon="3.05938">
        <ele>452</ele>
        <time>2014-02-13T13:08:34Z</time>
      </trkpt>
      <trkpt lat="44.20097" lon="3.05938">
        <ele>452</ele>
        <time>2014-02-13T13:08:40Z</time>
      </trkpt>
      <trkpt lat="44.20101" lon="3.05935">
        <ele>452</ele>
        <time>2014-02-13T13:08:44Z</time>
      </trkpt>
      <trkpt lat="44.20104" lon="3.05931">
        <ele>451</ele>
        <time>2014-02-13T13:08:48Z</time>
      </trkpt>
      <trkpt lat="44.20108" lon="3.05925">
        <ele>450</ele>
        <time>2014-02-13T13:08:52Z</time>
      </trkpt>
      <trkpt lat="44.20112" lon="3.0592">
        <ele>450</ele>
        <time>2014-02-13T13:08:57Z</time>
      </trkpt>
      <trkpt lat="44.20117" lon="3.05917">
        <ele>451</ele>
        <time>2014-02-13T13:09:01Z</time>
      </trkpt>
      <trkpt lat="44.20122" lon="3.05914">
        <ele>451</ele>
        <time>2014-02-13T13:09:04Z</time>
      </trkpt>
      <trkpt lat="44.20127" lon="3.05915">
        <ele>451</ele>
        <time>2014-02-13T13:09:09Z</time>
      </trkpt>
      <trkpt lat="44.20132" lon="3.05919">
        <ele>452</ele>
        <time>2014-02-13T13:09:12Z</time>
      </trkpt>
      <trkpt lat="44.20137" lon="3.05923">
        <ele>452</ele>
        <time>2014-02-13T13:09:16Z</time>
      </trkpt>
      <trkpt lat="44.20142" lon="3.05927">
        <ele>452</ele>
        <time>2014-02-13T13:09:18Z</time>
      </trkpt>
      <trkpt lat="44.20146" lon="3.05926">
        <ele>453</ele>
        <time>2014-02-13T13:09:21Z</time>
      </trkpt>
      <trkpt lat="44.2015" lon="3.05925">
        <ele>453</ele>
        <time>2014-02-13T13:09:30Z</time>
      </trkpt>
      <trkpt lat="44.20152" lon="3.05931">
        <ele>454</ele>
        <time>2014-02-13T13:09:35Z</time>
      </trkpt>
      <trkpt lat="44.20153" lon="3.05938">
        <ele>454</ele>
        <time>2014-02-13T13:09:40Z</time>
      </trkpt>
      <trkpt lat="44.20157" lon="3.05943">
        <ele>454</ele>
        <time>2014-02-13T13:09:45Z</time>
      </trkpt>
      <trkpt lat="44.20163" lon="3.05945">
        <ele>454</ele>
        <time>2014-02-13T13:09:49Z</time>
      </trkpt>
      <trkpt lat="44.20168" lon="3.05944">
        <ele>453</ele>
        <time>2014-02-13T13:09:53Z</time>
      </trkpt>
      <trkpt lat="44.20173" lon="3.05944">
        <ele>453</ele>
        <time>2014-02-13T13:09:57Z</time>
      </trkpt>
      <trkpt lat="44.20178" lon="3.05945">
        <ele>453</ele>
        <time>2014-02-13T13:10:01Z</time>
      </trkpt>
      <trkpt lat="44.20184" lon="3.05943">
        <ele>454</ele>
        <time>2014-02-13T13:10:06Z</time>
      </trkpt>
      <trkpt lat="44.20189" lon="3.05942">
        <ele>455</ele>
        <time>2014-02-13T13:10:10Z</time>
      </trkpt>
      <trkpt lat="44.20195" lon="3.05942">
        <ele>455</ele>
        <time>2014-02-13T13:10:14Z</time>
      </trkpt>
      <trkpt lat="44.202" lon="3.05942">
        <ele>455</ele>
        <time>2014-02-13T13:10:18Z</time>
      </trkpt>
      <trkpt lat="44.20205" lon="3.05941">
        <ele>454</ele>
        <time>2014-02-13T13:10:22Z</time>
      </trkpt>
      <trkpt lat="44.2021" lon="3.05939">
        <ele>454</ele>
        <time>2014-02-13T13:10:25Z</time>
      </trkpt>
      <trkpt lat="44.20214" lon="3.05936">
        <ele>454</ele>
        <time>2014-02-13T13:10:28Z</time>
      </trkpt>
      <trkpt lat="44.20219" lon="3.05939">
        <ele>454</ele>
        <time>2014-02-13T13:10:32Z</time>
      </trkpt>
      <trkpt lat="44.20224" lon="3.05943">
        <ele>454</ele>
        <time>2014-02-13T13:10:36Z</time>
      </trkpt>
      <trkpt lat="44.20227" lon="3.05944">
        <ele>454</ele>
        <time>2014-02-13T13:10:44Z</time>
      </trkpt>
      <trkpt lat="44.20231" lon="3.05949">
        <ele>451</ele>
        <time>2014-02-13T13:10:55Z</time>
      </trkpt>
      <trkpt lat="44.20233" lon="3.05956">
        <ele>450</ele>
        <time>2014-02-13T13:10:59Z</time>
      </trkpt>
      <trkpt lat="44.20235" lon="3.05963">
        <ele>447</ele>
        <time>2014-02-13T13:11:04Z</time>
      </trkpt>
      <trkpt lat="44.20238" lon="3.05968">
        <ele>447</ele>
        <time>2014-02-13T13:11:09Z</time>
      </trkpt>
      <trkpt lat="44.20242" lon="3.05972">
        <ele>446</ele>
        <time>2014-02-13T13:11:13Z</time>
      </trkpt>
      <trkpt lat="44.20246" lon="3.05974">
        <ele>446</ele>
        <time>2014-02-13T13:11:17Z</time>
      </trkpt>
      <trkpt lat="44.20251" lon="3.05972">
        <ele>447</ele>
        <time>2014-02-13T13:11:21Z</time>
      </trkpt>
      <trkpt lat="44.20256" lon="3.05969">
        <ele>448</ele>
        <time>2014-02-13T13:11:25Z</time>
      </trkpt>
      <trkpt lat="44.20261" lon="3.05966">
        <ele>449</ele>
        <time>2014-02-13T13:11:29Z</time>
      </trkpt>
      <trkpt lat="44.20266" lon="3.05966">
        <ele>450</ele>
        <time>2014-02-13T13:11:34Z</time>
      </trkpt>
      <trkpt lat="44.20265" lon="3.05975">
        <ele>452</ele>
        <time>2014-02-13T13:11:47Z</time>
      </trkpt>
      <trkpt lat="44.20267" lon="3.05982">
        <ele>454</ele>
        <time>2014-02-13T13:11:55Z</time>
      </trkpt>
      <trkpt lat="44.2027" lon="3.05988">
        <ele>454</ele>
        <time>2014-02-13T13:12:00Z</time>
      </trkpt>
      <trkpt lat="44.20273" lon="3.05993">
        <ele>454</ele>
        <time>2014-02-13T13:12:05Z</time>
      </trkpt>
      <trkpt lat="44.20277" lon="3.05998">
        <ele>454</ele>
        <time>2014-02-13T13:12:13Z</time>
      </trkpt>
      <trkpt lat="44.20281" lon="3.06002">
        <ele>454</ele>
        <time>2014-02-13T13:12:16Z</time>
      </trkpt>
      <trkpt lat="44.20282" lon="3.05998">
        <ele>454</ele>
        <time>2014-02-13T13:12:28Z</time>
      </trkpt>
      <trkpt lat="44.20284" lon="3.05991">
        <ele>454</ele>
        <time>2014-02-13T13:12:34Z</time>
      </trkpt>
      <trkpt lat="44.20284" lon="3.05986">
        <ele>454</ele>
        <time>2014-02-13T13:12:42Z</time>
      </trkpt>
      <trkpt lat="44.20287" lon="3.05982">
        <ele>455</ele>
        <time>2014-02-13T13:12:48Z</time>
      </trkpt>
      <trkpt lat="44.20289" lon="3.05988">
        <ele>454</ele>
        <time>2014-02-13T13:12:53Z</time>
      </trkpt>
      <trkpt lat="44.20292" lon="3.05994">
        <ele>454</ele>
        <time>2014-02-13T13:12:58Z</time>
      </trkpt>
      <trkpt lat="44.20296" lon="3.05997">
        <ele>455</ele>
        <time>2014-02-13T13:13:04Z</time>
      </trkpt>
      <trkpt lat="44.20298" lon="3.05994">
        <ele>457</ele>
        <time>2014-02-13T13:13:21Z</time>
      </trkpt>
      <trkpt lat="44.20297" lon="3.05982">
        <ele>457</ele>
        <time>2014-02-13T13:13:38Z</time>
      </trkpt>
      <trkpt lat="44.20296" lon="3.05971">
        <ele>459</ele>
        <time>2014-02-13T13:13:46Z</time>
      </trkpt>
      <trkpt lat="44.20299" lon="3.05969">
        <ele>461</ele>
        <time>2014-02-13T13:14:09Z</time>
      </trkpt>
      <trkpt lat="44.20302" lon="3.05963">
        <ele>461</ele>
        <time>2014-02-13T13:14:14Z</time>
      </trkpt>
      <trkpt lat="44.20306" lon="3.05958">
        <ele>462</ele>
        <time>2014-02-13T13:14:19Z</time>
      </trkpt>
      <trkpt lat="44.20311" lon="3.05955">
        <ele>464</ele>
        <time>2014-02-13T13:14:24Z</time>
      </trkpt>
      <trkpt lat="44.20315" lon="3.05952">
        <ele>465</ele>
        <time>2014-02-13T13:14:29Z</time>
      </trkpt>
      <trkpt lat="44.20318" lon="3.05951">
        <ele>466</ele>
        <time>2014-02-13T13:14:36Z</time>
      </trkpt>
      <trkpt lat="44.20322" lon="3.05954">
        <ele>467</ele>
        <time>2014-02-13T13:14:45Z</time>
      </trkpt>
      <trkpt lat="44.20327" lon="3.05951">
        <ele>468</ele>
        <time>2014-02-13T13:14:53Z</time>
      </trkpt>
      <trkpt lat="44.20331" lon="3.05947">
        <ele>469</ele>
        <time>2014-02-13T13:14:58Z</time>
      </trkpt>
      <trkpt lat="44.20336" lon="3.05943">
        <ele>470</ele>
        <time>2014-02-13T13:15:01Z</time>
      </trkpt>
      <trkpt lat="44.2034" lon="3.05941">
        <ele>472</ele>
        <time>2014-02-13T13:15:06Z</time>
      </trkpt>
      <trkpt lat="44.20345" lon="3.05939">
        <ele>472</ele>
        <time>2014-02-13T13:15:13Z</time>
      </trkpt>
      <trkpt lat="44.2035" lon="3.05935">
        <ele>473</ele>
        <time>2014-02-13T13:15:20Z</time>
      </trkpt>
      <trkpt lat="44.20355" lon="3.05932">
        <ele>476</ele>
        <time>2014-02-13T13:15:23Z</time>
      </trkpt>
      <trkpt lat="44.20359" lon="3.05928">
        <ele>478</ele>
        <time>2014-02-13T13:15:28Z</time>
      </trkpt>
      <trkpt lat="44.20363" lon="3.05926">
        <ele>480</ele>
        <time>2014-02-13T13:15:35Z</time>
      </trkpt>
      <trkpt lat="44.20368" lon="3.05923">
        <ele>481</ele>
        <time>2014-02-13T13:15:41Z</time>
      </trkpt>
      <trkpt lat="44.20372" lon="3.0592">
        <ele>482</ele>
        <time>2014-02-13T13:15:46Z</time>
      </trkpt>
      <trkpt lat="44.20376" lon="3.05921">
        <ele>482</ele>
        <time>2014-02-13T13:15:52Z</time>
      </trkpt>
      <trkpt lat="44.20381" lon="3.05918">
        <ele>483</ele>
        <time>2014-02-13T13:15:59Z</time>
      </trkpt>
      <trkpt lat="44.20385" lon="3.05913">
        <ele>484</ele>
        <time>2014-02-13T13:16:05Z</time>
      </trkpt>
      <trkpt lat="44.20389" lon="3.0591">
        <ele>485</ele>
        <time>2014-02-13T13:16:10Z</time>
      </trkpt>
      <trkpt lat="44.20393" lon="3.05906">
        <ele>487</ele>
        <time>2014-02-13T13:16:16Z</time>
      </trkpt>
      <trkpt lat="44.20398" lon="3.05903">
        <ele>489</ele>
        <time>2014-02-13T13:16:22Z</time>
      </trkpt>
      <trkpt lat="44.20403" lon="3.05902">
        <ele>490</ele>
        <time>2014-02-13T13:16:28Z</time>
      </trkpt>
      <trkpt lat="44.20407" lon="3.05897">
        <ele>490</ele>
        <time>2014-02-13T13:16:34Z</time>
      </trkpt>
      <trkpt lat="44.20411" lon="3.05893">
        <ele>490</ele>
        <time>2014-02-13T13:16:40Z</time>
      </trkpt>
      <trkpt lat="44.20415" lon="3.0589">
        <ele>491</ele>
        <time>2014-02-13T13:16:46Z</time>
      </trkpt>
      <trkpt lat="44.2042" lon="3.05889">
        <ele>492</ele>
        <time>2014-02-13T13:16:50Z</time>
      </trkpt>
      <trkpt lat="44.20425" lon="3.05886">
        <ele>495</ele>
        <time>2014-02-13T13:16:56Z</time>
      </trkpt>
      <trkpt lat="44.20426" lon="3.0588">
        <ele>497</ele>
        <time>2014-02-13T13:17:01Z</time>
      </trkpt>
      <trkpt lat="44.20434" lon="3.05871">
        <ele>502</ele>
        <time>2014-02-13T13:17:11Z</time>
      </trkpt>
      <trkpt lat="44.20439" lon="3.05871">
        <ele>504</ele>
        <time>2014-02-13T13:17:18Z</time>
      </trkpt>
      <trkpt lat="44.20443" lon="3.05869">
        <ele>505</ele>
        <time>2014-02-13T13:17:23Z</time>
      </trkpt>
      <trkpt lat="44.20447" lon="3.05867">
        <ele>506</ele>
        <time>2014-02-13T13:17:32Z</time>
      </trkpt>
      <trkpt lat="44.20453" lon="3.05865">
        <ele>506</ele>
        <time>2014-02-13T13:17:37Z</time>
      </trkpt>
      <trkpt lat="44.20457" lon="3.05864">
        <ele>507</ele>
        <time>2014-02-13T13:17:42Z</time>
      </trkpt>
      <trkpt lat="44.20461" lon="3.0586">
        <ele>509</ele>
        <time>2014-02-13T13:17:50Z</time>
      </trkpt>
      <trkpt lat="44.20464" lon="3.05861">
        <ele>509</ele>
        <time>2014-02-13T13:17:57Z</time>
      </trkpt>
      <trkpt lat="44.20469" lon="3.0586">
        <ele>510</ele>
        <time>2014-02-13T13:18:21Z</time>
      </trkpt>
      <trkpt lat="44.20473" lon="3.05857">
        <ele>512</ele>
        <time>2014-02-13T13:18:28Z</time>
      </trkpt>
      <trkpt lat="44.20478" lon="3.05856">
        <ele>513</ele>
        <time>2014-02-13T13:18:32Z</time>
      </trkpt>
      <trkpt lat="44.20482" lon="3.05856">
        <ele>516</ele>
        <time>2014-02-13T13:18:37Z</time>
      </trkpt>
      <trkpt lat="44.20487" lon="3.05856">
        <ele>517</ele>
        <time>2014-02-13T13:18:44Z</time>
      </trkpt>
      <trkpt lat="44.20492" lon="3.05853">
        <ele>520</ele>
        <time>2014-02-13T13:18:50Z</time>
      </trkpt>
      <trkpt lat="44.20497" lon="3.05853">
        <ele>521</ele>
        <time>2014-02-13T13:18:56Z</time>
      </trkpt>
      <trkpt lat="44.20502" lon="3.05853">
        <ele>521</ele>
        <time>2014-02-13T13:19:04Z</time>
      </trkpt>
      <trkpt lat="44.20507" lon="3.05852">
        <ele>524</ele>
        <time>2014-02-13T13:19:09Z</time>
      </trkpt>
      <trkpt lat="44.20512" lon="3.05851">
        <ele>525</ele>
        <time>2014-02-13T13:19:14Z</time>
      </trkpt>
      <trkpt lat="44.20516" lon="3.05854">
        <ele>527</ele>
        <time>2014-02-13T13:19:21Z</time>
      </trkpt>
      <trkpt lat="44.20521" lon="3.0585">
        <ele>528</ele>
        <time>2014-02-13T13:19:25Z</time>
      </trkpt>
      <trkpt lat="44.20525" lon="3.05848">
        <ele>529</ele>
        <time>2014-02-13T13:19:30Z</time>
      </trkpt>
      <trkpt lat="44.2053" lon="3.05847">
        <ele>530</ele>
        <time>2014-02-13T13:19:36Z</time>
      </trkpt>
      <trkpt lat="44.20534" lon="3.05851">
        <ele>529</ele>
        <time>2014-02-13T13:19:41Z</time>
      </trkpt>
      <trkpt lat="44.20538" lon="3.05849">
        <ele>529</ele>
        <time>2014-02-13T13:19:48Z</time>
      </trkpt>
      <trkpt lat="44.20543" lon="3.05846">
        <ele>529</ele>
        <time>2014-02-13T13:19:53Z</time>
      </trkpt>
      <trkpt lat="44.20548" lon="3.05848">
        <ele>529</ele>
        <time>2014-02-13T13:19:58Z</time>
      </trkpt>
      <trkpt lat="44.20553" lon="3.05846">
        <ele>530</ele>
        <time>2014-02-13T13:20:03Z</time>
      </trkpt>
      <trkpt lat="44.20557" lon="3.05845">
        <ele>530</ele>
        <time>2014-02-13T13:20:08Z</time>
      </trkpt>
      <trkpt lat="44.20563" lon="3.05843">
        <ele>530</ele>
        <time>2014-02-13T13:20:14Z</time>
      </trkpt>
      <trkpt lat="44.20567" lon="3.0584">
        <ele>531</ele>
        <time>2014-02-13T13:20:20Z</time>
      </trkpt>
      <trkpt lat="44.20572" lon="3.05838">
        <ele>531</ele>
        <time>2014-02-13T13:20:25Z</time>
      </trkpt>
      <trkpt lat="44.20577" lon="3.05838">
        <ele>532</ele>
        <time>2014-02-13T13:20:30Z</time>
      </trkpt>
      <trkpt lat="44.20581" lon="3.05834">
        <ele>533</ele>
        <time>2014-02-13T13:20:34Z</time>
      </trkpt>
      <trkpt lat="44.20585" lon="3.05832">
        <ele>534</ele>
        <time>2014-02-13T13:20:40Z</time>
      </trkpt>
      <trkpt lat="44.2059" lon="3.0583">
        <ele>536</ele>
        <time>2014-02-13T13:20:46Z</time>
      </trkpt>
      <trkpt lat="44.20595" lon="3.05832">
        <ele>536</ele>
        <time>2014-02-13T13:20:51Z</time>
      </trkpt>
      <trkpt lat="44.206" lon="3.05831">
        <ele>538</ele>
        <time>2014-02-13T13:20:57Z</time>
      </trkpt>
      <trkpt lat="44.20604" lon="3.05831">
        <ele>538</ele>
        <time>2014-02-13T13:21:02Z</time>
      </trkpt>
      <trkpt lat="44.2061" lon="3.0583">
        <ele>542</ele>
        <time>2014-02-13T13:21:08Z</time>
      </trkpt>
      <trkpt lat="44.20614" lon="3.0583">
        <ele>543</ele>
        <time>2014-02-13T13:21:14Z</time>
      </trkpt>
      <trkpt lat="44.20619" lon="3.05829">
        <ele>545</ele>
        <time>2014-02-13T13:21:20Z</time>
      </trkpt>
      <trkpt lat="44.20623" lon="3.05825">
        <ele>547</ele>
        <time>2014-02-13T13:21:30Z</time>
      </trkpt>
      <trkpt lat="44.20627" lon="3.05822">
        <ele>550</ele>
        <time>2014-02-13T13:21:36Z</time>
      </trkpt>
      <trkpt lat="44.20632" lon="3.05821">
        <ele>550</ele>
        <time>2014-02-13T13:21:41Z</time>
      </trkpt>
      <trkpt lat="44.20636" lon="3.05818">
        <ele>551</ele>
        <time>2014-02-13T13:21:46Z</time>
      </trkpt>
      <trkpt lat="44.20641" lon="3.05815">
        <ele>552</ele>
        <time>2014-02-13T13:21:53Z</time>
      </trkpt>
      <trkpt lat="44.20645" lon="3.05812">
        <ele>553</ele>
        <time>2014-02-13T13:21:57Z</time>
      </trkpt>
      <trkpt lat="44.20649" lon="3.05809">
        <ele>555</ele>
        <time>2014-02-13T13:22:03Z</time>
      </trkpt>
      <trkpt lat="44.20654" lon="3.05805">
        <ele>557</ele>
        <time>2014-02-13T13:22:07Z</time>
      </trkpt>
      <trkpt lat="44.20659" lon="3.05803">
        <ele>558</ele>
        <time>2014-02-13T13:22:12Z</time>
      </trkpt>
      <trkpt lat="44.20661" lon="3.05797">
        <ele>559</ele>
        <time>2014-02-13T13:22:16Z</time>
      </trkpt>
      <trkpt lat="44.20665" lon="3.05792">
        <ele>559</ele>
        <time>2014-02-13T13:22:22Z</time>
      </trkpt>
      <trkpt lat="44.20671" lon="3.05791">
        <ele>559</ele>
        <time>2014-02-13T13:22:24Z</time>
      </trkpt>
      <trkpt lat="44.20676" lon="3.05792">
        <ele>560</ele>
        <time>2014-02-13T13:22:27Z</time>
      </trkpt>
      <trkpt lat="44.2068" lon="3.05794">
        <ele>560</ele>
        <time>2014-02-13T13:22:33Z</time>
      </trkpt>
      <trkpt lat="44.20696" lon="3.05794">
        <ele>568</ele>
        <time>2014-02-13T13:22:50Z</time>
      </trkpt>
      <trkpt lat="44.20701" lon="3.05791">
        <ele>568</ele>
        <time>2014-02-13T13:22:54Z</time>
      </trkpt>
      <trkpt lat="44.20706" lon="3.0579">
        <ele>570</ele>
        <time>2014-02-13T13:22:59Z</time>
      </trkpt>
      <trkpt lat="44.20711" lon="3.05791">
        <ele>572</ele>
        <time>2014-02-13T13:23:06Z</time>
      </trkpt>
      <trkpt lat="44.20716" lon="3.05793">
        <ele>574</ele>
        <time>2014-02-13T13:23:11Z</time>
      </trkpt>
      <trkpt lat="44.20721" lon="3.05795">
        <ele>576</ele>
        <time>2014-02-13T13:23:16Z</time>
      </trkpt>
      <trkpt lat="44.20726" lon="3.05798">
        <ele>577</ele>
        <time>2014-02-13T13:23:20Z</time>
      </trkpt>
      <trkpt lat="44.2073" lon="3.05804">
        <ele>575</ele>
        <time>2014-02-13T13:23:26Z</time>
      </trkpt>
      <trkpt lat="44.20734" lon="3.05806">
        <ele>575</ele>
        <time>2014-02-13T13:23:32Z</time>
      </trkpt>
      <trkpt lat="44.20739" lon="3.05805">
        <ele>577</ele>
        <time>2014-02-13T13:23:35Z</time>
      </trkpt>
      <trkpt lat="44.20744" lon="3.05806">
        <ele>579</ele>
        <time>2014-02-13T13:23:40Z</time>
      </trkpt>
      <trkpt lat="44.20748" lon="3.0581">
        <ele>580</ele>
        <time>2014-02-13T13:23:46Z</time>
      </trkpt>
      <trkpt lat="44.20752" lon="3.05815">
        <ele>581</ele>
        <time>2014-02-13T13:23:55Z</time>
      </trkpt>
      <trkpt lat="44.20756" lon="3.05819">
        <ele>582</ele>
        <time>2014-02-13T13:24:00Z</time>
      </trkpt>
      <trkpt lat="44.20761" lon="3.05823">
        <ele>582</ele>
        <time>2014-02-13T13:24:06Z</time>
      </trkpt>
      <trkpt lat="44.20766" lon="3.05826">
        <ele>582</ele>
        <time>2014-02-13T13:24:09Z</time>
      </trkpt>
      <trkpt lat="44.20771" lon="3.05828">
        <ele>581</ele>
        <time>2014-02-13T13:24:12Z</time>
      </trkpt>
      <trkpt lat="44.20775" lon="3.0583">
        <ele>581</ele>
        <time>2014-02-13T13:24:16Z</time>
      </trkpt>
      <trkpt lat="44.20777" lon="3.0583">
        <ele>582</ele>
        <time>2014-02-13T13:24:42Z</time>
      </trkpt>
      <trkpt lat="44.20779" lon="3.05832">
        <ele>583</ele>
        <time>2014-02-13T13:24:53Z</time>
      </trkpt>
      <trkpt lat="44.20777" lon="3.05834">
        <ele>585</ele>
        <time>2014-02-13T13:25:28Z</time>
      </trkpt>
      <trkpt lat="44.20772" lon="3.05834">
        <ele>586</ele>
        <time>2014-02-13T13:25:43Z</time>
      </trkpt>
      <trkpt lat="44.20769" lon="3.05839">
        <ele>587</ele>
        <time>2014-02-13T13:25:49Z</time>
      </trkpt>
      <trkpt lat="44.20765" lon="3.05843">
        <ele>588</ele>
        <time>2014-02-13T13:25:54Z</time>
      </trkpt>
      <trkpt lat="44.20761" lon="3.05847">
        <ele>589</ele>
        <time>2014-02-13T13:26:00Z</time>
      </trkpt>
      <trkpt lat="44.20757" lon="3.05848">
        <ele>590</ele>
        <time>2014-02-13T13:26:04Z</time>
      </trkpt>
      <trkpt lat="44.20751" lon="3.05848">
        <ele>592</ele>
        <time>2014-02-13T13:26:08Z</time>
      </trkpt>
      <trkpt lat="44.20747" lon="3.05851">
        <ele>592</ele>
        <time>2014-02-13T13:26:14Z</time>
      </trkpt>
      <trkpt lat="44.20742" lon="3.05855">
        <ele>593</ele>
        <time>2014-02-13T13:26:17Z</time>
      </trkpt>
      <trkpt lat="44.2074" lon="3.05861">
        <ele>593</ele>
        <time>2014-02-13T13:26:21Z</time>
      </trkpt>
      <trkpt lat="44.20742" lon="3.05867">
        <ele>594</ele>
        <time>2014-02-13T13:26:28Z</time>
      </trkpt>
      <trkpt lat="44.20748" lon="3.05869">
        <ele>594</ele>
        <time>2014-02-13T13:26:31Z</time>
      </trkpt>
      <trkpt lat="44.20752" lon="3.05872">
        <ele>596</ele>
        <time>2014-02-13T13:26:36Z</time>
      </trkpt>
      <trkpt lat="44.20756" lon="3.05874">
        <ele>598</ele>
        <time>2014-02-13T13:26:41Z</time>
      </trkpt>
      <trkpt lat="44.2076" lon="3.05879">
        <ele>600</ele>
        <time>2014-02-13T13:26:47Z</time>
      </trkpt>
      <trkpt lat="44.20761" lon="3.05885">
        <ele>601</ele>
        <time>2014-02-13T13:26:53Z</time>
      </trkpt>
      <trkpt lat="44.20763" lon="3.05892">
        <ele>602</ele>
        <time>2014-02-13T13:26:59Z</time>
      </trkpt>
      <trkpt lat="44.20763" lon="3.05898">
        <ele>602</ele>
        <time>2014-02-13T13:27:05Z</time>
      </trkpt>
      <trkpt lat="44.20763" lon="3.05905">
        <ele>602</ele>
        <time>2014-02-13T13:27:11Z</time>
      </trkpt>
      <trkpt lat="44.20764" lon="3.05912">
        <ele>603</ele>
        <time>2014-02-13T13:27:14Z</time>
      </trkpt>
      <trkpt lat="44.20765" lon="3.05919">
        <ele>604</ele>
        <time>2014-02-13T13:27:20Z</time>
      </trkpt>
      <trkpt lat="44.20767" lon="3.05925">
        <ele>605</ele>
        <time>2014-02-13T13:27:26Z</time>
      </trkpt>
      <trkpt lat="44.20758" lon="3.05937">
        <ele>606</ele>
        <time>2014-02-13T13:27:52Z</time>
      </trkpt>
      <trkpt lat="44.20757" lon="3.05945">
        <ele>607</ele>
        <time>2014-02-13T13:28:04Z</time>
      </trkpt>
      <trkpt lat="44.20749" lon="3.05945">
        <ele>608</ele>
        <time>2014-02-13T13:28:22Z</time>
      </trkpt>
      <trkpt lat="44.20774" lon="3.05948">
        <ele>608</ele>
        <time>2014-02-13T13:28:34Z</time>
      </trkpt>
      <trkpt lat="44.20781" lon="3.0594">
        <ele>610</ele>
        <time>2014-02-13T13:28:51Z</time>
      </trkpt>
      <trkpt lat="44.2077" lon="3.05934">
        <ele>611</ele>
        <time>2014-02-13T13:29:25Z</time>
      </trkpt>
      <trkpt lat="44.20768" lon="3.05939">
        <ele>622</ele>
        <time>2014-02-13T13:30:36Z</time>
      </trkpt>
      <trkpt lat="44.2077" lon="3.05945">
        <ele>623</ele>
        <time>2014-02-13T13:30:58Z</time>
      </trkpt>
      <trkpt lat="44.20767" lon="3.0595">
        <ele>622</ele>
        <time>2014-02-13T13:31:02Z</time>
      </trkpt>
      <trkpt lat="44.20769" lon="3.05956">
        <ele>622</ele>
        <time>2014-02-13T13:31:07Z</time>
      </trkpt>
      <trkpt lat="44.20772" lon="3.05962">
        <ele>622</ele>
        <time>2014-02-13T13:31:12Z</time>
      </trkpt>
      <trkpt lat="44.20772" lon="3.05969">
        <ele>623</ele>
        <time>2014-02-13T13:31:18Z</time>
      </trkpt>
      <trkpt lat="44.2077" lon="3.05975">
        <ele>624</ele>
        <time>2014-02-13T13:31:23Z</time>
      </trkpt>
      <trkpt lat="44.20769" lon="3.05983">
        <ele>623</ele>
        <time>2014-02-13T13:31:28Z</time>
      </trkpt>
      <trkpt lat="44.20767" lon="3.05989">
        <ele>622</ele>
        <time>2014-02-13T13:31:31Z</time>
      </trkpt>
      <trkpt lat="44.20765" lon="3.05996">
        <ele>620</ele>
        <time>2014-02-13T13:31:37Z</time>
      </trkpt>
      <trkpt lat="44.20769" lon="3.06">
        <ele>620</ele>
        <time>2014-02-13T13:31:42Z</time>
      </trkpt>
      <trkpt lat="44.20775" lon="3.06002">
        <ele>619</ele>
        <time>2014-02-13T13:31:48Z</time>
      </trkpt>
      <trkpt lat="44.2078" lon="3.06005">
        <ele>619</ele>
        <time>2014-02-13T13:31:52Z</time>
      </trkpt>
      <trkpt lat="44.20785" lon="3.06009">
        <ele>619</ele>
        <time>2014-02-13T13:31:56Z</time>
      </trkpt>
      <trkpt lat="44.20789" lon="3.06013">
        <ele>618</ele>
        <time>2014-02-13T13:32:00Z</time>
      </trkpt>
      <trkpt lat="44.20795" lon="3.06016">
        <ele>619</ele>
        <time>2014-02-13T13:32:04Z</time>
      </trkpt>
      <trkpt lat="44.208" lon="3.06017">
        <ele>619</ele>
        <time>2014-02-13T13:32:08Z</time>
      </trkpt>
      <trkpt lat="44.20806" lon="3.06017">
        <ele>619</ele>
        <time>2014-02-13T13:32:12Z</time>
      </trkpt>
      <trkpt lat="44.20811" lon="3.06018">
        <ele>618</ele>
        <time>2014-02-13T13:32:16Z</time>
      </trkpt>
      <trkpt lat="44.20817" lon="3.06017">
        <ele>619</ele>
        <time>2014-02-13T13:32:20Z</time>
      </trkpt>
      <trkpt lat="44.20822" lon="3.06017">
        <ele>619</ele>
        <time>2014-02-13T13:32:24Z</time>
      </trkpt>
      <trkpt lat="44.20827" lon="3.06015">
        <ele>618</ele>
        <time>2014-02-13T13:32:28Z</time>
      </trkpt>
      <trkpt lat="44.20832" lon="3.06013">
        <ele>618</ele>
        <time>2014-02-13T13:32:32Z</time>
      </trkpt>
      <trkpt lat="44.20836" lon="3.06011">
        <ele>618</ele>
        <time>2014-02-13T13:32:35Z</time>
      </trkpt>
      <trkpt lat="44.20841" lon="3.06009">
        <ele>618</ele>
        <time>2014-02-13T13:32:39Z</time>
      </trkpt>
      <trkpt lat="44.20846" lon="3.06008">
        <ele>618</ele>
        <time>2014-02-13T13:32:44Z</time>
      </trkpt>
      <trkpt lat="44.2085" lon="3.06006">
        <ele>617</ele>
        <time>2014-02-13T13:32:46Z</time>
      </trkpt>
      <trkpt lat="44.20855" lon="3.06004">
        <ele>616</ele>
        <time>2014-02-13T13:32:49Z</time>
      </trkpt>
      <trkpt lat="44.20861" lon="3.06004">
        <ele>616</ele>
        <time>2014-02-13T13:32:52Z</time>
      </trkpt>
      <trkpt lat="44.20866" lon="3.06004">
        <ele>616</ele>
        <time>2014-02-13T13:32:55Z</time>
      </trkpt>
      <trkpt lat="44.20871" lon="3.06005">
        <ele>616</ele>
        <time>2014-02-13T13:32:59Z</time>
      </trkpt>
      <trkpt lat="44.20876" lon="3.06006">
        <ele>617</ele>
        <time>2014-02-13T13:33:04Z</time>
      </trkpt>
      <trkpt lat="44.20881" lon="3.06007">
        <ele>615</ele>
        <time>2014-02-13T13:33:08Z</time>
      </trkpt>
      <trkpt lat="44.20886" lon="3.06007">
        <ele>614</ele>
        <time>2014-02-13T13:33:12Z</time>
      </trkpt>
      <trkpt lat="44.20892" lon="3.06007">
        <ele>613</ele>
        <time>2014-02-13T13:33:15Z</time>
      </trkpt>
      <trkpt lat="44.20897" lon="3.06007">
        <ele>613</ele>
        <time>2014-02-13T13:33:20Z</time>
      </trkpt>
      <trkpt lat="44.20903" lon="3.06008">
        <ele>614</ele>
        <time>2014-02-13T13:33:24Z</time>
      </trkpt>
      <trkpt lat="44.20909" lon="3.06008">
        <ele>615</ele>
        <time>2014-02-13T13:33:27Z</time>
      </trkpt>
      <trkpt lat="44.20914" lon="3.06009">
        <ele>616</ele>
        <time>2014-02-13T13:33:29Z</time>
      </trkpt>
      <trkpt lat="44.20919" lon="3.06009">
        <ele>616</ele>
        <time>2014-02-13T13:33:32Z</time>
      </trkpt>
      <trkpt lat="44.20924" lon="3.0601">
        <ele>616</ele>
        <time>2014-02-13T13:33:35Z</time>
      </trkpt>
      <trkpt lat="44.20929" lon="3.06011">
        <ele>617</ele>
        <time>2014-02-13T13:33:40Z</time>
      </trkpt>
      <trkpt lat="44.20934" lon="3.06013">
        <ele>618</ele>
        <time>2014-02-13T13:33:42Z</time>
      </trkpt>
      <trkpt lat="44.20939" lon="3.06015">
        <ele>619</ele>
        <time>2014-02-13T13:33:47Z</time>
      </trkpt>
      <trkpt lat="44.20944" lon="3.06015">
        <ele>619</ele>
        <time>2014-02-13T13:33:52Z</time>
      </trkpt>
      <trkpt lat="44.2095" lon="3.06016">
        <ele>619</ele>
        <time>2014-02-13T13:33:56Z</time>
      </trkpt>
      <trkpt lat="44.20955" lon="3.06019">
        <ele>620</ele>
        <time>2014-02-13T13:34:00Z</time>
      </trkpt>
      <trkpt lat="44.2096" lon="3.06019">
        <ele>619</ele>
        <time>2014-02-13T13:34:03Z</time>
      </trkpt>
      <trkpt lat="44.20965" lon="3.06021">
        <ele>619</ele>
        <time>2014-02-13T13:34:06Z</time>
      </trkpt>
      <trkpt lat="44.2097" lon="3.06023">
        <ele>619</ele>
        <time>2014-02-13T13:34:09Z</time>
      </trkpt>
      <trkpt lat="44.20975" lon="3.06024">
        <ele>618</ele>
        <time>2014-02-13T13:34:12Z</time>
      </trkpt>
      <trkpt lat="44.2098" lon="3.06023">
        <ele>618</ele>
        <time>2014-02-13T13:34:15Z</time>
      </trkpt>
      <trkpt lat="44.20985" lon="3.06023">
        <ele>619</ele>
        <time>2014-02-13T13:34:18Z</time>
      </trkpt>
      <trkpt lat="44.2099" lon="3.06023">
        <ele>619</ele>
        <time>2014-02-13T13:34:23Z</time>
      </trkpt>
      <trkpt lat="44.20995" lon="3.06023">
        <ele>619</ele>
        <time>2014-02-13T13:34:26Z</time>
      </trkpt>
      <trkpt lat="44.21001" lon="3.06023">
        <ele>620</ele>
        <time>2014-02-13T13:34:31Z</time>
      </trkpt>
      <trkpt lat="44.21006" lon="3.06022">
        <ele>619</ele>
        <time>2014-02-13T13:34:35Z</time>
      </trkpt>
      <trkpt lat="44.2101" lon="3.06021">
        <ele>619</ele>
        <time>2014-02-13T13:34:38Z</time>
      </trkpt>
      <trkpt lat="44.21015" lon="3.0602">
        <ele>619</ele>
        <time>2014-02-13T13:34:42Z</time>
      </trkpt>
      <trkpt lat="44.2102" lon="3.06017">
        <ele>619</ele>
        <time>2014-02-13T13:34:45Z</time>
      </trkpt>
      <trkpt lat="44.21024" lon="3.06015">
        <ele>618</ele>
        <time>2014-02-13T13:34:49Z</time>
      </trkpt>
      <trkpt lat="44.21029" lon="3.06014">
        <ele>617</ele>
        <time>2014-02-13T13:34:52Z</time>
      </trkpt>
      <trkpt lat="44.21034" lon="3.06015">
        <ele>617</ele>
        <time>2014-02-13T13:34:58Z</time>
      </trkpt>
      <trkpt lat="44.21039" lon="3.06019">
        <ele>618</ele>
        <time>2014-02-13T13:35:02Z</time>
      </trkpt>
      <trkpt lat="44.21043" lon="3.06023">
        <ele>618</ele>
        <time>2014-02-13T13:35:08Z</time>
      </trkpt>
      <trkpt lat="44.21047" lon="3.06028">
        <ele>618</ele>
        <time>2014-02-13T13:35:13Z</time>
      </trkpt>
      <trkpt lat="44.21051" lon="3.06024">
        <ele>619</ele>
        <time>2014-02-13T13:35:21Z</time>
      </trkpt>
      <trkpt lat="44.21056" lon="3.06025">
        <ele>619</ele>
        <time>2014-02-13T13:35:30Z</time>
      </trkpt>
      <trkpt lat="44.21054" lon="3.0603">
        <ele>620</ele>
        <time>2014-02-13T13:35:43Z</time>
      </trkpt>
      <trkpt lat="44.21059" lon="3.06034">
        <ele>620</ele>
        <time>2014-02-13T13:35:51Z</time>
      </trkpt>
      <trkpt lat="44.21063" lon="3.06038">
        <ele>619</ele>
        <time>2014-02-13T13:35:55Z</time>
      </trkpt>
      <trkpt lat="44.21064" lon="3.06045">
        <ele>618</ele>
        <time>2014-02-13T13:36:03Z</time>
      </trkpt>
      <trkpt lat="44.21064" lon="3.06051">
        <ele>617</ele>
        <time>2014-02-13T13:36:08Z</time>
      </trkpt>
      <trkpt lat="44.21063" lon="3.0606">
        <ele>617</ele>
        <time>2014-02-13T13:36:13Z</time>
      </trkpt>
      <trkpt lat="44.2106" lon="3.06067">
        <ele>617</ele>
        <time>2014-02-13T13:36:17Z</time>
      </trkpt>
      <trkpt lat="44.21057" lon="3.06074">
        <ele>617</ele>
        <time>2014-02-13T13:36:20Z</time>
      </trkpt>
      <trkpt lat="44.21058" lon="3.06081">
        <ele>617</ele>
        <time>2014-02-13T13:36:22Z</time>
      </trkpt>
      <trkpt lat="44.21056" lon="3.06088">
        <ele>616</ele>
        <time>2014-02-13T13:36:27Z</time>
      </trkpt>
      <trkpt lat="44.21054" lon="3.06094">
        <ele>615</ele>
        <time>2014-02-13T13:36:30Z</time>
      </trkpt>
      <trkpt lat="44.2105" lon="3.06099">
        <ele>614</ele>
        <time>2014-02-13T13:36:34Z</time>
      </trkpt>
      <trkpt lat="44.21048" lon="3.06105">
        <ele>614</ele>
        <time>2014-02-13T13:36:37Z</time>
      </trkpt>
      <trkpt lat="44.2105" lon="3.06111">
        <ele>614</ele>
        <time>2014-02-13T13:36:43Z</time>
      </trkpt>
      <trkpt lat="44.21051" lon="3.06118">
        <ele>615</ele>
        <time>2014-02-13T13:36:48Z</time>
      </trkpt>
      <trkpt lat="44.21052" lon="3.06124">
        <ele>616</ele>
        <time>2014-02-13T13:36:52Z</time>
      </trkpt>
      <trkpt lat="44.21054" lon="3.06131">
        <ele>616</ele>
        <time>2014-02-13T13:36:58Z</time>
      </trkpt>
      <trkpt lat="44.21058" lon="3.06136">
        <ele>619</ele>
        <time>2014-02-13T13:37:04Z</time>
      </trkpt>
      <trkpt lat="44.21063" lon="3.06137">
        <ele>621</ele>
        <time>2014-02-13T13:37:07Z</time>
      </trkpt>
      <trkpt lat="44.21069" lon="3.06137">
        <ele>622</ele>
        <time>2014-02-13T13:37:10Z</time>
      </trkpt>
      <trkpt lat="44.21073" lon="3.06135">
        <ele>622</ele>
        <time>2014-02-13T13:37:13Z</time>
      </trkpt>
      <trkpt lat="44.21078" lon="3.06133">
        <ele>621</ele>
        <time>2014-02-13T13:37:17Z</time>
      </trkpt>
      <trkpt lat="44.21082" lon="3.06131">
        <ele>621</ele>
        <time>2014-02-13T13:37:21Z</time>
      </trkpt>
      <trkpt lat="44.21088" lon="3.06129">
        <ele>622</ele>
        <time>2014-02-13T13:37:26Z</time>
      </trkpt>
      <trkpt lat="44.21092" lon="3.06127">
        <ele>622</ele>
        <time>2014-02-13T13:37:28Z</time>
      </trkpt>
      <trkpt lat="44.21098" lon="3.06124">
        <ele>623</ele>
        <time>2014-02-13T13:37:30Z</time>
      </trkpt>
      <trkpt lat="44.21104" lon="3.06121">
        <ele>623</ele>
        <time>2014-02-13T13:37:34Z</time>
      </trkpt>
      <trkpt lat="44.21108" lon="3.06119">
        <ele>624</ele>
        <time>2014-02-13T13:37:38Z</time>
      </trkpt>
      <trkpt lat="44.21113" lon="3.06119">
        <ele>625</ele>
        <time>2014-02-13T13:37:45Z</time>
      </trkpt>
      <trkpt lat="44.21118" lon="3.0612">
        <ele>625</ele>
        <time>2014-02-13T13:37:48Z</time>
      </trkpt>
      <trkpt lat="44.21123" lon="3.06119">
        <ele>626</ele>
        <time>2014-02-13T13:37:52Z</time>
      </trkpt>
      <trkpt lat="44.21127" lon="3.06115">
        <ele>626</ele>
        <time>2014-02-13T13:37:54Z</time>
      </trkpt>
      <trkpt lat="44.21131" lon="3.06112">
        <ele>627</ele>
        <time>2014-02-13T13:37:59Z</time>
      </trkpt>
      <trkpt lat="44.21137" lon="3.0611">
        <ele>628</ele>
        <time>2014-02-13T13:38:03Z</time>
      </trkpt>
      <trkpt lat="44.21142" lon="3.0611">
        <ele>627</ele>
        <time>2014-02-13T13:38:08Z</time>
      </trkpt>
      <trkpt lat="44.21146" lon="3.06112">
        <ele>627</ele>
        <time>2014-02-13T13:38:12Z</time>
      </trkpt>
      <trkpt lat="44.21152" lon="3.06112">
        <ele>627</ele>
        <time>2014-02-13T13:38:15Z</time>
      </trkpt>
      <trkpt lat="44.21157" lon="3.06112">
        <ele>627</ele>
        <time>2014-02-13T13:38:19Z</time>
      </trkpt>
      <trkpt lat="44.21162" lon="3.06112">
        <ele>628</ele>
        <time>2014-02-13T13:38:24Z</time>
      </trkpt>
      <trkpt lat="44.21167" lon="3.06113">
        <ele>627</ele>
        <time>2014-02-13T13:38:28Z</time>
      </trkpt>
      <trkpt lat="44.21174" lon="3.06114">
        <ele>625</ele>
        <time>2014-02-13T13:38:32Z</time>
      </trkpt>
      <trkpt lat="44.21179" lon="3.06113">
        <ele>623</ele>
        <time>2014-02-13T13:38:36Z</time>
      </trkpt>
      <trkpt lat="44.21184" lon="3.06114">
        <ele>623</ele>
        <time>2014-02-13T13:38:43Z</time>
      </trkpt>
      <trkpt lat="44.21188" lon="3.06111">
        <ele>624</ele>
        <time>2014-02-13T13:38:46Z</time>
      </trkpt>
      <trkpt lat="44.21192" lon="3.06109">
        <ele>624</ele>
        <time>2014-02-13T13:38:48Z</time>
      </trkpt>
      <trkpt lat="44.21197" lon="3.06107">
        <ele>625</ele>
        <time>2014-02-13T13:38:51Z</time>
      </trkpt>
      <trkpt lat="44.21202" lon="3.06107">
        <ele>626</ele>
        <time>2014-02-13T13:38:55Z</time>
      </trkpt>
      <trkpt lat="44.21207" lon="3.06105">
        <ele>627</ele>
        <time>2014-02-13T13:39:00Z</time>
      </trkpt>
      <trkpt lat="44.21211" lon="3.06103">
        <ele>627</ele>
        <time>2014-02-13T13:39:05Z</time>
      </trkpt>
      <trkpt lat="44.21216" lon="3.06101">
        <ele>627</ele>
        <time>2014-02-13T13:39:09Z</time>
      </trkpt>
      <trkpt lat="44.21221" lon="3.06098">
        <ele>627</ele>
        <time>2014-02-13T13:39:13Z</time>
      </trkpt>
      <trkpt lat="44.21224" lon="3.06093">
        <ele>629</ele>
        <time>2014-02-13T13:39:17Z</time>
      </trkpt>
      <trkpt lat="44.21229" lon="3.06089">
        <ele>630</ele>
        <time>2014-02-13T13:39:21Z</time>
      </trkpt>
      <trkpt lat="44.21234" lon="3.06087">
        <ele>632</ele>
        <time>2014-02-13T13:39:25Z</time>
      </trkpt>
      <trkpt lat="44.21238" lon="3.06081">
        <ele>633</ele>
        <time>2014-02-13T13:39:29Z</time>
      </trkpt>
      <trkpt lat="44.21241" lon="3.06076">
        <ele>635</ele>
        <time>2014-02-13T13:39:33Z</time>
      </trkpt>
      <trkpt lat="44.21246" lon="3.06074">
        <ele>637</ele>
        <time>2014-02-13T13:39:37Z</time>
      </trkpt>
      <trkpt lat="44.21251" lon="3.06072">
        <ele>639</ele>
        <time>2014-02-13T13:39:42Z</time>
      </trkpt>
      <trkpt lat="44.21255" lon="3.06068">
        <ele>640</ele>
        <time>2014-02-13T13:39:47Z</time>
      </trkpt>
      <trkpt lat="44.2126" lon="3.06067">
        <ele>641</ele>
        <time>2014-02-13T13:39:49Z</time>
      </trkpt>
      <trkpt lat="44.21266" lon="3.06066">
        <ele>642</ele>
        <time>2014-02-13T13:39:53Z</time>
      </trkpt>
      <trkpt lat="44.21271" lon="3.06065">
        <ele>642</ele>
        <time>2014-02-13T13:39:56Z</time>
      </trkpt>
      <trkpt lat="44.21275" lon="3.06065">
        <ele>643</ele>
        <time>2014-02-13T13:40:00Z</time>
      </trkpt>
      <trkpt lat="44.2128" lon="3.06062">
        <ele>644</ele>
        <time>2014-02-13T13:40:06Z</time>
      </trkpt>
      <trkpt lat="44.21285" lon="3.06062">
        <ele>644</ele>
        <time>2014-02-13T13:40:11Z</time>
      </trkpt>
      <trkpt lat="44.21289" lon="3.06064">
        <ele>644</ele>
        <time>2014-02-13T13:40:15Z</time>
      </trkpt>
      <trkpt lat="44.21294" lon="3.06067">
        <ele>646</ele>
        <time>2014-02-13T13:40:18Z</time>
      </trkpt>
      <trkpt lat="44.21299" lon="3.06068">
        <ele>647</ele>
        <time>2014-02-13T13:40:23Z</time>
      </trkpt>
      <trkpt lat="44.21304" lon="3.06069">
        <ele>648</ele>
        <time>2014-02-13T13:40:27Z</time>
      </trkpt>
      <trkpt lat="44.21309" lon="3.06071">
        <ele>649</ele>
        <time>2014-02-13T13:40:32Z</time>
      </trkpt>
      <trkpt lat="44.21314" lon="3.06072">
        <ele>649</ele>
        <time>2014-02-13T13:40:38Z</time>
      </trkpt>
      <trkpt lat="44.21319" lon="3.06073">
        <ele>649</ele>
        <time>2014-02-13T13:40:42Z</time>
      </trkpt>
      <trkpt lat="44.21323" lon="3.06072">
        <ele>649</ele>
        <time>2014-02-13T13:40:45Z</time>
      </trkpt>
      <trkpt lat="44.21329" lon="3.0607">
        <ele>650</ele>
        <time>2014-02-13T13:40:49Z</time>
      </trkpt>
      <trkpt lat="44.21333" lon="3.06069">
        <ele>650</ele>
        <time>2014-02-13T13:40:52Z</time>
      </trkpt>
      <trkpt lat="44.21338" lon="3.06067">
        <ele>651</ele>
        <time>2014-02-13T13:40:58Z</time>
      </trkpt>
      <trkpt lat="44.21343" lon="3.06067">
        <ele>650</ele>
        <time>2014-02-13T13:41:04Z</time>
      </trkpt>
      <trkpt lat="44.21347" lon="3.06065">
        <ele>651</ele>
        <time>2014-02-13T13:41:06Z</time>
      </trkpt>
      <trkpt lat="44.21352" lon="3.06063">
        <ele>652</ele>
        <time>2014-02-13T13:41:11Z</time>
      </trkpt>
      <trkpt lat="44.21357" lon="3.06066">
        <ele>652</ele>
        <time>2014-02-13T13:41:16Z</time>
      </trkpt>
      <trkpt lat="44.21362" lon="3.06068">
        <ele>653</ele>
        <time>2014-02-13T13:41:19Z</time>
      </trkpt>
      <trkpt lat="44.21366" lon="3.06071">
        <ele>654</ele>
        <time>2014-02-13T13:41:22Z</time>
      </trkpt>
      <trkpt lat="44.2137" lon="3.06074">
        <ele>655</ele>
        <time>2014-02-13T13:41:24Z</time>
      </trkpt>
      <trkpt lat="44.21374" lon="3.06077">
        <ele>657</ele>
        <time>2014-02-13T13:41:28Z</time>
      </trkpt>
      <trkpt lat="44.21378" lon="3.06083">
        <ele>657</ele>
        <time>2014-02-13T13:41:32Z</time>
      </trkpt>
      <trkpt lat="44.21382" lon="3.06086">
        <ele>659</ele>
        <time>2014-02-13T13:41:36Z</time>
      </trkpt>
      <trkpt lat="44.21387" lon="3.0609">
        <ele>661</ele>
        <time>2014-02-13T13:41:40Z</time>
      </trkpt>
      <trkpt lat="44.2139" lon="3.06094">
        <ele>662</ele>
        <time>2014-02-13T13:41:44Z</time>
      </trkpt>
      <trkpt lat="44.21395" lon="3.06097">
        <ele>663</ele>
        <time>2014-02-13T13:41:48Z</time>
      </trkpt>
      <trkpt lat="44.214" lon="3.06099">
        <ele>664</ele>
        <time>2014-02-13T13:41:51Z</time>
      </trkpt>
      <trkpt lat="44.21404" lon="3.06102">
        <ele>665</ele>
        <time>2014-02-13T13:41:56Z</time>
      </trkpt>
      <trkpt lat="44.21409" lon="3.06104">
        <ele>666</ele>
        <time>2014-02-13T13:42:00Z</time>
      </trkpt>
      <trkpt lat="44.21413" lon="3.06108">
        <ele>667</ele>
        <time>2014-02-13T13:42:04Z</time>
      </trkpt>
      <trkpt lat="44.21419" lon="3.0611">
        <ele>667</ele>
        <time>2014-02-13T13:42:09Z</time>
      </trkpt>
      <trkpt lat="44.21424" lon="3.06112">
        <ele>668</ele>
        <time>2014-02-13T13:42:12Z</time>
      </trkpt>
      <trkpt lat="44.21429" lon="3.06114">
        <ele>669</ele>
        <time>2014-02-13T13:42:16Z</time>
      </trkpt>
      <trkpt lat="44.21434" lon="3.06116">
        <ele>669</ele>
        <time>2014-02-13T13:42:20Z</time>
      </trkpt>
      <trkpt lat="44.21439" lon="3.06117">
        <ele>668</ele>
        <time>2014-02-13T13:42:23Z</time>
      </trkpt>
      <trkpt lat="44.21445" lon="3.0612">
        <ele>669</ele>
        <time>2014-02-13T13:42:29Z</time>
      </trkpt>
      <trkpt lat="44.2145" lon="3.06121">
        <ele>668</ele>
        <time>2014-02-13T13:42:37Z</time>
      </trkpt>
      <trkpt lat="44.21455" lon="3.0612">
        <ele>669</ele>
        <time>2014-02-13T13:42:42Z</time>
      </trkpt>
      <trkpt lat="44.2146" lon="3.06118">
        <ele>670</ele>
        <time>2014-02-13T13:42:46Z</time>
      </trkpt>
      <trkpt lat="44.21465" lon="3.06118">
        <ele>672</ele>
        <time>2014-02-13T13:42:49Z</time>
      </trkpt>
      <trkpt lat="44.2147" lon="3.06118">
        <ele>672</ele>
        <time>2014-02-13T13:42:54Z</time>
      </trkpt>
      <trkpt lat="44.21476" lon="3.06119">
        <ele>673</ele>
        <time>2014-02-13T13:42:59Z</time>
      </trkpt>
      <trkpt lat="44.21481" lon="3.06117">
        <ele>674</ele>
        <time>2014-02-13T13:43:04Z</time>
      </trkpt>
      <trkpt lat="44.21486" lon="3.06116">
        <ele>675</ele>
        <time>2014-02-13T13:43:08Z</time>
      </trkpt>
      <trkpt lat="44.21491" lon="3.06115">
        <ele>676</ele>
        <time>2014-02-13T13:43:11Z</time>
      </trkpt>
      <trkpt lat="44.21496" lon="3.06113">
        <ele>677</ele>
        <time>2014-02-13T13:43:15Z</time>
      </trkpt>
      <trkpt lat="44.21501" lon="3.06112">
        <ele>678</ele>
        <time>2014-02-13T13:43:19Z</time>
      </trkpt>
      <trkpt lat="44.21507" lon="3.06112">
        <ele>679</ele>
        <time>2014-02-13T13:43:23Z</time>
      </trkpt>
      <trkpt lat="44.21512" lon="3.0611">
        <ele>679</ele>
        <time>2014-02-13T13:43:27Z</time>
      </trkpt>
      <trkpt lat="44.21516" lon="3.06105">
        <ele>679</ele>
        <time>2014-02-13T13:43:32Z</time>
      </trkpt>
      <trkpt lat="44.21521" lon="3.06103">
        <ele>679</ele>
        <time>2014-02-13T13:43:36Z</time>
      </trkpt>
      <trkpt lat="44.21525" lon="3.06104">
        <ele>679</ele>
        <time>2014-02-13T13:43:40Z</time>
      </trkpt>
      <trkpt lat="44.21531" lon="3.06104">
        <ele>679</ele>
        <time>2014-02-13T13:43:44Z</time>
      </trkpt>
      <trkpt lat="44.21535" lon="3.06103">
        <ele>679</ele>
        <time>2014-02-13T13:43:47Z</time>
      </trkpt>
      <trkpt lat="44.21541" lon="3.061">
        <ele>679</ele>
        <time>2014-02-13T13:43:50Z</time>
      </trkpt>
      <trkpt lat="44.21546" lon="3.06099">
        <ele>680</ele>
        <time>2014-02-13T13:43:53Z</time>
      </trkpt>
      <trkpt lat="44.21551" lon="3.06098">
        <ele>680</ele>
        <time>2014-02-13T13:43:57Z</time>
      </trkpt>
      <trkpt lat="44.21555" lon="3.06095">
        <ele>681</ele>
        <time>2014-02-13T13:44:00Z</time>
      </trkpt>
      <trkpt lat="44.21559" lon="3.06093">
        <ele>681</ele>
        <time>2014-02-13T13:44:03Z</time>
      </trkpt>
      <trkpt lat="44.21564" lon="3.06089">
        <ele>682</ele>
        <time>2014-02-13T13:44:08Z</time>
      </trkpt>
      <trkpt lat="44.21568" lon="3.06089">
        <ele>681</ele>
        <time>2014-02-13T13:44:12Z</time>
      </trkpt>
      <trkpt lat="44.21573" lon="3.06087">
        <ele>680</ele>
        <time>2014-02-13T13:44:15Z</time>
      </trkpt>
      <trkpt lat="44.21577" lon="3.06085">
        <ele>680</ele>
        <time>2014-02-13T13:44:18Z</time>
      </trkpt>
      <trkpt lat="44.21581" lon="3.06078">
        <ele>680</ele>
        <time>2014-02-13T13:44:21Z</time>
      </trkpt>
      <trkpt lat="44.21584" lon="3.06073">
        <ele>680</ele>
        <time>2014-02-13T13:44:23Z</time>
      </trkpt>
      <trkpt lat="44.21586" lon="3.06067">
        <ele>680</ele>
        <time>2014-02-13T13:44:26Z</time>
      </trkpt>
      <trkpt lat="44.21588" lon="3.06061">
        <ele>681</ele>
        <time>2014-02-13T13:44:30Z</time>
      </trkpt>
      <trkpt lat="44.21588" lon="3.06055">
        <ele>681</ele>
        <time>2014-02-13T13:44:38Z</time>
      </trkpt>
      <trkpt lat="44.21594" lon="3.06054">
        <ele>681</ele>
        <time>2014-02-13T13:44:42Z</time>
      </trkpt>
      <trkpt lat="44.21598" lon="3.06055">
        <ele>681</ele>
        <time>2014-02-13T13:44:45Z</time>
      </trkpt>
      <trkpt lat="44.21604" lon="3.06059">
        <ele>681</ele>
        <time>2014-02-13T13:44:49Z</time>
      </trkpt>
      <trkpt lat="44.21609" lon="3.06059">
        <ele>682</ele>
        <time>2014-02-13T13:44:52Z</time>
      </trkpt>
      <trkpt lat="44.21614" lon="3.06059">
        <ele>682</ele>
        <time>2014-02-13T13:44:55Z</time>
      </trkpt>
      <trkpt lat="44.21619" lon="3.06059">
        <ele>683</ele>
        <time>2014-02-13T13:44:58Z</time>
      </trkpt>
      <trkpt lat="44.21624" lon="3.06058">
        <ele>683</ele>
        <time>2014-02-13T13:45:02Z</time>
      </trkpt>
      <trkpt lat="44.21629" lon="3.06058">
        <ele>685</ele>
        <time>2014-02-13T13:45:07Z</time>
      </trkpt>
      <trkpt lat="44.21641" lon="3.06052">
        <ele>691</ele>
        <time>2014-02-13T13:45:19Z</time>
      </trkpt>
      <trkpt lat="44.21646" lon="3.06052">
        <ele>691</ele>
        <time>2014-02-13T13:45:23Z</time>
      </trkpt>
      <trkpt lat="44.21651" lon="3.06055">
        <ele>691</ele>
        <time>2014-02-13T13:45:26Z</time>
      </trkpt>
      <trkpt lat="44.21656" lon="3.06056">
        <ele>691</ele>
        <time>2014-02-13T13:45:29Z</time>
      </trkpt>
      <trkpt lat="44.21661" lon="3.06057">
        <ele>692</ele>
        <time>2014-02-13T13:45:33Z</time>
      </trkpt>
      <trkpt lat="44.21666" lon="3.06056">
        <ele>692</ele>
        <time>2014-02-13T13:45:37Z</time>
      </trkpt>
      <trkpt lat="44.21671" lon="3.06057">
        <ele>692</ele>
        <time>2014-02-13T13:45:42Z</time>
      </trkpt>
      <trkpt lat="44.21674" lon="3.06063">
        <ele>691</ele>
        <time>2014-02-13T13:45:48Z</time>
      </trkpt>
      <trkpt lat="44.21677" lon="3.06068">
        <ele>690</ele>
        <time>2014-02-13T13:45:53Z</time>
      </trkpt>
      <trkpt lat="44.2168" lon="3.06074">
        <ele>690</ele>
        <time>2014-02-13T13:45:57Z</time>
      </trkpt>
      <trkpt lat="44.21682" lon="3.0608">
        <ele>690</ele>
        <time>2014-02-13T13:46:01Z</time>
      </trkpt>
      <trkpt lat="44.21685" lon="3.06086">
        <ele>690</ele>
        <time>2014-02-13T13:46:04Z</time>
      </trkpt>
      <trkpt lat="44.21687" lon="3.06092">
        <ele>691</ele>
        <time>2014-02-13T13:46:07Z</time>
      </trkpt>
      <trkpt lat="44.21689" lon="3.06097">
        <ele>692</ele>
        <time>2014-02-13T13:46:10Z</time>
      </trkpt>
      <trkpt lat="44.21691" lon="3.06105">
        <ele>693</ele>
        <time>2014-02-13T13:46:14Z</time>
      </trkpt>
      <trkpt lat="44.21692" lon="3.06113">
        <ele>694</ele>
        <time>2014-02-13T13:46:18Z</time>
      </trkpt>
      <trkpt lat="44.21692" lon="3.0612">
        <ele>694</ele>
        <time>2014-02-13T13:46:22Z</time>
      </trkpt>
      <trkpt lat="44.21693" lon="3.06127">
        <ele>695</ele>
        <time>2014-02-13T13:46:25Z</time>
      </trkpt>
      <trkpt lat="44.21695" lon="3.06133">
        <ele>695</ele>
        <time>2014-02-13T13:46:28Z</time>
      </trkpt>
      <trkpt lat="44.21696" lon="3.06139">
        <ele>696</ele>
        <time>2014-02-13T13:46:31Z</time>
      </trkpt>
      <trkpt lat="44.21698" lon="3.06146">
        <ele>696</ele>
        <time>2014-02-13T13:46:35Z</time>
      </trkpt>
      <trkpt lat="44.21699" lon="3.06154">
        <ele>695</ele>
        <time>2014-02-13T13:46:39Z</time>
      </trkpt>
      <trkpt lat="44.21698" lon="3.06161">
        <ele>695</ele>
        <time>2014-02-13T13:46:42Z</time>
      </trkpt>
      <trkpt lat="44.21695" lon="3.06168">
        <ele>695</ele>
        <time>2014-02-13T13:46:45Z</time>
      </trkpt>
      <trkpt lat="44.21693" lon="3.06174">
        <ele>695</ele>
        <time>2014-02-13T13:46:48Z</time>
      </trkpt>
      <trkpt lat="44.21695" lon="3.0618">
        <ele>694</ele>
        <time>2014-02-13T13:46:51Z</time>
      </trkpt>
      <trkpt lat="44.21698" lon="3.06186">
        <ele>694</ele>
        <time>2014-02-13T13:46:54Z</time>
      </trkpt>
      <trkpt lat="44.217" lon="3.06193">
        <ele>694</ele>
        <time>2014-02-13T13:46:57Z</time>
      </trkpt>
      <trkpt lat="44.21701" lon="3.062">
        <ele>693</ele>
        <time>2014-02-13T13:47:01Z</time>
      </trkpt>
      <trkpt lat="44.21703" lon="3.06208">
        <ele>693</ele>
        <time>2014-02-13T13:47:05Z</time>
      </trkpt>
      <trkpt lat="44.21704" lon="3.06216">
        <ele>693</ele>
        <time>2014-02-13T13:47:09Z</time>
      </trkpt>
      <trkpt lat="44.21706" lon="3.06222">
        <ele>693</ele>
        <time>2014-02-13T13:47:12Z</time>
      </trkpt>
      <trkpt lat="44.21709" lon="3.06229">
        <ele>692</ele>
        <time>2014-02-13T13:47:16Z</time>
      </trkpt>
      <trkpt lat="44.21712" lon="3.06235">
        <ele>692</ele>
        <time>2014-02-13T13:47:21Z</time>
      </trkpt>
      <trkpt lat="44.21713" lon="3.06241">
        <ele>692</ele>
        <time>2014-02-13T13:47:24Z</time>
      </trkpt>
      <trkpt lat="44.21714" lon="3.06248">
        <ele>692</ele>
        <time>2014-02-13T13:47:28Z</time>
      </trkpt>
      <trkpt lat="44.21717" lon="3.06254">
        <ele>692</ele>
        <time>2014-02-13T13:47:32Z</time>
      </trkpt>
      <trkpt lat="44.21719" lon="3.0626">
        <ele>692</ele>
        <time>2014-02-13T13:47:36Z</time>
      </trkpt>
      <trkpt lat="44.2172" lon="3.06267">
        <ele>691</ele>
        <time>2014-02-13T13:47:39Z</time>
      </trkpt>
      <trkpt lat="44.21721" lon="3.06275">
        <ele>692</ele>
        <time>2014-02-13T13:47:42Z</time>
      </trkpt>
      <trkpt lat="44.21723" lon="3.06282">
        <ele>692</ele>
        <time>2014-02-13T13:47:46Z</time>
      </trkpt>
      <trkpt lat="44.21726" lon="3.06288">
        <ele>690</ele>
        <time>2014-02-13T13:47:50Z</time>
      </trkpt>
      <trkpt lat="44.21727" lon="3.06295">
        <ele>689</ele>
        <time>2014-02-13T13:47:54Z</time>
      </trkpt>
      <trkpt lat="44.21728" lon="3.06301">
        <ele>689</ele>
        <time>2014-02-13T13:47:57Z</time>
      </trkpt>
      <trkpt lat="44.2173" lon="3.06314">
        <ele>684</ele>
        <time>2014-02-13T13:48:06Z</time>
      </trkpt>
      <trkpt lat="44.21731" lon="3.06321">
        <ele>684</ele>
        <time>2014-02-13T13:48:10Z</time>
      </trkpt>
      <trkpt lat="44.21732" lon="3.06327">
        <ele>685</ele>
        <time>2014-02-13T13:48:13Z</time>
      </trkpt>
      <trkpt lat="44.21732" lon="3.0633">
        <ele>686</ele>
        <time>2014-02-13T13:48:19Z</time>
      </trkpt>
      <trkpt lat="44.21731" lon="3.06334">
        <ele>687</ele>
        <time>2014-02-13T13:48:25Z</time>
      </trkpt>
      <trkpt lat="44.21734" lon="3.0634">
        <ele>687</ele>
        <time>2014-02-13T13:48:34Z</time>
      </trkpt>
      <trkpt lat="44.21736" lon="3.06346">
        <ele>688</ele>
        <time>2014-02-13T13:48:38Z</time>
      </trkpt>
      <trkpt lat="44.21741" lon="3.06348">
        <ele>688</ele>
        <time>2014-02-13T13:48:42Z</time>
      </trkpt>
      <trkpt lat="44.21745" lon="3.06353">
        <ele>688</ele>
        <time>2014-02-13T13:48:49Z</time>
      </trkpt>
      <trkpt lat="44.21747" lon="3.06359">
        <ele>688</ele>
        <time>2014-02-13T13:48:52Z</time>
      </trkpt>
      <trkpt lat="44.21748" lon="3.06365">
        <ele>688</ele>
        <time>2014-02-13T13:48:55Z</time>
      </trkpt>
      <trkpt lat="44.21749" lon="3.06372">
        <ele>688</ele>
        <time>2014-02-13T13:48:58Z</time>
      </trkpt>
      <trkpt lat="44.21752" lon="3.0638">
        <ele>689</ele>
        <time>2014-02-13T13:49:02Z</time>
      </trkpt>
      <trkpt lat="44.21755" lon="3.06385">
        <ele>690</ele>
        <time>2014-02-13T13:49:05Z</time>
      </trkpt>
      <trkpt lat="44.21758" lon="3.0639">
        <ele>690</ele>
        <time>2014-02-13T13:49:08Z</time>
      </trkpt>
      <trkpt lat="44.21761" lon="3.06397">
        <ele>691</ele>
        <time>2014-02-13T13:49:12Z</time>
      </trkpt>
      <trkpt lat="44.2176" lon="3.06403">
        <ele>692</ele>
        <time>2014-02-13T13:49:16Z</time>
      </trkpt>
      <trkpt lat="44.21757" lon="3.06409">
        <ele>693</ele>
        <time>2014-02-13T13:49:20Z</time>
      </trkpt>
      <trkpt lat="44.21755" lon="3.06416">
        <ele>694</ele>
        <time>2014-02-13T13:49:24Z</time>
      </trkpt>
      <trkpt lat="44.21753" lon="3.06424">
        <ele>695</ele>
        <time>2014-02-13T13:49:28Z</time>
      </trkpt>
      <trkpt lat="44.21753" lon="3.06432">
        <ele>695</ele>
        <time>2014-02-13T13:49:32Z</time>
      </trkpt>
      <trkpt lat="44.21755" lon="3.06439">
        <ele>696</ele>
        <time>2014-02-13T13:49:36Z</time>
      </trkpt>
      <trkpt lat="44.21757" lon="3.06447">
        <ele>696</ele>
        <time>2014-02-13T13:49:40Z</time>
      </trkpt>
      <trkpt lat="44.21757" lon="3.06455">
        <ele>697</ele>
        <time>2014-02-13T13:49:44Z</time>
      </trkpt>
      <trkpt lat="44.21758" lon="3.06463">
        <ele>697</ele>
        <time>2014-02-13T13:49:48Z</time>
      </trkpt>
      <trkpt lat="44.21758" lon="3.06469">
        <ele>698</ele>
        <time>2014-02-13T13:49:51Z</time>
      </trkpt>
      <trkpt lat="44.21758" lon="3.06477">
        <ele>698</ele>
        <time>2014-02-13T13:49:55Z</time>
      </trkpt>
      <trkpt lat="44.21756" lon="3.06484">
        <ele>699</ele>
        <time>2014-02-13T13:49:59Z</time>
      </trkpt>
      <trkpt lat="44.21755" lon="3.06491">
        <ele>699</ele>
        <time>2014-02-13T13:50:03Z</time>
      </trkpt>
      <trkpt lat="44.21755" lon="3.06497">
        <ele>699</ele>
        <time>2014-02-13T13:50:07Z</time>
      </trkpt>
      <trkpt lat="44.21755" lon="3.06504">
        <ele>699</ele>
        <time>2014-02-13T13:50:11Z</time>
      </trkpt>
      <trkpt lat="44.21754" lon="3.06511">
        <ele>698</ele>
        <time>2014-02-13T13:50:15Z</time>
      </trkpt>
      <trkpt lat="44.21751" lon="3.06516">
        <ele>698</ele>
        <time>2014-02-13T13:50:20Z</time>
      </trkpt>
      <trkpt lat="44.21747" lon="3.06521">
        <ele>697</ele>
        <time>2014-02-13T13:50:24Z</time>
      </trkpt>
      <trkpt lat="44.21745" lon="3.06528">
        <ele>697</ele>
        <time>2014-02-13T13:50:28Z</time>
      </trkpt>
      <trkpt lat="44.21744" lon="3.06535">
        <ele>698</ele>
        <time>2014-02-13T13:50:32Z</time>
      </trkpt>
      <trkpt lat="44.21744" lon="3.06542">
        <ele>698</ele>
        <time>2014-02-13T13:50:35Z</time>
      </trkpt>
      <trkpt lat="44.21744" lon="3.0655">
        <ele>698</ele>
        <time>2014-02-13T13:50:38Z</time>
      </trkpt>
      <trkpt lat="44.21744" lon="3.06558">
        <ele>698</ele>
        <time>2014-02-13T13:50:42Z</time>
      </trkpt>
      <trkpt lat="44.21743" lon="3.06565">
        <ele>699</ele>
        <time>2014-02-13T13:50:46Z</time>
      </trkpt>
      <trkpt lat="44.21742" lon="3.06572">
        <ele>700</ele>
        <time>2014-02-13T13:50:53Z</time>
      </trkpt>
      <trkpt lat="44.2174" lon="3.06577">
        <ele>700</ele>
        <time>2014-02-13T13:51:03Z</time>
      </trkpt>
      <trkpt lat="44.21739" lon="3.06584">
        <ele>700</ele>
        <time>2014-02-13T13:51:09Z</time>
      </trkpt>
      <trkpt lat="44.21741" lon="3.0659">
        <ele>700</ele>
        <time>2014-02-13T13:51:14Z</time>
      </trkpt>
      <trkpt lat="44.21742" lon="3.06597">
        <ele>701</ele>
        <time>2014-02-13T13:51:18Z</time>
      </trkpt>
      <trkpt lat="44.21741" lon="3.06604">
        <ele>701</ele>
        <time>2014-02-13T13:51:21Z</time>
      </trkpt>
      <trkpt lat="44.2174" lon="3.06611">
        <ele>701</ele>
        <time>2014-02-13T13:51:25Z</time>
      </trkpt>
      <trkpt lat="44.21738" lon="3.06617">
        <ele>701</ele>
        <time>2014-02-13T13:51:30Z</time>
      </trkpt>
      <trkpt lat="44.21738" lon="3.06623">
        <ele>701</ele>
        <time>2014-02-13T13:51:34Z</time>
      </trkpt>
      <trkpt lat="44.21737" lon="3.0663">
        <ele>701</ele>
        <time>2014-02-13T13:51:38Z</time>
      </trkpt>
      <trkpt lat="44.21739" lon="3.06636">
        <ele>701</ele>
        <time>2014-02-13T13:51:41Z</time>
      </trkpt>
      <trkpt lat="44.2174" lon="3.06643">
        <ele>700</ele>
        <time>2014-02-13T13:51:44Z</time>
      </trkpt>
      <trkpt lat="44.21739" lon="3.06651">
        <ele>699</ele>
        <time>2014-02-13T13:51:47Z</time>
      </trkpt>
      <trkpt lat="44.21738" lon="3.06657">
        <ele>699</ele>
        <time>2014-02-13T13:51:49Z</time>
      </trkpt>
      <trkpt lat="44.21735" lon="3.06663">
        <ele>698</ele>
        <time>2014-02-13T13:51:52Z</time>
      </trkpt>
      <trkpt lat="44.21733" lon="3.06671">
        <ele>697</ele>
        <time>2014-02-13T13:52:05Z</time>
      </trkpt>
      <trkpt lat="44.21733" lon="3.06678">
        <ele>698</ele>
        <time>2014-02-13T13:52:10Z</time>
      </trkpt>
      <trkpt lat="44.21735" lon="3.06685">
        <ele>698</ele>
        <time>2014-02-13T13:52:14Z</time>
      </trkpt>
      <trkpt lat="44.21736" lon="3.06693">
        <ele>698</ele>
        <time>2014-02-13T13:52:18Z</time>
      </trkpt>
      <trkpt lat="44.21737" lon="3.06699">
        <ele>698</ele>
        <time>2014-02-13T13:52:22Z</time>
      </trkpt>
      <trkpt lat="44.21741" lon="3.06705">
        <ele>698</ele>
        <time>2014-02-13T13:52:26Z</time>
      </trkpt>
      <trkpt lat="44.21743" lon="3.06711">
        <ele>697</ele>
        <time>2014-02-13T13:52:30Z</time>
      </trkpt>
      <trkpt lat="44.21745" lon="3.06718">
        <ele>695</ele>
        <time>2014-02-13T13:52:34Z</time>
      </trkpt>
      <trkpt lat="44.21745" lon="3.06725">
        <ele>694</ele>
        <time>2014-02-13T13:52:39Z</time>
      </trkpt>
      <trkpt lat="44.21745" lon="3.06733">
        <ele>694</ele>
        <time>2014-02-13T13:52:45Z</time>
      </trkpt>
      <trkpt lat="44.21745" lon="3.06741">
        <ele>694</ele>
        <time>2014-02-13T13:52:49Z</time>
      </trkpt>
      <trkpt lat="44.21747" lon="3.06748">
        <ele>694</ele>
        <time>2014-02-13T13:52:52Z</time>
      </trkpt>
      <trkpt lat="44.21748" lon="3.06755">
        <ele>694</ele>
        <time>2014-02-13T13:52:55Z</time>
      </trkpt>
      <trkpt lat="44.21751" lon="3.06761">
        <ele>694</ele>
        <time>2014-02-13T13:52:58Z</time>
      </trkpt>
      <trkpt lat="44.21752" lon="3.06768">
        <ele>695</ele>
        <time>2014-02-13T13:53:02Z</time>
      </trkpt>
      <trkpt lat="44.21753" lon="3.06776">
        <ele>695</ele>
        <time>2014-02-13T13:53:06Z</time>
      </trkpt>
      <trkpt lat="44.21752" lon="3.06782">
        <ele>695</ele>
        <time>2014-02-13T13:53:09Z</time>
      </trkpt>
      <trkpt lat="44.21751" lon="3.06789">
        <ele>695</ele>
        <time>2014-02-13T13:53:12Z</time>
      </trkpt>
      <trkpt lat="44.21752" lon="3.06795">
        <ele>695</ele>
        <time>2014-02-13T13:53:16Z</time>
      </trkpt>
      <trkpt lat="44.21756" lon="3.068">
        <ele>694</ele>
        <time>2014-02-13T13:53:19Z</time>
      </trkpt>
      <trkpt lat="44.2176" lon="3.06804">
        <ele>693</ele>
        <time>2014-02-13T13:53:22Z</time>
      </trkpt>
      <trkpt lat="44.21765" lon="3.06808">
        <ele>693</ele>
        <time>2014-02-13T13:53:25Z</time>
      </trkpt>
      <trkpt lat="44.21769" lon="3.06813">
        <ele>692</ele>
        <time>2014-02-13T13:53:28Z</time>
      </trkpt>
      <trkpt lat="44.21773" lon="3.06819">
        <ele>692</ele>
        <time>2014-02-13T13:53:31Z</time>
      </trkpt>
      <trkpt lat="44.21776" lon="3.06824">
        <ele>692</ele>
        <time>2014-02-13T13:53:34Z</time>
      </trkpt>
      <trkpt lat="44.21778" lon="3.06831">
        <ele>691</ele>
        <time>2014-02-13T13:53:38Z</time>
      </trkpt>
      <trkpt lat="44.21782" lon="3.06836">
        <ele>691</ele>
        <time>2014-02-13T13:53:41Z</time>
      </trkpt>
      <trkpt lat="44.21786" lon="3.06838">
        <ele>690</ele>
        <time>2014-02-13T13:53:44Z</time>
      </trkpt>
      <trkpt lat="44.21788" lon="3.06844">
        <ele>688</ele>
        <time>2014-02-13T13:53:49Z</time>
      </trkpt>
      <trkpt lat="44.21787" lon="3.06851">
        <ele>687</ele>
        <time>2014-02-13T13:53:55Z</time>
      </trkpt>
      <trkpt lat="44.21792" lon="3.06852">
        <ele>685</ele>
        <time>2014-02-13T13:54:12Z</time>
      </trkpt>
      <trkpt lat="44.218" lon="3.06858">
        <ele>684</ele>
        <time>2014-02-13T13:54:26Z</time>
      </trkpt>
      <trkpt lat="44.21802" lon="3.06861">
        <ele>681</ele>
        <time>2014-02-13T13:54:42Z</time>
      </trkpt>
      <trkpt lat="44.21806" lon="3.06861">
        <ele>681</ele>
        <time>2014-02-13T13:54:50Z</time>
      </trkpt>
      <trkpt lat="44.21812" lon="3.06861">
        <ele>682</ele>
        <time>2014-02-13T13:55:00Z</time>
      </trkpt>
      <trkpt lat="44.21817" lon="3.06863">
        <ele>682</ele>
        <time>2014-02-13T13:55:05Z</time>
      </trkpt>
      <trkpt lat="44.21821" lon="3.06867">
        <ele>682</ele>
        <time>2014-02-13T13:55:12Z</time>
      </trkpt>
      <trkpt lat="44.21824" lon="3.06873">
        <ele>681</ele>
        <time>2014-02-13T13:55:16Z</time>
      </trkpt>
      <trkpt lat="44.21827" lon="3.06879">
        <ele>681</ele>
        <time>2014-02-13T13:55:21Z</time>
      </trkpt>
      <trkpt lat="44.21829" lon="3.06886">
        <ele>681</ele>
        <time>2014-02-13T13:55:27Z</time>
      </trkpt>
      <trkpt lat="44.21829" lon="3.06894">
        <ele>681</ele>
        <time>2014-02-13T13:55:31Z</time>
      </trkpt>
      <trkpt lat="44.2183" lon="3.069">
        <ele>683</ele>
        <time>2014-02-13T13:55:34Z</time>
      </trkpt>
      <trkpt lat="44.21833" lon="3.06907">
        <ele>684</ele>
        <time>2014-02-13T13:55:37Z</time>
      </trkpt>
      <trkpt lat="44.21834" lon="3.06914">
        <ele>685</ele>
        <time>2014-02-13T13:55:40Z</time>
      </trkpt>
      <trkpt lat="44.21836" lon="3.06921">
        <ele>686</ele>
        <time>2014-02-13T13:55:44Z</time>
      </trkpt>
      <trkpt lat="44.21838" lon="3.06928">
        <ele>686</ele>
        <time>2014-02-13T13:55:49Z</time>
      </trkpt>
      <trkpt lat="44.21841" lon="3.06933">
        <ele>687</ele>
        <time>2014-02-13T13:55:54Z</time>
      </trkpt>
      <trkpt lat="44.21844" lon="3.06938">
        <ele>688</ele>
        <time>2014-02-13T13:55:59Z</time>
      </trkpt>
      <trkpt lat="44.21845" lon="3.06945">
        <ele>688</ele>
        <time>2014-02-13T13:56:03Z</time>
      </trkpt>
      <trkpt lat="44.21847" lon="3.06952">
        <ele>687</ele>
        <time>2014-02-13T13:56:06Z</time>
      </trkpt>
      <trkpt lat="44.21849" lon="3.06959">
        <ele>685</ele>
        <time>2014-02-13T13:56:09Z</time>
      </trkpt>
      <trkpt lat="44.21852" lon="3.06966">
        <ele>684</ele>
        <time>2014-02-13T13:56:13Z</time>
      </trkpt>
      <trkpt lat="44.21854" lon="3.06972">
        <ele>683</ele>
        <time>2014-02-13T13:56:16Z</time>
      </trkpt>
      <trkpt lat="44.21857" lon="3.06978">
        <ele>684</ele>
        <time>2014-02-13T13:56:20Z</time>
      </trkpt>
      <trkpt lat="44.2186" lon="3.06983">
        <ele>684</ele>
        <time>2014-02-13T13:56:24Z</time>
      </trkpt>
      <trkpt lat="44.21864" lon="3.06988">
        <ele>684</ele>
        <time>2014-02-13T13:56:28Z</time>
      </trkpt>
      <trkpt lat="44.21867" lon="3.06993">
        <ele>685</ele>
        <time>2014-02-13T13:56:32Z</time>
      </trkpt>
      <trkpt lat="44.21871" lon="3.06998">
        <ele>685</ele>
        <time>2014-02-13T13:56:37Z</time>
      </trkpt>
      <trkpt lat="44.21876" lon="3.07003">
        <ele>686</ele>
        <time>2014-02-13T13:56:42Z</time>
      </trkpt>
      <trkpt lat="44.2188" lon="3.07008">
        <ele>686</ele>
        <time>2014-02-13T13:56:46Z</time>
      </trkpt>
      <trkpt lat="44.21885" lon="3.07011">
        <ele>686</ele>
        <time>2014-02-13T13:56:50Z</time>
      </trkpt>
      <trkpt lat="44.2189" lon="3.07014">
        <ele>685</ele>
        <time>2014-02-13T13:56:54Z</time>
      </trkpt>
      <trkpt lat="44.21894" lon="3.07018">
        <ele>685</ele>
        <time>2014-02-13T13:56:59Z</time>
      </trkpt>
      <trkpt lat="44.21899" lon="3.07022">
        <ele>684</ele>
        <time>2014-02-13T13:57:04Z</time>
      </trkpt>
      <trkpt lat="44.21904" lon="3.07026">
        <ele>684</ele>
        <time>2014-02-13T13:57:09Z</time>
      </trkpt>
      <trkpt lat="44.21908" lon="3.07027">
        <ele>685</ele>
        <time>2014-02-13T13:57:12Z</time>
      </trkpt>
      <trkpt lat="44.21914" lon="3.07031">
        <ele>685</ele>
        <time>2014-02-13T13:57:16Z</time>
      </trkpt>
      <trkpt lat="44.2192" lon="3.07032">
        <ele>685</ele>
        <time>2014-02-13T13:57:19Z</time>
      </trkpt>
      <trkpt lat="44.21924" lon="3.07032">
        <ele>685</ele>
        <time>2014-02-13T13:57:21Z</time>
      </trkpt>
      <trkpt lat="44.21929" lon="3.07032">
        <ele>685</ele>
        <time>2014-02-13T13:57:23Z</time>
      </trkpt>
      <trkpt lat="44.21935" lon="3.07032">
        <ele>685</ele>
        <time>2014-02-13T13:57:26Z</time>
      </trkpt>
      <trkpt lat="44.2194" lon="3.07033">
        <ele>685</ele>
        <time>2014-02-13T13:57:29Z</time>
      </trkpt>
      <trkpt lat="44.21945" lon="3.07034">
        <ele>686</ele>
        <time>2014-02-13T13:57:32Z</time>
      </trkpt>
      <trkpt lat="44.21951" lon="3.07033">
        <ele>686</ele>
        <time>2014-02-13T13:57:35Z</time>
      </trkpt>
      <trkpt lat="44.21956" lon="3.07033">
        <ele>686</ele>
        <time>2014-02-13T13:57:38Z</time>
      </trkpt>
      <trkpt lat="44.21962" lon="3.07032">
        <ele>686</ele>
        <time>2014-02-13T13:57:41Z</time>
      </trkpt>
      <trkpt lat="44.21967" lon="3.07031">
        <ele>686</ele>
        <time>2014-02-13T13:57:44Z</time>
      </trkpt>
      <trkpt lat="44.21972" lon="3.07029">
        <ele>686</ele>
        <time>2014-02-13T13:57:48Z</time>
      </trkpt>
      <trkpt lat="44.21976" lon="3.07027">
        <ele>685</ele>
        <time>2014-02-13T13:57:51Z</time>
      </trkpt>
      <trkpt lat="44.21981" lon="3.07027">
        <ele>685</ele>
        <time>2014-02-13T13:57:55Z</time>
      </trkpt>
      <trkpt lat="44.21984" lon="3.07033">
        <ele>685</ele>
        <time>2014-02-13T13:58:00Z</time>
      </trkpt>
      <trkpt lat="44.21986" lon="3.0704">
        <ele>685</ele>
        <time>2014-02-13T13:58:04Z</time>
      </trkpt>
      <trkpt lat="44.21988" lon="3.07047">
        <ele>686</ele>
        <time>2014-02-13T13:58:08Z</time>
      </trkpt>
      <trkpt lat="44.21986" lon="3.07054">
        <ele>686</ele>
        <time>2014-02-13T13:58:13Z</time>
      </trkpt>
      <trkpt lat="44.21984" lon="3.07061">
        <ele>687</ele>
        <time>2014-02-13T13:58:17Z</time>
      </trkpt>
      <trkpt lat="44.21982" lon="3.07066">
        <ele>688</ele>
        <time>2014-02-13T13:58:20Z</time>
      </trkpt>
      <trkpt lat="44.21981" lon="3.07075">
        <ele>688</ele>
        <time>2014-02-13T13:58:24Z</time>
      </trkpt>
      <trkpt lat="44.21979" lon="3.07082">
        <ele>688</ele>
        <time>2014-02-13T13:58:28Z</time>
      </trkpt>
      <trkpt lat="44.21977" lon="3.07089">
        <ele>689</ele>
        <time>2014-02-13T13:58:31Z</time>
      </trkpt>
      <trkpt lat="44.21975" lon="3.07095">
        <ele>689</ele>
        <time>2014-02-13T13:58:34Z</time>
      </trkpt>
      <trkpt lat="44.21972" lon="3.07102">
        <ele>688</ele>
        <time>2014-02-13T13:58:38Z</time>
      </trkpt>
      <trkpt lat="44.21969" lon="3.07108">
        <ele>687</ele>
        <time>2014-02-13T13:58:42Z</time>
      </trkpt>
      <trkpt lat="44.21966" lon="3.07115">
        <ele>686</ele>
        <time>2014-02-13T13:58:46Z</time>
      </trkpt>
      <trkpt lat="44.21963" lon="3.0712">
        <ele>684</ele>
        <time>2014-02-13T13:58:49Z</time>
      </trkpt>
      <trkpt lat="44.2196" lon="3.07127">
        <ele>683</ele>
        <time>2014-02-13T13:58:53Z</time>
      </trkpt>
      <trkpt lat="44.2196" lon="3.07135">
        <ele>682</ele>
        <time>2014-02-13T13:58:57Z</time>
      </trkpt>
      <trkpt lat="44.21957" lon="3.07141">
        <ele>681</ele>
        <time>2014-02-13T13:59:00Z</time>
      </trkpt>
      <trkpt lat="44.21956" lon="3.07147">
        <ele>680</ele>
        <time>2014-02-13T13:59:05Z</time>
      </trkpt>
      <trkpt lat="44.21956" lon="3.07155">
        <ele>678</ele>
        <time>2014-02-13T13:59:10Z</time>
      </trkpt>
      <trkpt lat="44.21955" lon="3.07163">
        <ele>678</ele>
        <time>2014-02-13T13:59:13Z</time>
      </trkpt>
      <trkpt lat="44.21954" lon="3.07171">
        <ele>678</ele>
        <time>2014-02-13T13:59:17Z</time>
      </trkpt>
      <trkpt lat="44.21952" lon="3.07177">
        <ele>678</ele>
        <time>2014-02-13T13:59:21Z</time>
      </trkpt>
      <trkpt lat="44.21947" lon="3.07178">
        <ele>677</ele>
        <time>2014-02-13T13:59:30Z</time>
      </trkpt>
      <trkpt lat="44.21944" lon="3.07182">
        <ele>676</ele>
        <time>2014-02-13T13:59:34Z</time>
      </trkpt>
      <trkpt lat="44.21941" lon="3.07189">
        <ele>675</ele>
        <time>2014-02-13T13:59:38Z</time>
      </trkpt>
      <trkpt lat="44.21938" lon="3.07196">
        <ele>675</ele>
        <time>2014-02-13T13:59:41Z</time>
      </trkpt>
      <trkpt lat="44.21936" lon="3.07202">
        <ele>675</ele>
        <time>2014-02-13T13:59:45Z</time>
      </trkpt>
      <trkpt lat="44.21935" lon="3.07208">
        <ele>675</ele>
        <time>2014-02-13T13:59:49Z</time>
      </trkpt>
      <trkpt lat="44.21934" lon="3.07216">
        <ele>675</ele>
        <time>2014-02-13T13:59:53Z</time>
      </trkpt>
      <trkpt lat="44.21931" lon="3.07249">
        <ele>675</ele>
        <time>2014-02-13T14:00:26Z</time>
      </trkpt>
      <trkpt lat="44.21931" lon="3.07263">
        <ele>675</ele>
        <time>2014-02-13T14:00:31Z</time>
      </trkpt>
      <trkpt lat="44.21929" lon="3.07272">
        <ele>675</ele>
        <time>2014-02-13T14:00:34Z</time>
      </trkpt>
      <trkpt lat="44.21927" lon="3.07278">
        <ele>675</ele>
        <time>2014-02-13T14:00:37Z</time>
      </trkpt>
      <trkpt lat="44.21923" lon="3.07283">
        <ele>674</ele>
        <time>2014-02-13T14:00:41Z</time>
      </trkpt>
      <trkpt lat="44.21918" lon="3.07287">
        <ele>674</ele>
        <time>2014-02-13T14:00:45Z</time>
      </trkpt>
      <trkpt lat="44.21913" lon="3.07289">
        <ele>674</ele>
        <time>2014-02-13T14:00:49Z</time>
      </trkpt>
      <trkpt lat="44.21908" lon="3.07292">
        <ele>674</ele>
        <time>2014-02-13T14:00:52Z</time>
      </trkpt>
      <trkpt lat="44.21904" lon="3.07295">
        <ele>674</ele>
        <time>2014-02-13T14:00:55Z</time>
      </trkpt>
      <trkpt lat="44.219" lon="3.07298">
        <ele>675</ele>
        <time>2014-02-13T14:00:58Z</time>
      </trkpt>
      <trkpt lat="44.21896" lon="3.07301">
        <ele>675</ele>
        <time>2014-02-13T14:01:01Z</time>
      </trkpt>
      <trkpt lat="44.2189" lon="3.07304">
        <ele>676</ele>
        <time>2014-02-13T14:01:04Z</time>
      </trkpt>
      <trkpt lat="44.21886" lon="3.07306">
        <ele>676</ele>
        <time>2014-02-13T14:01:07Z</time>
      </trkpt>
      <trkpt lat="44.21881" lon="3.0731">
        <ele>676</ele>
        <time>2014-02-13T14:01:10Z</time>
      </trkpt>
      <trkpt lat="44.21877" lon="3.07315">
        <ele>675</ele>
        <time>2014-02-13T14:01:13Z</time>
      </trkpt>
      <trkpt lat="44.21872" lon="3.0732">
        <ele>675</ele>
        <time>2014-02-13T14:01:16Z</time>
      </trkpt>
      <trkpt lat="44.21872" lon="3.0733">
        <ele>676</ele>
        <time>2014-02-13T14:01:19Z</time>
      </trkpt>
      <trkpt lat="44.21872" lon="3.07341">
        <ele>676</ele>
        <time>2014-02-13T14:01:21Z</time>
      </trkpt>
      <trkpt lat="44.21873" lon="3.07345">
        <ele>676</ele>
        <time>2014-02-13T14:01:22Z</time>
      </trkpt>
      <trkpt lat="44.21873" lon="3.07349">
        <ele>677</ele>
        <time>2014-02-13T14:01:23Z</time>
      </trkpt>
      <trkpt lat="44.21872" lon="3.07354">
        <ele>678</ele>
        <time>2014-02-13T14:01:25Z</time>
      </trkpt>
      <trkpt lat="44.21871" lon="3.07359">
        <ele>678</ele>
        <time>2014-02-13T14:01:27Z</time>
      </trkpt>
      <trkpt lat="44.21871" lon="3.07363">
        <ele>678</ele>
        <time>2014-02-13T14:01:30Z</time>
      </trkpt>
      <trkpt lat="44.21871" lon="3.07371">
        <ele>679</ele>
        <time>2014-02-13T14:01:36Z</time>
      </trkpt>
      <trkpt lat="44.21872" lon="3.07378">
        <ele>680</ele>
        <time>2014-02-13T14:01:41Z</time>
      </trkpt>
      <trkpt lat="44.21867" lon="3.07382">
        <ele>680</ele>
        <time>2014-02-13T14:01:47Z</time>
      </trkpt>
      <trkpt lat="44.21862" lon="3.07384">
        <ele>680</ele>
        <time>2014-02-13T14:01:50Z</time>
      </trkpt>
      <trkpt lat="44.21858" lon="3.07388">
        <ele>680</ele>
        <time>2014-02-13T14:01:53Z</time>
      </trkpt>
      <trkpt lat="44.21855" lon="3.07393">
        <ele>680</ele>
        <time>2014-02-13T14:01:57Z</time>
      </trkpt>
      <trkpt lat="44.2185" lon="3.07398">
        <ele>679</ele>
        <time>2014-02-13T14:02:02Z</time>
      </trkpt>
      <trkpt lat="44.21847" lon="3.07403">
        <ele>679</ele>
        <time>2014-02-13T14:02:06Z</time>
      </trkpt>
      <trkpt lat="44.21843" lon="3.0741">
        <ele>679</ele>
        <time>2014-02-13T14:02:10Z</time>
      </trkpt>
      <trkpt lat="44.21841" lon="3.07416">
        <ele>677</ele>
        <time>2014-02-13T14:02:13Z</time>
      </trkpt>
      <trkpt lat="44.21838" lon="3.07421">
        <ele>677</ele>
        <time>2014-02-13T14:02:16Z</time>
      </trkpt>
      <trkpt lat="44.21835" lon="3.07428">
        <ele>675</ele>
        <time>2014-02-13T14:02:20Z</time>
      </trkpt>
      <trkpt lat="44.21834" lon="3.07434">
        <ele>675</ele>
        <time>2014-02-13T14:02:23Z</time>
      </trkpt>
      <trkpt lat="44.21832" lon="3.0744">
        <ele>676</ele>
        <time>2014-02-13T14:02:26Z</time>
      </trkpt>
      <trkpt lat="44.21829" lon="3.07448">
        <ele>677</ele>
        <time>2014-02-13T14:02:36Z</time>
      </trkpt>
      <trkpt lat="44.21828" lon="3.07454">
        <ele>678</ele>
        <time>2014-02-13T14:02:43Z</time>
      </trkpt>
      <trkpt lat="44.21826" lon="3.0746">
        <ele>677</ele>
        <time>2014-02-13T14:02:46Z</time>
      </trkpt>
      <trkpt lat="44.21826" lon="3.07467">
        <ele>677</ele>
        <time>2014-02-13T14:02:51Z</time>
      </trkpt>
      <trkpt lat="44.21822" lon="3.07471">
        <ele>677</ele>
        <time>2014-02-13T14:02:58Z</time>
      </trkpt>
      <trkpt lat="44.21821" lon="3.07479">
        <ele>678</ele>
        <time>2014-02-13T14:03:07Z</time>
      </trkpt>
      <trkpt lat="44.21818" lon="3.07485">
        <ele>678</ele>
        <time>2014-02-13T14:03:13Z</time>
      </trkpt>
      <trkpt lat="44.21817" lon="3.07491">
        <ele>678</ele>
        <time>2014-02-13T14:03:16Z</time>
      </trkpt>
      <trkpt lat="44.21818" lon="3.07498">
        <ele>678</ele>
        <time>2014-02-13T14:03:19Z</time>
      </trkpt>
      <trkpt lat="44.21821" lon="3.07504">
        <ele>677</ele>
        <time>2014-02-13T14:03:24Z</time>
      </trkpt>
      <trkpt lat="44.21822" lon="3.07512">
        <ele>677</ele>
        <time>2014-02-13T14:03:27Z</time>
      </trkpt>
      <trkpt lat="44.21822" lon="3.07519">
        <ele>678</ele>
        <time>2014-02-13T14:03:30Z</time>
      </trkpt>
      <trkpt lat="44.21821" lon="3.07527">
        <ele>679</ele>
        <time>2014-02-13T14:03:33Z</time>
      </trkpt>
      <trkpt lat="44.2182" lon="3.07535">
        <ele>679</ele>
        <time>2014-02-13T14:03:36Z</time>
      </trkpt>
      <trkpt lat="44.21823" lon="3.0754">
        <ele>679</ele>
        <time>2014-02-13T14:03:40Z</time>
      </trkpt>
      <trkpt lat="44.21826" lon="3.07545">
        <ele>678</ele>
        <time>2014-02-13T14:03:44Z</time>
      </trkpt>
      <trkpt lat="44.21831" lon="3.07548">
        <ele>679</ele>
        <time>2014-02-13T14:03:49Z</time>
      </trkpt>
      <trkpt lat="44.21834" lon="3.07553">
        <ele>679</ele>
        <time>2014-02-13T14:03:53Z</time>
      </trkpt>
      <trkpt lat="44.21836" lon="3.07559">
        <ele>678</ele>
        <time>2014-02-13T14:03:57Z</time>
      </trkpt>
      <trkpt lat="44.21839" lon="3.07565">
        <ele>677</ele>
        <time>2014-02-13T14:04:01Z</time>
      </trkpt>
      <trkpt lat="44.21844" lon="3.07568">
        <ele>676</ele>
        <time>2014-02-13T14:04:05Z</time>
      </trkpt>
      <trkpt lat="44.21849" lon="3.07569">
        <ele>676</ele>
        <time>2014-02-13T14:04:10Z</time>
      </trkpt>
      <trkpt lat="44.21852" lon="3.07574">
        <ele>676</ele>
        <time>2014-02-13T14:04:13Z</time>
      </trkpt>
      <trkpt lat="44.21857" lon="3.07579">
        <ele>676</ele>
        <time>2014-02-13T14:04:17Z</time>
      </trkpt>
      <trkpt lat="44.21862" lon="3.07582">
        <ele>676</ele>
        <time>2014-02-13T14:04:20Z</time>
      </trkpt>
      <trkpt lat="44.21866" lon="3.07586">
        <ele>676</ele>
        <time>2014-02-13T14:04:23Z</time>
      </trkpt>
      <trkpt lat="44.21871" lon="3.07588">
        <ele>676</ele>
        <time>2014-02-13T14:04:26Z</time>
      </trkpt>
      <trkpt lat="44.21876" lon="3.07591">
        <ele>676</ele>
        <time>2014-02-13T14:04:29Z</time>
      </trkpt>
      <trkpt lat="44.2188" lon="3.07593">
        <ele>675</ele>
        <time>2014-02-13T14:04:33Z</time>
      </trkpt>
      <trkpt lat="44.21885" lon="3.0759">
        <ele>675</ele>
        <time>2014-02-13T14:04:38Z</time>
      </trkpt>
      <trkpt lat="44.21888" lon="3.07585">
        <ele>675</ele>
        <time>2014-02-13T14:04:41Z</time>
      </trkpt>
      <trkpt lat="44.21891" lon="3.0758">
        <ele>675</ele>
        <time>2014-02-13T14:04:44Z</time>
      </trkpt>
      <trkpt lat="44.21894" lon="3.07573">
        <ele>675</ele>
        <time>2014-02-13T14:04:48Z</time>
      </trkpt>
      <trkpt lat="44.21897" lon="3.07568">
        <ele>675</ele>
        <time>2014-02-13T14:04:51Z</time>
      </trkpt>
      <trkpt lat="44.219" lon="3.0756">
        <ele>676</ele>
        <time>2014-02-13T14:04:54Z</time>
      </trkpt>
      <trkpt lat="44.21902" lon="3.07554">
        <ele>676</ele>
        <time>2014-02-13T14:04:56Z</time>
      </trkpt>
      <trkpt lat="44.21906" lon="3.07549">
        <ele>676</ele>
        <time>2014-02-13T14:05:00Z</time>
      </trkpt>
      <trkpt lat="44.2191" lon="3.07547">
        <ele>676</ele>
        <time>2014-02-13T14:05:03Z</time>
      </trkpt>
      <trkpt lat="44.21915" lon="3.07546">
        <ele>676</ele>
        <time>2014-02-13T14:05:06Z</time>
      </trkpt>
      <trkpt lat="44.21921" lon="3.07551">
        <ele>676</ele>
        <time>2014-02-13T14:05:09Z</time>
      </trkpt>
      <trkpt lat="44.21923" lon="3.07559">
        <ele>676</ele>
        <time>2014-02-13T14:05:11Z</time>
      </trkpt>
      <trkpt lat="44.21925" lon="3.07565">
        <ele>676</ele>
        <time>2014-02-13T14:05:13Z</time>
      </trkpt>
      <trkpt lat="44.21925" lon="3.07573">
        <ele>676</ele>
        <time>2014-02-13T14:05:16Z</time>
      </trkpt>
      <trkpt lat="44.21924" lon="3.0758">
        <ele>677</ele>
        <time>2014-02-13T14:05:19Z</time>
      </trkpt>
      <trkpt lat="44.21923" lon="3.07588">
        <ele>677</ele>
        <time>2014-02-13T14:05:22Z</time>
      </trkpt>
      <trkpt lat="44.21923" lon="3.07596">
        <ele>678</ele>
        <time>2014-02-13T14:05:25Z</time>
      </trkpt>
      <trkpt lat="44.21922" lon="3.07604">
        <ele>678</ele>
        <time>2014-02-13T14:05:28Z</time>
      </trkpt>
      <trkpt lat="44.21921" lon="3.0761">
        <ele>678</ele>
        <time>2014-02-13T14:05:31Z</time>
      </trkpt>
      <trkpt lat="44.21919" lon="3.07618">
        <ele>679</ele>
        <time>2014-02-13T14:05:35Z</time>
      </trkpt>
      <trkpt lat="44.21919" lon="3.07626">
        <ele>680</ele>
        <time>2014-02-13T14:05:38Z</time>
      </trkpt>
      <trkpt lat="44.21918" lon="3.07633">
        <ele>681</ele>
        <time>2014-02-13T14:05:41Z</time>
      </trkpt>
      <trkpt lat="44.21917" lon="3.0764">
        <ele>682</ele>
        <time>2014-02-13T14:05:45Z</time>
      </trkpt>
      <trkpt lat="44.21918" lon="3.07646">
        <ele>682</ele>
        <time>2014-02-13T14:05:48Z</time>
      </trkpt>
      <trkpt lat="44.21919" lon="3.07652">
        <ele>682</ele>
        <time>2014-02-13T14:05:51Z</time>
      </trkpt>
      <trkpt lat="44.21919" lon="3.07659">
        <ele>683</ele>
        <time>2014-02-13T14:05:54Z</time>
      </trkpt>
      <trkpt lat="44.2192" lon="3.07666">
        <ele>683</ele>
        <time>2014-02-13T14:05:57Z</time>
      </trkpt>
      <trkpt lat="44.21919" lon="3.07672">
        <ele>683</ele>
        <time>2014-02-13T14:06:00Z</time>
      </trkpt>
      <trkpt lat="44.2192" lon="3.0768">
        <ele>683</ele>
        <time>2014-02-13T14:06:03Z</time>
      </trkpt>
      <trkpt lat="44.21919" lon="3.07686">
        <ele>684</ele>
        <time>2014-02-13T14:06:06Z</time>
      </trkpt>
      <trkpt lat="44.21917" lon="3.07693">
        <ele>685</ele>
        <time>2014-02-13T14:06:10Z</time>
      </trkpt>
      <trkpt lat="44.21915" lon="3.07701">
        <ele>686</ele>
        <time>2014-02-13T14:06:14Z</time>
      </trkpt>
      <trkpt lat="44.21914" lon="3.07708">
        <ele>686</ele>
        <time>2014-02-13T14:06:17Z</time>
      </trkpt>
      <trkpt lat="44.21911" lon="3.07713">
        <ele>685</ele>
        <time>2014-02-13T14:06:20Z</time>
      </trkpt>
      <trkpt lat="44.21907" lon="3.0772">
        <ele>685</ele>
        <time>2014-02-13T14:06:23Z</time>
      </trkpt>
      <trkpt lat="44.21904" lon="3.07725">
        <ele>685</ele>
        <time>2014-02-13T14:06:28Z</time>
      </trkpt>
      <trkpt lat="44.21901" lon="3.07731">
        <ele>685</ele>
        <time>2014-02-13T14:06:32Z</time>
      </trkpt>
      <trkpt lat="44.21897" lon="3.07736">
        <ele>684</ele>
        <time>2014-02-13T14:06:36Z</time>
      </trkpt>
      <trkpt lat="44.21894" lon="3.0774">
        <ele>683</ele>
        <time>2014-02-13T14:06:40Z</time>
      </trkpt>
      <trkpt lat="44.2189" lon="3.07744">
        <ele>681</ele>
        <time>2014-02-13T14:06:43Z</time>
      </trkpt>
      <trkpt lat="44.21886" lon="3.07749">
        <ele>681</ele>
        <time>2014-02-13T14:06:46Z</time>
      </trkpt>
      <trkpt lat="44.21882" lon="3.07754">
        <ele>681</ele>
        <time>2014-02-13T14:06:49Z</time>
      </trkpt>
      <trkpt lat="44.21878" lon="3.07757">
        <ele>681</ele>
        <time>2014-02-13T14:06:52Z</time>
      </trkpt>
      <trkpt lat="44.21874" lon="3.07761">
        <ele>681</ele>
        <time>2014-02-13T14:06:55Z</time>
      </trkpt>
      <trkpt lat="44.21869" lon="3.07765">
        <ele>681</ele>
        <time>2014-02-13T14:06:59Z</time>
      </trkpt>
      <trkpt lat="44.21867" lon="3.07773">
        <ele>680</ele>
        <time>2014-02-13T14:07:03Z</time>
      </trkpt>
      <trkpt lat="44.21865" lon="3.07781">
        <ele>679</ele>
        <time>2014-02-13T14:07:05Z</time>
      </trkpt>
      <trkpt lat="44.2186" lon="3.07785">
        <ele>679</ele>
        <time>2014-02-13T14:07:08Z</time>
      </trkpt>
      <trkpt lat="44.21856" lon="3.07789">
        <ele>679</ele>
        <time>2014-02-13T14:07:11Z</time>
      </trkpt>
      <trkpt lat="44.21852" lon="3.07793">
        <ele>680</ele>
        <time>2014-02-13T14:07:14Z</time>
      </trkpt>
      <trkpt lat="44.21849" lon="3.07796">
        <ele>680</ele>
        <time>2014-02-13T14:07:17Z</time>
      </trkpt>
      <trkpt lat="44.21845" lon="3.078">
        <ele>680</ele>
        <time>2014-02-13T14:07:20Z</time>
      </trkpt>
      <trkpt lat="44.21841" lon="3.07805">
        <ele>681</ele>
        <time>2014-02-13T14:07:23Z</time>
      </trkpt>
      <trkpt lat="44.21838" lon="3.07809">
        <ele>681</ele>
        <time>2014-02-13T14:07:26Z</time>
      </trkpt>
      <trkpt lat="44.21834" lon="3.07814">
        <ele>681</ele>
        <time>2014-02-13T14:07:29Z</time>
      </trkpt>
      <trkpt lat="44.2183" lon="3.07818">
        <ele>681</ele>
        <time>2014-02-13T14:07:32Z</time>
      </trkpt>
      <trkpt lat="44.21826" lon="3.07822">
        <ele>681</ele>
        <time>2014-02-13T14:07:35Z</time>
      </trkpt>
      <trkpt lat="44.21823" lon="3.07826">
        <ele>681</ele>
        <time>2014-02-13T14:07:38Z</time>
      </trkpt>
      <trkpt lat="44.21819" lon="3.07831">
        <ele>682</ele>
        <time>2014-02-13T14:07:41Z</time>
      </trkpt>
      <trkpt lat="44.21816" lon="3.07835">
        <ele>682</ele>
        <time>2014-02-13T14:07:44Z</time>
      </trkpt>
      <trkpt lat="44.21812" lon="3.07839">
        <ele>682</ele>
        <time>2014-02-13T14:07:47Z</time>
      </trkpt>
      <trkpt lat="44.21808" lon="3.07843">
        <ele>682</ele>
        <time>2014-02-13T14:07:50Z</time>
      </trkpt>
      <trkpt lat="44.21804" lon="3.07847">
        <ele>683</ele>
        <time>2014-02-13T14:07:53Z</time>
      </trkpt>
      <trkpt lat="44.218" lon="3.07852">
        <ele>682</ele>
        <time>2014-02-13T14:07:57Z</time>
      </trkpt>
      <trkpt lat="44.21796" lon="3.07856">
        <ele>681</ele>
        <time>2014-02-13T14:08:02Z</time>
      </trkpt>
      <trkpt lat="44.21792" lon="3.07861">
        <ele>681</ele>
        <time>2014-02-13T14:08:06Z</time>
      </trkpt>
      <trkpt lat="44.21787" lon="3.07866">
        <ele>679</ele>
        <time>2014-02-13T14:08:10Z</time>
      </trkpt>
      <trkpt lat="44.21783" lon="3.0787">
        <ele>678</ele>
        <time>2014-02-13T14:08:14Z</time>
      </trkpt>
      <trkpt lat="44.21779" lon="3.07874">
        <ele>678</ele>
        <time>2014-02-13T14:08:17Z</time>
      </trkpt>
      <trkpt lat="44.21776" lon="3.07878">
        <ele>678</ele>
        <time>2014-02-13T14:08:20Z</time>
      </trkpt>
      <trkpt lat="44.21771" lon="3.07884">
        <ele>677</ele>
        <time>2014-02-13T14:08:24Z</time>
      </trkpt>
      <trkpt lat="44.21767" lon="3.07888">
        <ele>678</ele>
        <time>2014-02-13T14:08:28Z</time>
      </trkpt>
      <trkpt lat="44.21763" lon="3.07892">
        <ele>678</ele>
        <time>2014-02-13T14:08:31Z</time>
      </trkpt>
      <trkpt lat="44.21758" lon="3.07896">
        <ele>679</ele>
        <time>2014-02-13T14:08:35Z</time>
      </trkpt>
      <trkpt lat="44.21754" lon="3.07899">
        <ele>679</ele>
        <time>2014-02-13T14:08:38Z</time>
      </trkpt>
      <trkpt lat="44.21749" lon="3.07903">
        <ele>680</ele>
        <time>2014-02-13T14:08:41Z</time>
      </trkpt>
      <trkpt lat="44.21745" lon="3.07907">
        <ele>680</ele>
        <time>2014-02-13T14:08:44Z</time>
      </trkpt>
      <trkpt lat="44.2174" lon="3.07911">
        <ele>681</ele>
        <time>2014-02-13T14:08:48Z</time>
      </trkpt>
      <trkpt lat="44.21735" lon="3.07914">
        <ele>681</ele>
        <time>2014-02-13T14:08:51Z</time>
      </trkpt>
      <trkpt lat="44.2173" lon="3.07917">
        <ele>682</ele>
        <time>2014-02-13T14:08:54Z</time>
      </trkpt>
      <trkpt lat="44.21726" lon="3.07921">
        <ele>682</ele>
        <time>2014-02-13T14:08:57Z</time>
      </trkpt>
      <trkpt lat="44.21721" lon="3.07925">
        <ele>681</ele>
        <time>2014-02-13T14:09:01Z</time>
      </trkpt>
      <trkpt lat="44.21717" lon="3.07928">
        <ele>681</ele>
        <time>2014-02-13T14:09:04Z</time>
      </trkpt>
      <trkpt lat="44.21712" lon="3.07931">
        <ele>681</ele>
        <time>2014-02-13T14:09:08Z</time>
      </trkpt>
      <trkpt lat="44.21707" lon="3.07934">
        <ele>681</ele>
        <time>2014-02-13T14:09:12Z</time>
      </trkpt>
      <trkpt lat="44.21702" lon="3.07938">
        <ele>681</ele>
        <time>2014-02-13T14:09:16Z</time>
      </trkpt>
      <trkpt lat="44.21697" lon="3.07941">
        <ele>681</ele>
        <time>2014-02-13T14:09:20Z</time>
      </trkpt>
      <trkpt lat="44.21693" lon="3.07944">
        <ele>681</ele>
        <time>2014-02-13T14:09:23Z</time>
      </trkpt>
      <trkpt lat="44.21688" lon="3.07948">
        <ele>682</ele>
        <time>2014-02-13T14:09:27Z</time>
      </trkpt>
      <trkpt lat="44.21684" lon="3.07952">
        <ele>682</ele>
        <time>2014-02-13T14:09:31Z</time>
      </trkpt>
      <trkpt lat="44.2168" lon="3.07956">
        <ele>682</ele>
        <time>2014-02-13T14:09:34Z</time>
      </trkpt>
      <trkpt lat="44.21676" lon="3.0796">
        <ele>682</ele>
        <time>2014-02-13T14:09:37Z</time>
      </trkpt>
      <trkpt lat="44.21671" lon="3.07965">
        <ele>683</ele>
        <time>2014-02-13T14:09:40Z</time>
      </trkpt>
      <trkpt lat="44.21666" lon="3.0797">
        <ele>684</ele>
        <time>2014-02-13T14:09:43Z</time>
      </trkpt>
      <trkpt lat="44.21662" lon="3.07974">
        <ele>685</ele>
        <time>2014-02-13T14:09:46Z</time>
      </trkpt>
      <trkpt lat="44.21657" lon="3.07978">
        <ele>685</ele>
        <time>2014-02-13T14:09:49Z</time>
      </trkpt>
      <trkpt lat="44.21653" lon="3.07982">
        <ele>685</ele>
        <time>2014-02-13T14:09:52Z</time>
      </trkpt>
      <trkpt lat="44.21649" lon="3.07986">
        <ele>685</ele>
        <time>2014-02-13T14:09:55Z</time>
      </trkpt>
      <trkpt lat="44.21645" lon="3.07989">
        <ele>685</ele>
        <time>2014-02-13T14:09:58Z</time>
      </trkpt>
      <trkpt lat="44.21641" lon="3.07993">
        <ele>685</ele>
        <time>2014-02-13T14:10:01Z</time>
      </trkpt>
      <trkpt lat="44.21636" lon="3.07998">
        <ele>686</ele>
        <time>2014-02-13T14:10:05Z</time>
      </trkpt>
      <trkpt lat="44.21631" lon="3.08002">
        <ele>685</ele>
        <time>2014-02-13T14:10:09Z</time>
      </trkpt>
      <trkpt lat="44.21626" lon="3.08006">
        <ele>685</ele>
        <time>2014-02-13T14:10:13Z</time>
      </trkpt>
      <trkpt lat="44.21622" lon="3.08009">
        <ele>686</ele>
        <time>2014-02-13T14:10:17Z</time>
      </trkpt>
      <trkpt lat="44.21618" lon="3.08014">
        <ele>685</ele>
        <time>2014-02-13T14:10:21Z</time>
      </trkpt>
      <trkpt lat="44.21614" lon="3.08019">
        <ele>684</ele>
        <time>2014-02-13T14:10:25Z</time>
      </trkpt>
      <trkpt lat="44.2161" lon="3.08024">
        <ele>684</ele>
        <time>2014-02-13T14:10:29Z</time>
      </trkpt>
      <trkpt lat="44.21605" lon="3.08027">
        <ele>684</ele>
        <time>2014-02-13T14:10:33Z</time>
      </trkpt>
      <trkpt lat="44.21601" lon="3.08031">
        <ele>685</ele>
        <time>2014-02-13T14:10:36Z</time>
      </trkpt>
      <trkpt lat="44.21597" lon="3.08036">
        <ele>685</ele>
        <time>2014-02-13T14:10:40Z</time>
      </trkpt>
      <trkpt lat="44.21592" lon="3.0804">
        <ele>685</ele>
        <time>2014-02-13T14:10:44Z</time>
      </trkpt>
      <trkpt lat="44.21586" lon="3.08043">
        <ele>686</ele>
        <time>2014-02-13T14:10:48Z</time>
      </trkpt>
      <trkpt lat="44.21582" lon="3.08046">
        <ele>688</ele>
        <time>2014-02-13T14:10:51Z</time>
      </trkpt>
      <trkpt lat="44.21577" lon="3.08049">
        <ele>688</ele>
        <time>2014-02-13T14:10:55Z</time>
      </trkpt>
      <trkpt lat="44.21572" lon="3.08054">
        <ele>688</ele>
        <time>2014-02-13T14:10:58Z</time>
      </trkpt>
      <trkpt lat="44.21567" lon="3.08058">
        <ele>688</ele>
        <time>2014-02-13T14:11:01Z</time>
      </trkpt>
      <trkpt lat="44.21562" lon="3.08062">
        <ele>688</ele>
        <time>2014-02-13T14:11:04Z</time>
      </trkpt>
      <trkpt lat="44.21557" lon="3.08066">
        <ele>688</ele>
        <time>2014-02-13T14:11:07Z</time>
      </trkpt>
      <trkpt lat="44.21552" lon="3.08071">
        <ele>688</ele>
        <time>2014-02-13T14:11:10Z</time>
      </trkpt>
      <trkpt lat="44.21548" lon="3.08076">
        <ele>690</ele>
        <time>2014-02-13T14:11:13Z</time>
      </trkpt>
      <trkpt lat="44.21543" lon="3.08081">
        <ele>692</ele>
        <time>2014-02-13T14:11:16Z</time>
      </trkpt>
      <trkpt lat="44.2154" lon="3.08086">
        <ele>693</ele>
        <time>2014-02-13T14:11:19Z</time>
      </trkpt>
      <trkpt lat="44.21536" lon="3.0809">
        <ele>694</ele>
        <time>2014-02-13T14:11:22Z</time>
      </trkpt>
      <trkpt lat="44.21531" lon="3.08095">
        <ele>695</ele>
        <time>2014-02-13T14:11:25Z</time>
      </trkpt>
      <trkpt lat="44.21526" lon="3.08098">
        <ele>696</ele>
        <time>2014-02-13T14:11:28Z</time>
      </trkpt>
      <trkpt lat="44.21522" lon="3.08102">
        <ele>696</ele>
        <time>2014-02-13T14:11:31Z</time>
      </trkpt>
      <trkpt lat="44.21519" lon="3.08106">
        <ele>697</ele>
        <time>2014-02-13T14:11:34Z</time>
      </trkpt>
      <trkpt lat="44.21514" lon="3.08111">
        <ele>697</ele>
        <time>2014-02-13T14:11:38Z</time>
      </trkpt>
      <trkpt lat="44.2151" lon="3.08116">
        <ele>697</ele>
        <time>2014-02-13T14:11:42Z</time>
      </trkpt>
      <trkpt lat="44.21505" lon="3.08122">
        <ele>696</ele>
        <time>2014-02-13T14:11:46Z</time>
      </trkpt>
      <trkpt lat="44.21501" lon="3.08126">
        <ele>696</ele>
        <time>2014-02-13T14:11:50Z</time>
      </trkpt>
      <trkpt lat="44.21497" lon="3.08132">
        <ele>696</ele>
        <time>2014-02-13T14:11:54Z</time>
      </trkpt>
      <trkpt lat="44.21493" lon="3.08137">
        <ele>695</ele>
        <time>2014-02-13T14:11:58Z</time>
      </trkpt>
      <trkpt lat="44.21489" lon="3.08142">
        <ele>696</ele>
        <time>2014-02-13T14:12:01Z</time>
      </trkpt>
      <trkpt lat="44.21486" lon="3.08147">
        <ele>696</ele>
        <time>2014-02-13T14:12:04Z</time>
      </trkpt>
      <trkpt lat="44.21482" lon="3.08152">
        <ele>695</ele>
        <time>2014-02-13T14:12:08Z</time>
      </trkpt>
      <trkpt lat="44.21479" lon="3.08157">
        <ele>695</ele>
        <time>2014-02-13T14:12:12Z</time>
      </trkpt>
      <trkpt lat="44.21475" lon="3.08163">
        <ele>695</ele>
        <time>2014-02-13T14:12:18Z</time>
      </trkpt>
      <trkpt lat="44.21472" lon="3.0817">
        <ele>696</ele>
        <time>2014-02-13T14:12:22Z</time>
      </trkpt>
      <trkpt lat="44.21469" lon="3.08175">
        <ele>696</ele>
        <time>2014-02-13T14:12:25Z</time>
      </trkpt>
      <trkpt lat="44.21467" lon="3.08181">
        <ele>695</ele>
        <time>2014-02-13T14:12:29Z</time>
      </trkpt>
      <trkpt lat="44.21463" lon="3.08187">
        <ele>694</ele>
        <time>2014-02-13T14:12:33Z</time>
      </trkpt>
      <trkpt lat="44.21461" lon="3.08192">
        <ele>693</ele>
        <time>2014-02-13T14:12:36Z</time>
      </trkpt>
      <trkpt lat="44.21458" lon="3.08199">
        <ele>692</ele>
        <time>2014-02-13T14:12:40Z</time>
      </trkpt>
      <trkpt lat="44.21455" lon="3.08205">
        <ele>692</ele>
        <time>2014-02-13T14:12:44Z</time>
      </trkpt>
      <trkpt lat="44.21453" lon="3.08211">
        <ele>692</ele>
        <time>2014-02-13T14:12:47Z</time>
      </trkpt>
      <trkpt lat="44.21451" lon="3.08218">
        <ele>693</ele>
        <time>2014-02-13T14:12:50Z</time>
      </trkpt>
      <trkpt lat="44.21448" lon="3.08225">
        <ele>693</ele>
        <time>2014-02-13T14:12:54Z</time>
      </trkpt>
      <trkpt lat="44.21446" lon="3.08231">
        <ele>693</ele>
        <time>2014-02-13T14:12:57Z</time>
      </trkpt>
      <trkpt lat="44.21444" lon="3.08237">
        <ele>694</ele>
        <time>2014-02-13T14:13:00Z</time>
      </trkpt>
      <trkpt lat="44.21442" lon="3.08243">
        <ele>695</ele>
        <time>2014-02-13T14:13:03Z</time>
      </trkpt>
      <trkpt lat="44.2144" lon="3.08251">
        <ele>695</ele>
        <time>2014-02-13T14:13:07Z</time>
      </trkpt>
      <trkpt lat="44.21438" lon="3.08257">
        <ele>696</ele>
        <time>2014-02-13T14:13:10Z</time>
      </trkpt>
      <trkpt lat="44.21435" lon="3.08263">
        <ele>696</ele>
        <time>2014-02-13T14:13:14Z</time>
      </trkpt>
      <trkpt lat="44.21433" lon="3.0827">
        <ele>696</ele>
        <time>2014-02-13T14:13:18Z</time>
      </trkpt>
      <trkpt lat="44.21431" lon="3.08275">
        <ele>696</ele>
        <time>2014-02-13T14:13:22Z</time>
      </trkpt>
      <trkpt lat="44.21429" lon="3.08281">
        <ele>695</ele>
        <time>2014-02-13T14:13:26Z</time>
      </trkpt>
      <trkpt lat="44.21426" lon="3.08288">
        <ele>695</ele>
        <time>2014-02-13T14:13:31Z</time>
      </trkpt>
      <trkpt lat="44.21423" lon="3.08295">
        <ele>695</ele>
        <time>2014-02-13T14:13:35Z</time>
      </trkpt>
      <trkpt lat="44.21421" lon="3.08302">
        <ele>694</ele>
        <time>2014-02-13T14:13:39Z</time>
      </trkpt>
      <trkpt lat="44.21421" lon="3.08309">
        <ele>694</ele>
        <time>2014-02-13T14:13:43Z</time>
      </trkpt>
      <trkpt lat="44.21422" lon="3.08317">
        <ele>694</ele>
        <time>2014-02-13T14:13:47Z</time>
      </trkpt>
      <trkpt lat="44.21426" lon="3.08323">
        <ele>694</ele>
        <time>2014-02-13T14:13:51Z</time>
      </trkpt>
      <trkpt lat="44.21431" lon="3.08325">
        <ele>695</ele>
        <time>2014-02-13T14:13:55Z</time>
      </trkpt>
      <trkpt lat="44.21436" lon="3.08327">
        <ele>695</ele>
        <time>2014-02-13T14:13:58Z</time>
      </trkpt>
      <trkpt lat="44.2144" lon="3.08331">
        <ele>696</ele>
        <time>2014-02-13T14:14:01Z</time>
      </trkpt>
      <trkpt lat="44.21443" lon="3.08336">
        <ele>696</ele>
        <time>2014-02-13T14:14:04Z</time>
      </trkpt>
      <trkpt lat="44.21443" lon="3.08343">
        <ele>695</ele>
        <time>2014-02-13T14:14:07Z</time>
      </trkpt>
      <trkpt lat="44.21443" lon="3.08351">
        <ele>695</ele>
        <time>2014-02-13T14:14:11Z</time>
      </trkpt>
      <trkpt lat="44.21445" lon="3.08359">
        <ele>695</ele>
        <time>2014-02-13T14:14:22Z</time>
      </trkpt>
      <trkpt lat="44.21446" lon="3.08367">
        <ele>696</ele>
        <time>2014-02-13T14:14:26Z</time>
      </trkpt>
      <trkpt lat="44.21449" lon="3.08374">
        <ele>696</ele>
        <time>2014-02-13T14:14:30Z</time>
      </trkpt>
      <trkpt lat="44.21452" lon="3.08378">
        <ele>697</ele>
        <time>2014-02-13T14:14:34Z</time>
      </trkpt>
      <trkpt lat="44.21458" lon="3.08381">
        <ele>698</ele>
        <time>2014-02-13T14:14:38Z</time>
      </trkpt>
      <trkpt lat="44.21463" lon="3.08381">
        <ele>699</ele>
        <time>2014-02-13T14:14:42Z</time>
      </trkpt>
      <trkpt lat="44.21468" lon="3.08382">
        <ele>701</ele>
        <time>2014-02-13T14:14:46Z</time>
      </trkpt>
      <trkpt lat="44.21473" lon="3.08381">
        <ele>703</ele>
        <time>2014-02-13T14:14:50Z</time>
      </trkpt>
      <trkpt lat="44.21479" lon="3.0838">
        <ele>704</ele>
        <time>2014-02-13T14:14:54Z</time>
      </trkpt>
      <trkpt lat="44.21483" lon="3.08377">
        <ele>705</ele>
        <time>2014-02-13T14:14:57Z</time>
      </trkpt>
      <trkpt lat="44.21487" lon="3.08374">
        <ele>706</ele>
        <time>2014-02-13T14:15:00Z</time>
      </trkpt>
      <trkpt lat="44.21493" lon="3.08373">
        <ele>707</ele>
        <time>2014-02-13T14:15:04Z</time>
      </trkpt>
      <trkpt lat="44.21498" lon="3.08372">
        <ele>707</ele>
        <time>2014-02-13T14:15:07Z</time>
      </trkpt>
      <trkpt lat="44.21503" lon="3.08375">
        <ele>707</ele>
        <time>2014-02-13T14:15:11Z</time>
      </trkpt>
      <trkpt lat="44.21507" lon="3.0838">
        <ele>706</ele>
        <time>2014-02-13T14:15:15Z</time>
      </trkpt>
      <trkpt lat="44.21511" lon="3.08387">
        <ele>706</ele>
        <time>2014-02-13T14:15:19Z</time>
      </trkpt>
      <trkpt lat="44.21515" lon="3.08393">
        <ele>705</ele>
        <time>2014-02-13T14:15:23Z</time>
      </trkpt>
      <trkpt lat="44.21518" lon="3.084">
        <ele>704</ele>
        <time>2014-02-13T14:15:27Z</time>
      </trkpt>
      <trkpt lat="44.2152" lon="3.08406">
        <ele>704</ele>
        <time>2014-02-13T14:15:31Z</time>
      </trkpt>
      <trkpt lat="44.21523" lon="3.08413">
        <ele>704</ele>
        <time>2014-02-13T14:15:36Z</time>
      </trkpt>
      <trkpt lat="44.21526" lon="3.08419">
        <ele>703</ele>
        <time>2014-02-13T14:15:40Z</time>
      </trkpt>
      <trkpt lat="44.2153" lon="3.08425">
        <ele>702</ele>
        <time>2014-02-13T14:15:44Z</time>
      </trkpt>
      <trkpt lat="44.21534" lon="3.0843">
        <ele>701</ele>
        <time>2014-02-13T14:15:47Z</time>
      </trkpt>
      <trkpt lat="44.21538" lon="3.08434">
        <ele>700</ele>
        <time>2014-02-13T14:15:51Z</time>
      </trkpt>
      <trkpt lat="44.21542" lon="3.08438">
        <ele>699</ele>
        <time>2014-02-13T14:15:55Z</time>
      </trkpt>
      <trkpt lat="44.21546" lon="3.08443">
        <ele>698</ele>
        <time>2014-02-13T14:15:59Z</time>
      </trkpt>
      <trkpt lat="44.21548" lon="3.0845">
        <ele>697</ele>
        <time>2014-02-13T14:16:03Z</time>
      </trkpt>
      <trkpt lat="44.2155" lon="3.08457">
        <ele>698</ele>
        <time>2014-02-13T14:16:06Z</time>
      </trkpt>
      <trkpt lat="44.2155" lon="3.0846">
        <ele>699</ele>
        <time>2014-02-13T14:16:12Z</time>
      </trkpt>
      <trkpt lat="44.21552" lon="3.08466">
        <ele>702</ele>
        <time>2014-02-13T14:16:18Z</time>
      </trkpt>
      <trkpt lat="44.21555" lon="3.08471">
        <ele>704</ele>
        <time>2014-02-13T14:16:25Z</time>
      </trkpt>
      <trkpt lat="44.21558" lon="3.08476">
        <ele>704</ele>
        <time>2014-02-13T14:16:30Z</time>
      </trkpt>
      <trkpt lat="44.21561" lon="3.08482">
        <ele>704</ele>
        <time>2014-02-13T14:16:33Z</time>
      </trkpt>
      <trkpt lat="44.21564" lon="3.08487">
        <ele>704</ele>
        <time>2014-02-13T14:16:38Z</time>
      </trkpt>
      <trkpt lat="44.21561" lon="3.08493">
        <ele>704</ele>
        <time>2014-02-13T14:16:44Z</time>
      </trkpt>
      <trkpt lat="44.21557" lon="3.08498">
        <ele>704</ele>
        <time>2014-02-13T14:16:47Z</time>
      </trkpt>
      <trkpt lat="44.21552" lon="3.08503">
        <ele>704</ele>
        <time>2014-02-13T14:16:50Z</time>
      </trkpt>
      <trkpt lat="44.21549" lon="3.08506">
        <ele>702</ele>
        <time>2014-02-13T14:16:53Z</time>
      </trkpt>
      <trkpt lat="44.21543" lon="3.08509">
        <ele>702</ele>
        <time>2014-02-13T14:16:57Z</time>
      </trkpt>
      <trkpt lat="44.2154" lon="3.08509">
        <ele>702</ele>
        <time>2014-02-13T14:17:04Z</time>
      </trkpt>
      <trkpt lat="44.21538" lon="3.08516">
        <ele>701</ele>
        <time>2014-02-13T14:17:26Z</time>
      </trkpt>
      <trkpt lat="44.21536" lon="3.08521">
        <ele>700</ele>
        <time>2014-02-13T14:17:33Z</time>
      </trkpt>
      <trkpt lat="44.21538" lon="3.08525">
        <ele>697</ele>
        <time>2014-02-13T14:17:45Z</time>
      </trkpt>
      <trkpt lat="44.2154" lon="3.08528">
        <ele>697</ele>
        <time>2014-02-13T14:17:51Z</time>
      </trkpt>
      <trkpt lat="44.2154" lon="3.08534">
        <ele>696</ele>
        <time>2014-02-13T14:17:59Z</time>
      </trkpt>
      <trkpt lat="44.21543" lon="3.08539">
        <ele>696</ele>
        <time>2014-02-13T14:18:04Z</time>
      </trkpt>
      <trkpt lat="44.21547" lon="3.08544">
        <ele>695</ele>
        <time>2014-02-13T14:18:09Z</time>
      </trkpt>
      <trkpt lat="44.21551" lon="3.08547">
        <ele>694</ele>
        <time>2014-02-13T14:18:12Z</time>
      </trkpt>
      <trkpt lat="44.21551" lon="3.08554">
        <ele>695</ele>
        <time>2014-02-13T14:18:18Z</time>
      </trkpt>
      <trkpt lat="44.21548" lon="3.08559">
        <ele>695</ele>
        <time>2014-02-13T14:18:22Z</time>
      </trkpt>
      <trkpt lat="44.21545" lon="3.08563">
        <ele>695</ele>
        <time>2014-02-13T14:18:26Z</time>
      </trkpt>
      <trkpt lat="44.21541" lon="3.08569">
        <ele>693</ele>
        <time>2014-02-13T14:18:30Z</time>
      </trkpt>
      <trkpt lat="44.21538" lon="3.08574">
        <ele>692</ele>
        <time>2014-02-13T14:18:34Z</time>
      </trkpt>
      <trkpt lat="44.2154" lon="3.08578">
        <ele>691</ele>
        <time>2014-02-13T14:18:52Z</time>
      </trkpt>
      <trkpt lat="44.21538" lon="3.08581">
        <ele>691</ele>
        <time>2014-02-13T14:19:00Z</time>
      </trkpt>
      <trkpt lat="44.21536" lon="3.08586">
        <ele>690</ele>
        <time>2014-02-13T14:19:05Z</time>
      </trkpt>
      <trkpt lat="44.21536" lon="3.08593">
        <ele>690</ele>
        <time>2014-02-13T14:19:12Z</time>
      </trkpt>
      <trkpt lat="44.2154" lon="3.08598">
        <ele>689</ele>
        <time>2014-02-13T14:19:17Z</time>
      </trkpt>
      <trkpt lat="44.21544" lon="3.08601">
        <ele>688</ele>
        <time>2014-02-13T14:19:22Z</time>
      </trkpt>
      <trkpt lat="44.21547" lon="3.08606">
        <ele>688</ele>
        <time>2014-02-13T14:19:27Z</time>
      </trkpt>
      <trkpt lat="44.21548" lon="3.08609">
        <ele>688</ele>
        <time>2014-02-13T14:19:33Z</time>
      </trkpt>
      <trkpt lat="44.21545" lon="3.08618">
        <ele>686</ele>
        <time>2014-02-13T14:19:45Z</time>
      </trkpt>
      <trkpt lat="44.21544" lon="3.08625">
        <ele>685</ele>
        <time>2014-02-13T14:19:52Z</time>
      </trkpt>
      <trkpt lat="44.21547" lon="3.08631">
        <ele>684</ele>
        <time>2014-02-13T14:19:57Z</time>
      </trkpt>
      <trkpt lat="44.21552" lon="3.08631">
        <ele>683</ele>
        <time>2014-02-13T14:20:12Z</time>
      </trkpt>
      <trkpt lat="44.21555" lon="3.08636">
        <ele>681</ele>
        <time>2014-02-13T14:20:19Z</time>
      </trkpt>
      <trkpt lat="44.2156" lon="3.08639">
        <ele>680</ele>
        <time>2014-02-13T14:20:24Z</time>
      </trkpt>
      <trkpt lat="44.21557" lon="3.08642">
        <ele>677</ele>
        <time>2014-02-13T14:20:38Z</time>
      </trkpt>
      <trkpt lat="44.21553" lon="3.08646">
        <ele>676</ele>
        <time>2014-02-13T14:20:44Z</time>
      </trkpt>
      <trkpt lat="44.21548" lon="3.08648">
        <ele>673</ele>
        <time>2014-02-13T14:20:50Z</time>
      </trkpt>
      <trkpt lat="44.21545" lon="3.08654">
        <ele>672</ele>
        <time>2014-02-13T14:20:55Z</time>
      </trkpt>
      <trkpt lat="44.21543" lon="3.08661">
        <ele>671</ele>
        <time>2014-02-13T14:20:59Z</time>
      </trkpt>
      <trkpt lat="44.21542" lon="3.08667">
        <ele>671</ele>
        <time>2014-02-13T14:21:03Z</time>
      </trkpt>
      <trkpt lat="44.21543" lon="3.0867">
        <ele>670</ele>
        <time>2014-02-13T14:21:09Z</time>
      </trkpt>
      <trkpt lat="44.21548" lon="3.08669">
        <ele>669</ele>
        <time>2014-02-13T14:21:16Z</time>
      </trkpt>
      <trkpt lat="44.21553" lon="3.08666">
        <ele>668</ele>
        <time>2014-02-13T14:21:21Z</time>
      </trkpt>
      <trkpt lat="44.21558" lon="3.08661">
        <ele>667</ele>
        <time>2014-02-13T14:21:30Z</time>
      </trkpt>
      <trkpt lat="44.21563" lon="3.08659">
        <ele>666</ele>
        <time>2014-02-13T14:21:36Z</time>
      </trkpt>
      <trkpt lat="44.21567" lon="3.08662">
        <ele>666</ele>
        <time>2014-02-13T14:21:40Z</time>
      </trkpt>
      <trkpt lat="44.21569" lon="3.08665">
        <ele>664</ele>
        <time>2014-02-13T14:21:47Z</time>
      </trkpt>
      <trkpt lat="44.21567" lon="3.08668">
        <ele>664</ele>
        <time>2014-02-13T14:22:09Z</time>
      </trkpt>
      <trkpt lat="44.21563" lon="3.08667">
        <ele>664</ele>
        <time>2014-02-13T14:22:23Z</time>
      </trkpt>
      <trkpt lat="44.21559" lon="3.08672">
        <ele>663</ele>
        <time>2014-02-13T14:22:35Z</time>
      </trkpt>
      <trkpt lat="44.21554" lon="3.08675">
        <ele>662</ele>
        <time>2014-02-13T14:22:42Z</time>
      </trkpt>
      <trkpt lat="44.21549" lon="3.08675">
        <ele>661</ele>
        <time>2014-02-13T14:22:49Z</time>
      </trkpt>
      <trkpt lat="44.21544" lon="3.08676">
        <ele>660</ele>
        <time>2014-02-13T14:22:57Z</time>
      </trkpt>
      <trkpt lat="44.21543" lon="3.08682">
        <ele>660</ele>
        <time>2014-02-13T14:23:02Z</time>
      </trkpt>
      <trkpt lat="44.21542" lon="3.08689">
        <ele>660</ele>
        <time>2014-02-13T14:23:10Z</time>
      </trkpt>
      <trkpt lat="44.21538" lon="3.08695">
        <ele>661</ele>
        <time>2014-02-13T14:23:16Z</time>
      </trkpt>
      <trkpt lat="44.21536" lon="3.087">
        <ele>661</ele>
        <time>2014-02-13T14:23:23Z</time>
      </trkpt>
      <trkpt lat="44.21533" lon="3.08705">
        <ele>661</ele>
        <time>2014-02-13T14:23:29Z</time>
      </trkpt>
      <trkpt lat="44.21532" lon="3.08713">
        <ele>661</ele>
        <time>2014-02-13T14:23:45Z</time>
      </trkpt>
      <trkpt lat="44.21528" lon="3.08718">
        <ele>660</ele>
        <time>2014-02-13T14:23:49Z</time>
      </trkpt>
      <trkpt lat="44.21524" lon="3.08722">
        <ele>659</ele>
        <time>2014-02-13T14:23:52Z</time>
      </trkpt>
      <trkpt lat="44.21521" lon="3.08729">
        <ele>659</ele>
        <time>2014-02-13T14:23:55Z</time>
      </trkpt>
      <trkpt lat="44.21519" lon="3.08736">
        <ele>660</ele>
        <time>2014-02-13T14:23:58Z</time>
      </trkpt>
      <trkpt lat="44.21516" lon="3.08741">
        <ele>660</ele>
        <time>2014-02-13T14:24:02Z</time>
      </trkpt>
      <trkpt lat="44.21513" lon="3.08747">
        <ele>660</ele>
        <time>2014-02-13T14:24:06Z</time>
      </trkpt>
      <trkpt lat="44.21508" lon="3.08748">
        <ele>658</ele>
        <time>2014-02-13T14:24:14Z</time>
      </trkpt>
      <trkpt lat="44.21503" lon="3.08751">
        <ele>656</ele>
        <time>2014-02-13T14:24:19Z</time>
      </trkpt>
      <trkpt lat="44.21498" lon="3.08753">
        <ele>655</ele>
        <time>2014-02-13T14:24:24Z</time>
      </trkpt>
      <trkpt lat="44.21495" lon="3.08752">
        <ele>653</ele>
        <time>2014-02-13T14:24:32Z</time>
      </trkpt>
      <trkpt lat="44.21493" lon="3.08758">
        <ele>655</ele>
        <time>2014-02-13T14:24:48Z</time>
      </trkpt>
      <trkpt lat="44.2149" lon="3.0876">
        <ele>654</ele>
        <time>2014-02-13T14:25:10Z</time>
      </trkpt>
      <trkpt lat="44.21487" lon="3.08765">
        <ele>653</ele>
        <time>2014-02-13T14:25:21Z</time>
      </trkpt>
      <trkpt lat="44.21483" lon="3.08763">
        <ele>654</ele>
        <time>2014-02-13T14:25:26Z</time>
      </trkpt>
      <trkpt lat="44.21478" lon="3.08761">
        <ele>654</ele>
        <time>2014-02-13T14:25:31Z</time>
      </trkpt>
      <trkpt lat="44.21474" lon="3.08757">
        <ele>651</ele>
        <time>2014-02-13T14:26:17Z</time>
      </trkpt>
      <trkpt lat="44.2147" lon="3.08754">
        <ele>649</ele>
        <time>2014-02-13T14:26:35Z</time>
      </trkpt>
      <trkpt lat="44.21465" lon="3.08754">
        <ele>649</ele>
        <time>2014-02-13T14:26:39Z</time>
      </trkpt>
      <trkpt lat="44.2146" lon="3.08753">
        <ele>648</ele>
        <time>2014-02-13T14:26:45Z</time>
      </trkpt>
      <trkpt lat="44.21455" lon="3.0875">
        <ele>646</ele>
        <time>2014-02-13T14:26:48Z</time>
      </trkpt>
      <trkpt lat="44.21451" lon="3.08748">
        <ele>645</ele>
        <time>2014-02-13T14:26:51Z</time>
      </trkpt>
      <trkpt lat="44.21446" lon="3.08747">
        <ele>644</ele>
        <time>2014-02-13T14:26:54Z</time>
      </trkpt>
      <trkpt lat="44.21442" lon="3.08747">
        <ele>643</ele>
        <time>2014-02-13T14:26:57Z</time>
      </trkpt>
      <trkpt lat="44.21436" lon="3.08746">
        <ele>643</ele>
        <time>2014-02-13T14:27:01Z</time>
      </trkpt>
      <trkpt lat="44.21431" lon="3.08743">
        <ele>642</ele>
        <time>2014-02-13T14:27:06Z</time>
      </trkpt>
      <trkpt lat="44.21425" lon="3.08743">
        <ele>642</ele>
        <time>2014-02-13T14:27:10Z</time>
      </trkpt>
      <trkpt lat="44.2142" lon="3.08743">
        <ele>642</ele>
        <time>2014-02-13T14:27:14Z</time>
      </trkpt>
      <trkpt lat="44.21415" lon="3.08741">
        <ele>641</ele>
        <time>2014-02-13T14:27:19Z</time>
      </trkpt>
      <trkpt lat="44.21411" lon="3.08737">
        <ele>641</ele>
        <time>2014-02-13T14:27:24Z</time>
      </trkpt>
      <trkpt lat="44.21406" lon="3.08737">
        <ele>640</ele>
        <time>2014-02-13T14:27:28Z</time>
      </trkpt>
      <trkpt lat="44.21401" lon="3.08738">
        <ele>640</ele>
        <time>2014-02-13T14:27:33Z</time>
      </trkpt>
      <trkpt lat="44.21396" lon="3.08738">
        <ele>641</ele>
        <time>2014-02-13T14:27:38Z</time>
      </trkpt>
      <trkpt lat="44.21391" lon="3.08736">
        <ele>641</ele>
        <time>2014-02-13T14:27:41Z</time>
      </trkpt>
      <trkpt lat="44.21386" lon="3.08738">
        <ele>641</ele>
        <time>2014-02-13T14:27:45Z</time>
      </trkpt>
      <trkpt lat="44.2138" lon="3.08739">
        <ele>641</ele>
        <time>2014-02-13T14:27:48Z</time>
      </trkpt>
      <trkpt lat="44.21374" lon="3.08739">
        <ele>641</ele>
        <time>2014-02-13T14:27:52Z</time>
      </trkpt>
      <trkpt lat="44.21369" lon="3.08739">
        <ele>641</ele>
        <time>2014-02-13T14:27:59Z</time>
      </trkpt>
      <trkpt lat="44.21365" lon="3.08739">
        <ele>640</ele>
        <time>2014-02-13T14:28:05Z</time>
      </trkpt>
      <trkpt lat="44.21359" lon="3.08737">
        <ele>640</ele>
        <time>2014-02-13T14:28:09Z</time>
      </trkpt>
      <trkpt lat="44.21354" lon="3.08736">
        <ele>639</ele>
        <time>2014-02-13T14:28:12Z</time>
      </trkpt>
      <trkpt lat="44.2135" lon="3.08734">
        <ele>638</ele>
        <time>2014-02-13T14:28:15Z</time>
      </trkpt>
      <trkpt lat="44.21344" lon="3.08734">
        <ele>638</ele>
        <time>2014-02-13T14:28:20Z</time>
      </trkpt>
      <trkpt lat="44.21339" lon="3.08735">
        <ele>638</ele>
        <time>2014-02-13T14:28:23Z</time>
      </trkpt>
      <trkpt lat="44.21334" lon="3.08736">
        <ele>638</ele>
        <time>2014-02-13T14:28:26Z</time>
      </trkpt>
      <trkpt lat="44.21329" lon="3.08735">
        <ele>637</ele>
        <time>2014-02-13T14:28:29Z</time>
      </trkpt>
      <trkpt lat="44.21324" lon="3.08732">
        <ele>636</ele>
        <time>2014-02-13T14:28:32Z</time>
      </trkpt>
      <trkpt lat="44.21319" lon="3.0873">
        <ele>636</ele>
        <time>2014-02-13T14:28:35Z</time>
      </trkpt>
      <trkpt lat="44.21316" lon="3.08725">
        <ele>635</ele>
        <time>2014-02-13T14:28:39Z</time>
      </trkpt>
      <trkpt lat="44.21311" lon="3.0872">
        <ele>634</ele>
        <time>2014-02-13T14:28:46Z</time>
      </trkpt>
      <trkpt lat="44.21306" lon="3.08717">
        <ele>634</ele>
        <time>2014-02-13T14:28:49Z</time>
      </trkpt>
      <trkpt lat="44.21302" lon="3.08714">
        <ele>634</ele>
        <time>2014-02-13T14:28:52Z</time>
      </trkpt>
      <trkpt lat="44.21298" lon="3.0871">
        <ele>633</ele>
        <time>2014-02-13T14:28:56Z</time>
      </trkpt>
      <trkpt lat="44.21294" lon="3.08706">
        <ele>632</ele>
        <time>2014-02-13T14:29:01Z</time>
      </trkpt>
      <trkpt lat="44.21289" lon="3.08703">
        <ele>631</ele>
        <time>2014-02-13T14:29:04Z</time>
      </trkpt>
      <trkpt lat="44.21285" lon="3.08699">
        <ele>630</ele>
        <time>2014-02-13T14:29:08Z</time>
      </trkpt>
      <trkpt lat="44.21279" lon="3.08695">
        <ele>630</ele>
        <time>2014-02-13T14:29:12Z</time>
      </trkpt>
      <trkpt lat="44.21275" lon="3.08693">
        <ele>630</ele>
        <time>2014-02-13T14:29:15Z</time>
      </trkpt>
      <trkpt lat="44.21271" lon="3.0869">
        <ele>629</ele>
        <time>2014-02-13T14:29:18Z</time>
      </trkpt>
      <trkpt lat="44.21267" lon="3.08686">
        <ele>629</ele>
        <time>2014-02-13T14:29:21Z</time>
      </trkpt>
      <trkpt lat="44.21264" lon="3.08681">
        <ele>628</ele>
        <time>2014-02-13T14:29:26Z</time>
      </trkpt>
      <trkpt lat="44.21261" lon="3.08675">
        <ele>627</ele>
        <time>2014-02-13T14:29:30Z</time>
      </trkpt>
      <trkpt lat="44.21257" lon="3.0867">
        <ele>627</ele>
        <time>2014-02-13T14:29:36Z</time>
      </trkpt>
      <trkpt lat="44.21258" lon="3.08662">
        <ele>626</ele>
        <time>2014-02-13T14:29:42Z</time>
      </trkpt>
      <trkpt lat="44.2126" lon="3.08656">
        <ele>626</ele>
        <time>2014-02-13T14:29:46Z</time>
      </trkpt>
      <trkpt lat="44.21262" lon="3.08649">
        <ele>626</ele>
        <time>2014-02-13T14:29:50Z</time>
      </trkpt>
      <trkpt lat="44.2126" lon="3.08644">
        <ele>625</ele>
        <time>2014-02-13T14:29:59Z</time>
      </trkpt>
      <trkpt lat="44.21257" lon="3.08641">
        <ele>623</ele>
        <time>2014-02-13T14:30:11Z</time>
      </trkpt>
      <trkpt lat="44.21252" lon="3.08637">
        <ele>621</ele>
        <time>2014-02-13T14:30:18Z</time>
      </trkpt>
      <trkpt lat="44.21248" lon="3.08636">
        <ele>621</ele>
        <time>2014-02-13T14:30:23Z</time>
      </trkpt>
      <trkpt lat="44.21243" lon="3.08637">
        <ele>621</ele>
        <time>2014-02-13T14:30:27Z</time>
      </trkpt>
      <trkpt lat="44.21239" lon="3.08637">
        <ele>620</ele>
        <time>2014-02-13T14:31:06Z</time>
      </trkpt>
      <trkpt lat="44.2124" lon="3.08646">
        <ele>621</ele>
        <time>2014-02-13T14:31:13Z</time>
      </trkpt>
      <trkpt lat="44.21238" lon="3.08652">
        <ele>623</ele>
        <time>2014-02-13T14:31:15Z</time>
      </trkpt>
      <trkpt lat="44.21238" lon="3.08659">
        <ele>625</ele>
        <time>2014-02-13T14:31:18Z</time>
      </trkpt>
      <trkpt lat="44.21238" lon="3.08665">
        <ele>625</ele>
        <time>2014-02-13T14:31:22Z</time>
      </trkpt>
      <trkpt lat="44.21241" lon="3.08671">
        <ele>624</ele>
        <time>2014-02-13T14:31:27Z</time>
      </trkpt>
      <trkpt lat="44.21241" lon="3.08674">
        <ele>621</ele>
        <time>2014-02-13T14:31:33Z</time>
      </trkpt>
      <trkpt lat="44.2124" lon="3.08681">
        <ele>620</ele>
        <time>2014-02-13T14:31:39Z</time>
      </trkpt>
      <trkpt lat="44.2124" lon="3.08688">
        <ele>620</ele>
        <time>2014-02-13T14:31:42Z</time>
      </trkpt>
      <trkpt lat="44.2124" lon="3.08695">
        <ele>620</ele>
        <time>2014-02-13T14:31:45Z</time>
      </trkpt>
      <trkpt lat="44.21242" lon="3.08701">
        <ele>619</ele>
        <time>2014-02-13T14:31:49Z</time>
      </trkpt>
      <trkpt lat="44.21242" lon="3.08708">
        <ele>620</ele>
        <time>2014-02-13T14:31:55Z</time>
      </trkpt>
      <trkpt lat="44.21244" lon="3.08714">
        <ele>620</ele>
        <time>2014-02-13T14:31:59Z</time>
      </trkpt>
      <trkpt lat="44.21249" lon="3.08719">
        <ele>620</ele>
        <time>2014-02-13T14:32:03Z</time>
      </trkpt>
      <trkpt lat="44.21253" lon="3.08722">
        <ele>619</ele>
        <time>2014-02-13T14:32:07Z</time>
      </trkpt>
      <trkpt lat="44.21257" lon="3.08727">
        <ele>618</ele>
        <time>2014-02-13T14:32:11Z</time>
      </trkpt>
      <trkpt lat="44.2126" lon="3.08733">
        <ele>616</ele>
        <time>2014-02-13T14:32:15Z</time>
      </trkpt>
      <trkpt lat="44.21264" lon="3.0874">
        <ele>615</ele>
        <time>2014-02-13T14:32:19Z</time>
      </trkpt>
      <trkpt lat="44.21269" lon="3.08745">
        <ele>615</ele>
        <time>2014-02-13T14:32:23Z</time>
      </trkpt>
      <trkpt lat="44.21274" lon="3.08749">
        <ele>615</ele>
        <time>2014-02-13T14:32:26Z</time>
      </trkpt>
      <trkpt lat="44.21277" lon="3.08753">
        <ele>614</ele>
        <time>2014-02-13T14:32:30Z</time>
      </trkpt>
      <trkpt lat="44.2128" lon="3.08758">
        <ele>612</ele>
        <time>2014-02-13T14:32:36Z</time>
      </trkpt>
      <trkpt lat="44.21283" lon="3.08763">
        <ele>611</ele>
        <time>2014-02-13T14:32:41Z</time>
      </trkpt>
      <trkpt lat="44.21287" lon="3.08769">
        <ele>611</ele>
        <time>2014-02-13T14:32:45Z</time>
      </trkpt>
      <trkpt lat="44.2129" lon="3.08773">
        <ele>610</ele>
        <time>2014-02-13T14:32:48Z</time>
      </trkpt>
      <trkpt lat="44.21294" lon="3.08777">
        <ele>609</ele>
        <time>2014-02-13T14:32:52Z</time>
      </trkpt>
      <trkpt lat="44.21298" lon="3.08782">
        <ele>607</ele>
        <time>2014-02-13T14:32:57Z</time>
      </trkpt>
      <trkpt lat="44.21302" lon="3.08787">
        <ele>606</ele>
        <time>2014-02-13T14:33:00Z</time>
      </trkpt>
      <trkpt lat="44.21306" lon="3.08792">
        <ele>605</ele>
        <time>2014-02-13T14:33:04Z</time>
      </trkpt>
      <trkpt lat="44.2131" lon="3.08797">
        <ele>604</ele>
        <time>2014-02-13T14:33:09Z</time>
      </trkpt>
      <trkpt lat="44.21314" lon="3.08801">
        <ele>604</ele>
        <time>2014-02-13T14:33:13Z</time>
      </trkpt>
      <trkpt lat="44.21319" lon="3.08808">
        <ele>602</ele>
        <time>2014-02-13T14:33:17Z</time>
      </trkpt>
      <trkpt lat="44.21322" lon="3.08814">
        <ele>602</ele>
        <time>2014-02-13T14:33:19Z</time>
      </trkpt>
      <trkpt lat="44.21327" lon="3.08819">
        <ele>601</ele>
        <time>2014-02-13T14:33:22Z</time>
      </trkpt>
      <trkpt lat="44.21332" lon="3.08822">
        <ele>601</ele>
        <time>2014-02-13T14:33:25Z</time>
      </trkpt>
      <trkpt lat="44.21338" lon="3.08824">
        <ele>600</ele>
        <time>2014-02-13T14:33:28Z</time>
      </trkpt>
      <trkpt lat="44.21342" lon="3.0883">
        <ele>600</ele>
        <time>2014-02-13T14:33:31Z</time>
      </trkpt>
      <trkpt lat="44.21338" lon="3.08837">
        <ele>600</ele>
        <time>2014-02-13T14:33:34Z</time>
      </trkpt>
      <trkpt lat="44.21333" lon="3.08841">
        <ele>600</ele>
        <time>2014-02-13T14:33:37Z</time>
      </trkpt>
      <trkpt lat="44.21327" lon="3.08845">
        <ele>600</ele>
        <time>2014-02-13T14:33:40Z</time>
      </trkpt>
      <trkpt lat="44.21321" lon="3.08845">
        <ele>600</ele>
        <time>2014-02-13T14:33:42Z</time>
      </trkpt>
      <trkpt lat="44.21315" lon="3.08846">
        <ele>599</ele>
        <time>2014-02-13T14:33:45Z</time>
      </trkpt>
      <trkpt lat="44.21309" lon="3.08845">
        <ele>599</ele>
        <time>2014-02-13T14:33:48Z</time>
      </trkpt>
      <trkpt lat="44.21304" lon="3.08843">
        <ele>600</ele>
        <time>2014-02-13T14:33:50Z</time>
      </trkpt>
      <trkpt lat="44.21298" lon="3.08841">
        <ele>600</ele>
        <time>2014-02-13T14:33:53Z</time>
      </trkpt>
      <trkpt lat="44.21292" lon="3.08839">
        <ele>601</ele>
        <time>2014-02-13T14:33:56Z</time>
      </trkpt>
      <trkpt lat="44.21287" lon="3.08838">
        <ele>601</ele>
        <time>2014-02-13T14:33:59Z</time>
      </trkpt>
      <trkpt lat="44.21283" lon="3.08834">
        <ele>601</ele>
        <time>2014-02-13T14:34:05Z</time>
      </trkpt>
      <trkpt lat="44.21278" lon="3.08831">
        <ele>601</ele>
        <time>2014-02-13T14:34:09Z</time>
      </trkpt>
      <trkpt lat="44.21274" lon="3.08831">
        <ele>600</ele>
        <time>2014-02-13T14:34:16Z</time>
      </trkpt>
      <trkpt lat="44.21269" lon="3.08834">
        <ele>599</ele>
        <time>2014-02-13T14:34:19Z</time>
      </trkpt>
      <trkpt lat="44.21264" lon="3.08841">
        <ele>599</ele>
        <time>2014-02-13T14:34:22Z</time>
      </trkpt>
      <trkpt lat="44.2126" lon="3.08846">
        <ele>599</ele>
        <time>2014-02-13T14:34:24Z</time>
      </trkpt>
      <trkpt lat="44.21254" lon="3.08844">
        <ele>599</ele>
        <time>2014-02-13T14:34:29Z</time>
      </trkpt>
      <trkpt lat="44.2125" lon="3.08841">
        <ele>600</ele>
        <time>2014-02-13T14:34:32Z</time>
      </trkpt>
      <trkpt lat="44.21245" lon="3.08838">
        <ele>601</ele>
        <time>2014-02-13T14:34:36Z</time>
      </trkpt>
      <trkpt lat="44.2124" lon="3.08838">
        <ele>602</ele>
        <time>2014-02-13T14:34:42Z</time>
      </trkpt>
      <trkpt lat="44.21235" lon="3.08837">
        <ele>601</ele>
        <time>2014-02-13T14:34:49Z</time>
      </trkpt>
      <trkpt lat="44.2123" lon="3.08836">
        <ele>601</ele>
        <time>2014-02-13T14:34:53Z</time>
      </trkpt>
      <trkpt lat="44.21225" lon="3.08836">
        <ele>601</ele>
        <time>2014-02-13T14:34:57Z</time>
      </trkpt>
      <trkpt lat="44.21219" lon="3.08836">
        <ele>601</ele>
        <time>2014-02-13T14:35:01Z</time>
      </trkpt>
      <trkpt lat="44.21214" lon="3.08836">
        <ele>602</ele>
        <time>2014-02-13T14:35:05Z</time>
      </trkpt>
      <trkpt lat="44.21209" lon="3.08834">
        <ele>602</ele>
        <time>2014-02-13T14:35:10Z</time>
      </trkpt>
      <trkpt lat="44.21204" lon="3.08836">
        <ele>603</ele>
        <time>2014-02-13T14:35:14Z</time>
      </trkpt>
      <trkpt lat="44.21199" lon="3.08837">
        <ele>605</ele>
        <time>2014-02-13T14:35:18Z</time>
      </trkpt>
      <trkpt lat="44.21194" lon="3.08837">
        <ele>604</ele>
        <time>2014-02-13T14:35:23Z</time>
      </trkpt>
      <trkpt lat="44.2119" lon="3.08837">
        <ele>604</ele>
        <time>2014-02-13T14:35:27Z</time>
      </trkpt>
      <trkpt lat="44.21186" lon="3.08831">
        <ele>605</ele>
        <time>2014-02-13T14:35:32Z</time>
      </trkpt>
      <trkpt lat="44.21181" lon="3.08827">
        <ele>605</ele>
        <time>2014-02-13T14:35:37Z</time>
      </trkpt>
      <trkpt lat="44.21177" lon="3.08827">
        <ele>606</ele>
        <time>2014-02-13T14:35:41Z</time>
      </trkpt>
      <trkpt lat="44.21172" lon="3.08828">
        <ele>607</ele>
        <time>2014-02-13T14:35:45Z</time>
      </trkpt>
      <trkpt lat="44.21167" lon="3.08827">
        <ele>607</ele>
        <time>2014-02-13T14:35:49Z</time>
      </trkpt>
      <trkpt lat="44.21162" lon="3.08828">
        <ele>608</ele>
        <time>2014-02-13T14:35:53Z</time>
      </trkpt>
      <trkpt lat="44.21158" lon="3.08825">
        <ele>609</ele>
        <time>2014-02-13T14:35:59Z</time>
      </trkpt>
      <trkpt lat="44.21153" lon="3.08824">
        <ele>609</ele>
        <time>2014-02-13T14:36:03Z</time>
      </trkpt>
      <trkpt lat="44.21148" lon="3.08825">
        <ele>610</ele>
        <time>2014-02-13T14:36:07Z</time>
      </trkpt>
      <trkpt lat="44.21143" lon="3.08827">
        <ele>611</ele>
        <time>2014-02-13T14:36:12Z</time>
      </trkpt>
      <trkpt lat="44.21138" lon="3.08828">
        <ele>611</ele>
        <time>2014-02-13T14:36:16Z</time>
      </trkpt>
      <trkpt lat="44.21132" lon="3.08829">
        <ele>612</ele>
        <time>2014-02-13T14:36:20Z</time>
      </trkpt>
      <trkpt lat="44.21127" lon="3.08827">
        <ele>613</ele>
        <time>2014-02-13T14:36:24Z</time>
      </trkpt>
      <trkpt lat="44.21128" lon="3.0882">
        <ele>613</ele>
        <time>2014-02-13T14:36:29Z</time>
      </trkpt>
      <trkpt lat="44.21124" lon="3.08813">
        <ele>612</ele>
        <time>2014-02-13T14:36:33Z</time>
      </trkpt>
      <trkpt lat="44.21119" lon="3.08811">
        <ele>612</ele>
        <time>2014-02-13T14:36:36Z</time>
      </trkpt>
      <trkpt lat="44.21114" lon="3.08814">
        <ele>612</ele>
        <time>2014-02-13T14:36:40Z</time>
      </trkpt>
      <trkpt lat="44.21105" lon="3.0881">
        <ele>613</ele>
        <time>2014-02-13T14:36:46Z</time>
      </trkpt>
      <trkpt lat="44.21097" lon="3.08811">
        <ele>612</ele>
        <time>2014-02-13T14:36:57Z</time>
      </trkpt>
      <trkpt lat="44.21088" lon="3.08805">
        <ele>611</ele>
        <time>2014-02-13T14:37:02Z</time>
      </trkpt>
      <trkpt lat="44.21078" lon="3.08805">
        <ele>612</ele>
        <time>2014-02-13T14:37:13Z</time>
      </trkpt>
      <trkpt lat="44.21074" lon="3.08796">
        <ele>614</ele>
        <time>2014-02-13T14:37:21Z</time>
      </trkpt>
      <trkpt lat="44.21071" lon="3.08796">
        <ele>617</ele>
        <time>2014-02-13T14:37:33Z</time>
      </trkpt>
      <trkpt lat="44.21066" lon="3.08795">
        <ele>617</ele>
        <time>2014-02-13T14:37:39Z</time>
      </trkpt>
      <trkpt lat="44.21061" lon="3.08795">
        <ele>617</ele>
        <time>2014-02-13T14:37:43Z</time>
      </trkpt>
      <trkpt lat="44.21056" lon="3.08795">
        <ele>617</ele>
        <time>2014-02-13T14:37:46Z</time>
      </trkpt>
      <trkpt lat="44.21051" lon="3.08796">
        <ele>617</ele>
        <time>2014-02-13T14:37:49Z</time>
      </trkpt>
      <trkpt lat="44.21046" lon="3.08794">
        <ele>617</ele>
        <time>2014-02-13T14:37:52Z</time>
      </trkpt>
      <trkpt lat="44.21042" lon="3.0879">
        <ele>618</ele>
        <time>2014-02-13T14:37:55Z</time>
      </trkpt>
      <trkpt lat="44.21037" lon="3.08788">
        <ele>618</ele>
        <time>2014-02-13T14:37:58Z</time>
      </trkpt>
      <trkpt lat="44.21032" lon="3.08786">
        <ele>618</ele>
        <time>2014-02-13T14:38:01Z</time>
      </trkpt>
      <trkpt lat="44.21028" lon="3.08784">
        <ele>618</ele>
        <time>2014-02-13T14:38:07Z</time>
      </trkpt>
      <trkpt lat="44.21023" lon="3.08782">
        <ele>619</ele>
        <time>2014-02-13T14:38:11Z</time>
      </trkpt>
      <trkpt lat="44.21018" lon="3.08779">
        <ele>620</ele>
        <time>2014-02-13T14:38:16Z</time>
      </trkpt>
      <trkpt lat="44.21013" lon="3.08776">
        <ele>621</ele>
        <time>2014-02-13T14:38:20Z</time>
      </trkpt>
      <trkpt lat="44.21008" lon="3.08772">
        <ele>621</ele>
        <time>2014-02-13T14:38:24Z</time>
      </trkpt>
      <trkpt lat="44.21004" lon="3.08769">
        <ele>622</ele>
        <time>2014-02-13T14:38:27Z</time>
      </trkpt>
      <trkpt lat="44.20998" lon="3.08766">
        <ele>622</ele>
        <time>2014-02-13T14:38:30Z</time>
      </trkpt>
      <trkpt lat="44.20994" lon="3.08763">
        <ele>623</ele>
        <time>2014-02-13T14:38:33Z</time>
      </trkpt>
      <trkpt lat="44.20989" lon="3.08761">
        <ele>624</ele>
        <time>2014-02-13T14:38:36Z</time>
      </trkpt>
      <trkpt lat="44.20984" lon="3.08758">
        <ele>625</ele>
        <time>2014-02-13T14:38:39Z</time>
      </trkpt>
      <trkpt lat="44.20979" lon="3.08758">
        <ele>625</ele>
        <time>2014-02-13T14:38:42Z</time>
      </trkpt>
      <trkpt lat="44.20975" lon="3.08758">
        <ele>626</ele>
        <time>2014-02-13T14:38:45Z</time>
      </trkpt>
      <trkpt lat="44.20969" lon="3.08757">
        <ele>626</ele>
        <time>2014-02-13T14:38:49Z</time>
      </trkpt>
      <trkpt lat="44.20964" lon="3.08757">
        <ele>626</ele>
        <time>2014-02-13T14:38:52Z</time>
      </trkpt>
      <trkpt lat="44.20958" lon="3.08757">
        <ele>626</ele>
        <time>2014-02-13T14:38:55Z</time>
      </trkpt>
      <trkpt lat="44.20953" lon="3.08757">
        <ele>625</ele>
        <time>2014-02-13T14:38:59Z</time>
      </trkpt>
      <trkpt lat="44.20952" lon="3.08759">
        <ele>628</ele>
        <time>2014-02-13T14:39:20Z</time>
      </trkpt>
      <trkpt lat="44.20957" lon="3.08757">
        <ele>629</ele>
        <time>2014-02-13T14:39:26Z</time>
      </trkpt>
      <trkpt lat="44.20962" lon="3.08757">
        <ele>632</ele>
        <time>2014-02-13T14:39:30Z</time>
      </trkpt>
      <trkpt lat="44.20967" lon="3.08757">
        <ele>634</ele>
        <time>2014-02-13T14:39:39Z</time>
      </trkpt>
      <trkpt lat="44.20971" lon="3.08758">
        <ele>634</ele>
        <time>2014-02-13T14:39:42Z</time>
      </trkpt>
      <trkpt lat="44.20976" lon="3.08759">
        <ele>635</ele>
        <time>2014-02-13T14:39:46Z</time>
      </trkpt>
      <trkpt lat="44.20982" lon="3.08759">
        <ele>636</ele>
        <time>2014-02-13T14:39:50Z</time>
      </trkpt>
      <trkpt lat="44.20987" lon="3.08758">
        <ele>637</ele>
        <time>2014-02-13T14:39:55Z</time>
      </trkpt>
      <trkpt lat="44.20992" lon="3.08761">
        <ele>636</ele>
        <time>2014-02-13T14:39:59Z</time>
      </trkpt>
      <trkpt lat="44.20997" lon="3.08764">
        <ele>636</ele>
        <time>2014-02-13T14:40:03Z</time>
      </trkpt>
      <trkpt lat="44.21002" lon="3.08767">
        <ele>635</ele>
        <time>2014-02-13T14:40:07Z</time>
      </trkpt>
      <trkpt lat="44.21005" lon="3.08772">
        <ele>635</ele>
        <time>2014-02-13T14:40:12Z</time>
      </trkpt>
      <trkpt lat="44.2101" lon="3.08775">
        <ele>635</ele>
        <time>2014-02-13T14:40:16Z</time>
      </trkpt>
      <trkpt lat="44.21014" lon="3.08779">
        <ele>635</ele>
        <time>2014-02-13T14:40:20Z</time>
      </trkpt>
      <trkpt lat="44.21019" lon="3.08782">
        <ele>635</ele>
        <time>2014-02-13T14:40:24Z</time>
      </trkpt>
      <trkpt lat="44.21021" lon="3.08783">
        <ele>635</ele>
        <time>2014-02-13T14:40:30Z</time>
      </trkpt>
      <trkpt lat="44.21022" lon="3.08777">
        <ele>634</ele>
        <time>2014-02-13T14:40:45Z</time>
      </trkpt>
      <trkpt lat="44.21028" lon="3.08776">
        <ele>635</ele>
        <time>2014-02-13T14:40:55Z</time>
      </trkpt>
      <trkpt lat="44.21033" lon="3.08776">
        <ele>635</ele>
        <time>2014-02-13T14:41:04Z</time>
      </trkpt>
      <trkpt lat="44.21038" lon="3.08778">
        <ele>635</ele>
        <time>2014-02-13T14:41:09Z</time>
      </trkpt>
      <trkpt lat="44.21042" lon="3.08775">
        <ele>633</ele>
        <time>2014-02-13T14:41:15Z</time>
      </trkpt>
      <trkpt lat="44.21041" lon="3.08769">
        <ele>633</ele>
        <time>2014-02-13T14:41:18Z</time>
      </trkpt>
      <trkpt lat="44.21038" lon="3.08763">
        <ele>630</ele>
        <time>2014-02-13T14:41:22Z</time>
      </trkpt>
      <trkpt lat="44.21034" lon="3.08757">
        <ele>629</ele>
        <time>2014-02-13T14:41:26Z</time>
      </trkpt>
      <trkpt lat="44.2103" lon="3.08752">
        <ele>627</ele>
        <time>2014-02-13T14:41:30Z</time>
      </trkpt>
      <trkpt lat="44.21025" lon="3.08748">
        <ele>626</ele>
        <time>2014-02-13T14:41:34Z</time>
      </trkpt>
      <trkpt lat="44.21021" lon="3.08743">
        <ele>625</ele>
        <time>2014-02-13T14:41:38Z</time>
      </trkpt>
      <trkpt lat="44.21017" lon="3.08738">
        <ele>624</ele>
        <time>2014-02-13T14:41:42Z</time>
      </trkpt>
      <trkpt lat="44.21012" lon="3.08734">
        <ele>623</ele>
        <time>2014-02-13T14:41:46Z</time>
      </trkpt>
      <trkpt lat="44.21007" lon="3.08731">
        <ele>621</ele>
        <time>2014-02-13T14:41:51Z</time>
      </trkpt>
      <trkpt lat="44.21002" lon="3.08727">
        <ele>620</ele>
        <time>2014-02-13T14:41:55Z</time>
      </trkpt>
      <trkpt lat="44.20998" lon="3.08722">
        <ele>620</ele>
        <time>2014-02-13T14:41:58Z</time>
      </trkpt>
      <trkpt lat="44.20994" lon="3.08719">
        <ele>620</ele>
        <time>2014-02-13T14:42:01Z</time>
      </trkpt>
      <trkpt lat="44.20989" lon="3.08714">
        <ele>620</ele>
        <time>2014-02-13T14:42:05Z</time>
      </trkpt>
      <trkpt lat="44.20985" lon="3.08709">
        <ele>619</ele>
        <time>2014-02-13T14:42:08Z</time>
      </trkpt>
      <trkpt lat="44.20982" lon="3.08704">
        <ele>619</ele>
        <time>2014-02-13T14:42:11Z</time>
      </trkpt>
      <trkpt lat="44.20979" lon="3.08699">
        <ele>619</ele>
        <time>2014-02-13T14:42:14Z</time>
      </trkpt>
      <trkpt lat="44.20975" lon="3.08695">
        <ele>619</ele>
        <time>2014-02-13T14:42:17Z</time>
      </trkpt>
      <trkpt lat="44.20971" lon="3.0869">
        <ele>619</ele>
        <time>2014-02-13T14:42:21Z</time>
      </trkpt>
      <trkpt lat="44.20966" lon="3.08687">
        <ele>618</ele>
        <time>2014-02-13T14:42:26Z</time>
      </trkpt>
      <trkpt lat="44.20961" lon="3.08685">
        <ele>618</ele>
        <time>2014-02-13T14:42:30Z</time>
      </trkpt>
      <trkpt lat="44.20956" lon="3.08682">
        <ele>617</ele>
        <time>2014-02-13T14:42:34Z</time>
      </trkpt>
      <trkpt lat="44.20951" lon="3.08679">
        <ele>616</ele>
        <time>2014-02-13T14:42:38Z</time>
      </trkpt>
      <trkpt lat="44.20947" lon="3.08676">
        <ele>616</ele>
        <time>2014-02-13T14:42:41Z</time>
      </trkpt>
      <trkpt lat="44.20943" lon="3.08673">
        <ele>615</ele>
        <time>2014-02-13T14:42:44Z</time>
      </trkpt>
      <trkpt lat="44.20938" lon="3.08669">
        <ele>615</ele>
        <time>2014-02-13T14:42:48Z</time>
      </trkpt>
      <trkpt lat="44.20934" lon="3.08663">
        <ele>614</ele>
        <time>2014-02-13T14:42:52Z</time>
      </trkpt>
      <trkpt lat="44.20931" lon="3.08659">
        <ele>613</ele>
        <time>2014-02-13T14:42:55Z</time>
      </trkpt>
      <trkpt lat="44.20928" lon="3.08654">
        <ele>612</ele>
        <time>2014-02-13T14:42:58Z</time>
      </trkpt>
      <trkpt lat="44.20924" lon="3.0865">
        <ele>611</ele>
        <time>2014-02-13T14:43:01Z</time>
      </trkpt>
      <trkpt lat="44.2092" lon="3.08645">
        <ele>610</ele>
        <time>2014-02-13T14:43:04Z</time>
      </trkpt>
      <trkpt lat="44.20916" lon="3.0864">
        <ele>611</ele>
        <time>2014-02-13T14:43:07Z</time>
      </trkpt>
      <trkpt lat="44.20912" lon="3.08637">
        <ele>611</ele>
        <time>2014-02-13T14:43:10Z</time>
      </trkpt>
      <trkpt lat="44.20908" lon="3.08633">
        <ele>611</ele>
        <time>2014-02-13T14:43:13Z</time>
      </trkpt>
      <trkpt lat="44.20905" lon="3.08629">
        <ele>611</ele>
        <time>2014-02-13T14:43:16Z</time>
      </trkpt>
      <trkpt lat="44.209" lon="3.08624">
        <ele>611</ele>
        <time>2014-02-13T14:43:20Z</time>
      </trkpt>
      <trkpt lat="44.20896" lon="3.08619">
        <ele>611</ele>
        <time>2014-02-13T14:43:24Z</time>
      </trkpt>
      <trkpt lat="44.20892" lon="3.08616">
        <ele>611</ele>
        <time>2014-02-13T14:43:26Z</time>
      </trkpt>
      <trkpt lat="44.20887" lon="3.08612">
        <ele>611</ele>
        <time>2014-02-13T14:43:29Z</time>
      </trkpt>
      <trkpt lat="44.20883" lon="3.08608">
        <ele>609</ele>
        <time>2014-02-13T14:43:34Z</time>
      </trkpt>
      <trkpt lat="44.20878" lon="3.08607">
        <ele>609</ele>
        <time>2014-02-13T14:43:38Z</time>
      </trkpt>
      <trkpt lat="44.20872" lon="3.08605">
        <ele>610</ele>
        <time>2014-02-13T14:43:41Z</time>
      </trkpt>
      <trkpt lat="44.20868" lon="3.08604">
        <ele>610</ele>
        <time>2014-02-13T14:43:44Z</time>
      </trkpt>
      <trkpt lat="44.20862" lon="3.08602">
        <ele>610</ele>
        <time>2014-02-13T14:43:48Z</time>
      </trkpt>
      <trkpt lat="44.20857" lon="3.086">
        <ele>609</ele>
        <time>2014-02-13T14:43:53Z</time>
      </trkpt>
      <trkpt lat="44.20852" lon="3.086">
        <ele>609</ele>
        <time>2014-02-13T14:43:57Z</time>
      </trkpt>
      <trkpt lat="44.20846" lon="3.086">
        <ele>609</ele>
        <time>2014-02-13T14:44:01Z</time>
      </trkpt>
      <trkpt lat="44.20842" lon="3.08602">
        <ele>609</ele>
        <time>2014-02-13T14:44:04Z</time>
      </trkpt>
      <trkpt lat="44.20837" lon="3.08607">
        <ele>610</ele>
        <time>2014-02-13T14:44:08Z</time>
      </trkpt>
      <trkpt lat="44.20833" lon="3.08613">
        <ele>610</ele>
        <time>2014-02-13T14:44:11Z</time>
      </trkpt>
      <trkpt lat="44.2083" lon="3.08618">
        <ele>611</ele>
        <time>2014-02-13T14:44:14Z</time>
      </trkpt>
      <trkpt lat="44.20826" lon="3.08622">
        <ele>611</ele>
        <time>2014-02-13T14:44:18Z</time>
      </trkpt>
      <trkpt lat="44.20821" lon="3.08624">
        <ele>611</ele>
        <time>2014-02-13T14:44:22Z</time>
      </trkpt>
      <trkpt lat="44.20816" lon="3.08624">
        <ele>611</ele>
        <time>2014-02-13T14:44:26Z</time>
      </trkpt>
      <trkpt lat="44.2081" lon="3.08626">
        <ele>611</ele>
        <time>2014-02-13T14:44:30Z</time>
      </trkpt>
      <trkpt lat="44.20805" lon="3.08626">
        <ele>610</ele>
        <time>2014-02-13T14:44:34Z</time>
      </trkpt>
      <trkpt lat="44.20801" lon="3.08626">
        <ele>609</ele>
        <time>2014-02-13T14:44:38Z</time>
      </trkpt>
      <trkpt lat="44.20796" lon="3.08629">
        <ele>610</ele>
        <time>2014-02-13T14:44:41Z</time>
      </trkpt>
      <trkpt lat="44.20791" lon="3.0863">
        <ele>611</ele>
        <time>2014-02-13T14:44:45Z</time>
      </trkpt>
      <trkpt lat="44.20785" lon="3.08633">
        <ele>611</ele>
        <time>2014-02-13T14:44:49Z</time>
      </trkpt>
      <trkpt lat="44.2078" lon="3.08633">
        <ele>610</ele>
        <time>2014-02-13T14:44:53Z</time>
      </trkpt>
      <trkpt lat="44.20776" lon="3.08631">
        <ele>609</ele>
        <time>2014-02-13T14:44:57Z</time>
      </trkpt>
      <trkpt lat="44.20771" lon="3.0863">
        <ele>609</ele>
        <time>2014-02-13T14:45:01Z</time>
      </trkpt>
      <trkpt lat="44.20767" lon="3.08635">
        <ele>610</ele>
        <time>2014-02-13T14:45:04Z</time>
      </trkpt>
      <trkpt lat="44.20765" lon="3.08637">
        <ele>610</ele>
        <time>2014-02-13T14:45:10Z</time>
      </trkpt>
      <trkpt lat="44.20762" lon="3.08642">
        <ele>611</ele>
        <time>2014-02-13T14:45:25Z</time>
      </trkpt>
      <trkpt lat="44.20758" lon="3.08645">
        <ele>613</ele>
        <time>2014-02-13T14:45:28Z</time>
      </trkpt>
      <trkpt lat="44.20753" lon="3.08647">
        <ele>614</ele>
        <time>2014-02-13T14:45:31Z</time>
      </trkpt>
      <trkpt lat="44.20748" lon="3.0865">
        <ele>616</ele>
        <time>2014-02-13T14:45:35Z</time>
      </trkpt>
      <trkpt lat="44.20744" lon="3.08654">
        <ele>616</ele>
        <time>2014-02-13T14:45:39Z</time>
      </trkpt>
      <trkpt lat="44.20737" lon="3.0866">
        <ele>616</ele>
        <time>2014-02-13T14:45:50Z</time>
      </trkpt>
      <trkpt lat="44.20733" lon="3.08667">
        <ele>618</ele>
        <time>2014-02-13T14:45:53Z</time>
      </trkpt>
      <trkpt lat="44.2073" lon="3.08671">
        <ele>618</ele>
        <time>2014-02-13T14:45:56Z</time>
      </trkpt>
      <trkpt lat="44.20726" lon="3.08675">
        <ele>619</ele>
        <time>2014-02-13T14:46:01Z</time>
      </trkpt>
      <trkpt lat="44.20722" lon="3.08681">
        <ele>618</ele>
        <time>2014-02-13T14:46:07Z</time>
      </trkpt>
      <trkpt lat="44.2072" lon="3.08689">
        <ele>618</ele>
        <time>2014-02-13T14:46:12Z</time>
      </trkpt>
      <trkpt lat="44.20719" lon="3.08696">
        <ele>618</ele>
        <time>2014-02-13T14:46:16Z</time>
      </trkpt>
      <trkpt lat="44.20718" lon="3.087">
        <ele>617</ele>
        <time>2014-02-13T14:46:24Z</time>
      </trkpt>
      <trkpt lat="44.20714" lon="3.08707">
        <ele>615</ele>
        <time>2014-02-13T14:46:35Z</time>
      </trkpt>
      <trkpt lat="44.20712" lon="3.08712">
        <ele>614</ele>
        <time>2014-02-13T14:46:39Z</time>
      </trkpt>
      <trkpt lat="44.20708" lon="3.08718">
        <ele>613</ele>
        <time>2014-02-13T14:46:43Z</time>
      </trkpt>
      <trkpt lat="44.20706" lon="3.08724">
        <ele>613</ele>
        <time>2014-02-13T14:46:47Z</time>
      </trkpt>
      <trkpt lat="44.20705" lon="3.08728">
        <ele>613</ele>
        <time>2014-02-13T14:46:54Z</time>
      </trkpt>
      <trkpt lat="44.20707" lon="3.08734">
        <ele>614</ele>
        <time>2014-02-13T14:47:10Z</time>
      </trkpt>
      <trkpt lat="44.20706" lon="3.08741">
        <ele>614</ele>
        <time>2014-02-13T14:47:14Z</time>
      </trkpt>
      <trkpt lat="44.20704" lon="3.08747">
        <ele>614</ele>
        <time>2014-02-13T14:47:17Z</time>
      </trkpt>
      <trkpt lat="44.20702" lon="3.08753">
        <ele>614</ele>
        <time>2014-02-13T14:47:20Z</time>
      </trkpt>
      <trkpt lat="44.207" lon="3.0876">
        <ele>614</ele>
        <time>2014-02-13T14:47:24Z</time>
      </trkpt>
      <trkpt lat="44.20698" lon="3.08766">
        <ele>613</ele>
        <time>2014-02-13T14:47:29Z</time>
      </trkpt>
      <trkpt lat="44.20697" lon="3.08773">
        <ele>613</ele>
        <time>2014-02-13T14:47:33Z</time>
      </trkpt>
      <trkpt lat="44.20696" lon="3.0878">
        <ele>613</ele>
        <time>2014-02-13T14:47:37Z</time>
      </trkpt>
      <trkpt lat="44.20695" lon="3.08787">
        <ele>613</ele>
        <time>2014-02-13T14:47:42Z</time>
      </trkpt>
      <trkpt lat="44.20693" lon="3.08793">
        <ele>613</ele>
        <time>2014-02-13T14:47:45Z</time>
      </trkpt>
      <trkpt lat="44.20692" lon="3.08799">
        <ele>613</ele>
        <time>2014-02-13T14:47:49Z</time>
      </trkpt>
      <trkpt lat="44.20691" lon="3.08805">
        <ele>613</ele>
        <time>2014-02-13T14:47:52Z</time>
      </trkpt>
      <trkpt lat="44.20689" lon="3.08811">
        <ele>613</ele>
        <time>2014-02-13T14:47:56Z</time>
      </trkpt>
      <trkpt lat="44.20686" lon="3.08819">
        <ele>613</ele>
        <time>2014-02-13T14:48:00Z</time>
      </trkpt>
      <trkpt lat="44.20685" lon="3.08826">
        <ele>611</ele>
        <time>2014-02-13T14:48:07Z</time>
      </trkpt>
      <trkpt lat="44.20684" lon="3.08832">
        <ele>609</ele>
        <time>2014-02-13T14:48:15Z</time>
      </trkpt>
      <trkpt lat="44.20684" lon="3.08839">
        <ele>608</ele>
        <time>2014-02-13T14:48:20Z</time>
      </trkpt>
      <trkpt lat="44.20684" lon="3.08846">
        <ele>607</ele>
        <time>2014-02-13T14:48:24Z</time>
      </trkpt>
      <trkpt lat="44.20684" lon="3.08852">
        <ele>607</ele>
        <time>2014-02-13T14:48:28Z</time>
      </trkpt>
      <trkpt lat="44.20683" lon="3.0886">
        <ele>607</ele>
        <time>2014-02-13T14:48:33Z</time>
      </trkpt>
      <trkpt lat="44.20683" lon="3.08867">
        <ele>606</ele>
        <time>2014-02-13T14:48:38Z</time>
      </trkpt>
      <trkpt lat="44.20682" lon="3.08873">
        <ele>606</ele>
        <time>2014-02-13T14:48:42Z</time>
      </trkpt>
      <trkpt lat="44.20682" lon="3.08881">
        <ele>606</ele>
        <time>2014-02-13T14:48:45Z</time>
      </trkpt>
      <trkpt lat="44.20682" lon="3.08889">
        <ele>606</ele>
        <time>2014-02-13T14:48:49Z</time>
      </trkpt>
      <trkpt lat="44.2068" lon="3.08896">
        <ele>606</ele>
        <time>2014-02-13T14:48:54Z</time>
      </trkpt>
      <trkpt lat="44.20679" lon="3.08903">
        <ele>606</ele>
        <time>2014-02-13T14:48:57Z</time>
      </trkpt>
      <trkpt lat="44.20678" lon="3.0891">
        <ele>607</ele>
        <time>2014-02-13T14:49:00Z</time>
      </trkpt>
      <trkpt lat="44.20678" lon="3.08916">
        <ele>607</ele>
        <time>2014-02-13T14:49:04Z</time>
      </trkpt>
      <trkpt lat="44.20676" lon="3.08922">
        <ele>607</ele>
        <time>2014-02-13T14:49:08Z</time>
      </trkpt>
      <trkpt lat="44.20676" lon="3.08929">
        <ele>605</ele>
        <time>2014-02-13T14:49:13Z</time>
      </trkpt>
      <trkpt lat="44.20675" lon="3.08936">
        <ele>604</ele>
        <time>2014-02-13T14:49:18Z</time>
      </trkpt>
      <trkpt lat="44.20673" lon="3.08942">
        <ele>601</ele>
        <time>2014-02-13T14:49:22Z</time>
      </trkpt>
      <trkpt lat="44.20672" lon="3.08948">
        <ele>599</ele>
        <time>2014-02-13T14:49:25Z</time>
      </trkpt>
      <trkpt lat="44.2067" lon="3.08955">
        <ele>597</ele>
        <time>2014-02-13T14:49:30Z</time>
      </trkpt>
      <trkpt lat="44.20671" lon="3.08963">
        <ele>597</ele>
        <time>2014-02-13T14:49:36Z</time>
      </trkpt>
      <trkpt lat="44.20671" lon="3.0897">
        <ele>596</ele>
        <time>2014-02-13T14:49:41Z</time>
      </trkpt>
      <trkpt lat="44.20672" lon="3.08976">
        <ele>596</ele>
        <time>2014-02-13T14:49:46Z</time>
      </trkpt>
      <trkpt lat="44.20673" lon="3.08983">
        <ele>597</ele>
        <time>2014-02-13T14:49:53Z</time>
      </trkpt>
      <trkpt lat="44.20674" lon="3.08986">
        <ele>597</ele>
        <time>2014-02-13T14:50:13Z</time>
      </trkpt>
      <trkpt lat="44.20672" lon="3.08992">
        <ele>597</ele>
        <time>2014-02-13T14:50:20Z</time>
      </trkpt>
      <trkpt lat="44.2067" lon="3.08999">
        <ele>596</ele>
        <time>2014-02-13T14:50:24Z</time>
      </trkpt>
      <trkpt lat="44.20667" lon="3.09004">
        <ele>596</ele>
        <time>2014-02-13T14:50:28Z</time>
      </trkpt>
      <trkpt lat="44.20668" lon="3.09011">
        <ele>595</ele>
        <time>2014-02-13T14:50:36Z</time>
      </trkpt>
      <trkpt lat="44.20668" lon="3.09018">
        <ele>594</ele>
        <time>2014-02-13T14:50:42Z</time>
      </trkpt>
      <trkpt lat="44.20666" lon="3.09026">
        <ele>595</ele>
        <time>2014-02-13T14:50:51Z</time>
      </trkpt>
      <trkpt lat="44.20666" lon="3.09032">
        <ele>597</ele>
        <time>2014-02-13T14:50:56Z</time>
      </trkpt>
      <trkpt lat="44.20667" lon="3.09038">
        <ele>597</ele>
        <time>2014-02-13T14:51:01Z</time>
      </trkpt>
      <trkpt lat="44.20667" lon="3.09045">
        <ele>598</ele>
        <time>2014-02-13T14:51:06Z</time>
      </trkpt>
      <trkpt lat="44.20666" lon="3.09052">
        <ele>598</ele>
        <time>2014-02-13T14:51:11Z</time>
      </trkpt>
      <trkpt lat="44.20666" lon="3.09059">
        <ele>597</ele>
        <time>2014-02-13T14:51:15Z</time>
      </trkpt>
      <trkpt lat="44.20666" lon="3.09065">
        <ele>596</ele>
        <time>2014-02-13T14:51:19Z</time>
      </trkpt>
      <trkpt lat="44.20666" lon="3.09072">
        <ele>596</ele>
        <time>2014-02-13T14:51:23Z</time>
      </trkpt>
      <trkpt lat="44.20667" lon="3.0908">
        <ele>595</ele>
        <time>2014-02-13T14:51:27Z</time>
      </trkpt>
      <trkpt lat="44.20668" lon="3.09086">
        <ele>594</ele>
        <time>2014-02-13T14:51:30Z</time>
      </trkpt>
      <trkpt lat="44.20669" lon="3.09094">
        <ele>593</ele>
        <time>2014-02-13T14:51:34Z</time>
      </trkpt>
      <trkpt lat="44.2067" lon="3.09101">
        <ele>592</ele>
        <time>2014-02-13T14:51:37Z</time>
      </trkpt>
      <trkpt lat="44.20671" lon="3.09109">
        <ele>592</ele>
        <time>2014-02-13T14:51:41Z</time>
      </trkpt>
      <trkpt lat="44.20673" lon="3.09115">
        <ele>592</ele>
        <time>2014-02-13T14:51:45Z</time>
      </trkpt>
      <trkpt lat="44.20674" lon="3.09123">
        <ele>592</ele>
        <time>2014-02-13T14:51:50Z</time>
      </trkpt>
      <trkpt lat="44.20676" lon="3.09129">
        <ele>592</ele>
        <time>2014-02-13T14:51:54Z</time>
      </trkpt>
      <trkpt lat="44.20679" lon="3.09135">
        <ele>592</ele>
        <time>2014-02-13T14:51:59Z</time>
      </trkpt>
      <trkpt lat="44.20681" lon="3.09142">
        <ele>592</ele>
        <time>2014-02-13T14:52:03Z</time>
      </trkpt>
      <trkpt lat="44.20683" lon="3.09148">
        <ele>592</ele>
        <time>2014-02-13T14:52:06Z</time>
      </trkpt>
      <trkpt lat="44.20684" lon="3.09154">
        <ele>592</ele>
        <time>2014-02-13T14:52:12Z</time>
      </trkpt>
      <trkpt lat="44.20686" lon="3.09161">
        <ele>592</ele>
        <time>2014-02-13T14:52:17Z</time>
      </trkpt>
      <trkpt lat="44.20685" lon="3.09168">
        <ele>592</ele>
        <time>2014-02-13T14:52:21Z</time>
      </trkpt>
      <trkpt lat="44.20688" lon="3.09175">
        <ele>592</ele>
        <time>2014-02-13T14:52:24Z</time>
      </trkpt>
      <trkpt lat="44.20692" lon="3.09181">
        <ele>592</ele>
        <time>2014-02-13T14:52:26Z</time>
      </trkpt>
      <trkpt lat="44.20694" lon="3.09185">
        <ele>592</ele>
        <time>2014-02-13T14:52:27Z</time>
      </trkpt>
      <trkpt lat="44.20695" lon="3.09188">
        <ele>592</ele>
        <time>2014-02-13T14:52:28Z</time>
      </trkpt>
      <trkpt lat="44.20696" lon="3.09194">
        <ele>593</ele>
        <time>2014-02-13T14:52:30Z</time>
      </trkpt>
      <trkpt lat="44.20694" lon="3.09202">
        <ele>593</ele>
        <time>2014-02-13T14:52:34Z</time>
      </trkpt>
      <trkpt lat="44.20691" lon="3.09209">
        <ele>593</ele>
        <time>2014-02-13T14:52:38Z</time>
      </trkpt>
      <trkpt lat="44.20693" lon="3.09215">
        <ele>594</ele>
        <time>2014-02-13T14:52:42Z</time>
      </trkpt>
      <trkpt lat="44.20698" lon="3.0922">
        <ele>593</ele>
        <time>2014-02-13T14:52:46Z</time>
      </trkpt>
      <trkpt lat="44.20701" lon="3.09225">
        <ele>593</ele>
        <time>2014-02-13T14:52:48Z</time>
      </trkpt>
      <trkpt lat="44.20704" lon="3.09232">
        <ele>592</ele>
        <time>2014-02-13T14:52:50Z</time>
      </trkpt>
      <trkpt lat="44.20705" lon="3.09238">
        <ele>592</ele>
        <time>2014-02-13T14:52:52Z</time>
      </trkpt>
      <trkpt lat="44.20707" lon="3.09247">
        <ele>591</ele>
        <time>2014-02-13T14:52:55Z</time>
      </trkpt>
      <trkpt lat="44.20711" lon="3.09254">
        <ele>591</ele>
        <time>2014-02-13T14:52:57Z</time>
      </trkpt>
      <trkpt lat="44.20716" lon="3.09257">
        <ele>590</ele>
        <time>2014-02-13T14:53:00Z</time>
      </trkpt>
      <trkpt lat="44.20714" lon="3.09263">
        <ele>590</ele>
        <time>2014-02-13T14:53:04Z</time>
      </trkpt>
      <trkpt lat="44.20711" lon="3.09269">
        <ele>590</ele>
        <time>2014-02-13T14:53:06Z</time>
      </trkpt>
      <trkpt lat="44.20706" lon="3.09272">
        <ele>589</ele>
        <time>2014-02-13T14:53:09Z</time>
      </trkpt>
      <trkpt lat="44.20702" lon="3.09268">
        <ele>587</ele>
        <time>2014-02-13T14:53:11Z</time>
      </trkpt>
      <trkpt lat="44.20698" lon="3.09263">
        <ele>586</ele>
        <time>2014-02-13T14:53:13Z</time>
      </trkpt>
      <trkpt lat="44.20694" lon="3.09259">
        <ele>583</ele>
        <time>2014-02-13T14:53:17Z</time>
      </trkpt>
      <trkpt lat="44.20689" lon="3.09258">
        <ele>581</ele>
        <time>2014-02-13T14:53:20Z</time>
      </trkpt>
      <trkpt lat="44.20686" lon="3.0926">
        <ele>579</ele>
        <time>2014-02-13T14:53:42Z</time>
      </trkpt>
      <trkpt lat="44.20682" lon="3.09265">
        <ele>580</ele>
        <time>2014-02-13T14:53:46Z</time>
      </trkpt>
      <trkpt lat="44.20679" lon="3.0926">
        <ele>579</ele>
        <time>2014-02-13T14:54:00Z</time>
      </trkpt>
      <trkpt lat="44.20675" lon="3.09263">
        <ele>577</ele>
        <time>2014-02-13T14:54:06Z</time>
      </trkpt>
      <trkpt lat="44.2067" lon="3.09263">
        <ele>576</ele>
        <time>2014-02-13T14:54:09Z</time>
      </trkpt>
      <trkpt lat="44.20664" lon="3.09262">
        <ele>576</ele>
        <time>2014-02-13T14:54:12Z</time>
      </trkpt>
      <trkpt lat="44.20659" lon="3.0926">
        <ele>575</ele>
        <time>2014-02-13T14:54:17Z</time>
      </trkpt>
      <trkpt lat="44.20656" lon="3.09265">
        <ele>575</ele>
        <time>2014-02-13T14:54:22Z</time>
      </trkpt>
      <trkpt lat="44.20654" lon="3.0927">
        <ele>575</ele>
        <time>2014-02-13T14:54:24Z</time>
      </trkpt>
      <trkpt lat="44.20649" lon="3.09273">
        <ele>575</ele>
        <time>2014-02-13T14:54:27Z</time>
      </trkpt>
      <trkpt lat="44.20645" lon="3.09271">
        <ele>576</ele>
        <time>2014-02-13T14:54:30Z</time>
      </trkpt>
      <trkpt lat="44.2064" lon="3.0927">
        <ele>576</ele>
        <time>2014-02-13T14:54:33Z</time>
      </trkpt>
      <trkpt lat="44.20635" lon="3.0927">
        <ele>576</ele>
        <time>2014-02-13T14:54:35Z</time>
      </trkpt>
      <trkpt lat="44.20627" lon="3.0927">
        <ele>577</ele>
        <time>2014-02-13T14:54:41Z</time>
      </trkpt>
      <trkpt lat="44.20621" lon="3.09269">
        <ele>577</ele>
        <time>2014-02-13T14:54:53Z</time>
      </trkpt>
      <trkpt lat="44.20616" lon="3.09273">
        <ele>577</ele>
        <time>2014-02-13T14:54:59Z</time>
      </trkpt>
      <trkpt lat="44.20612" lon="3.09278">
        <ele>577</ele>
        <time>2014-02-13T14:55:04Z</time>
      </trkpt>
      <trkpt lat="44.20608" lon="3.09283">
        <ele>577</ele>
        <time>2014-02-13T14:55:07Z</time>
      </trkpt>
      <trkpt lat="44.20604" lon="3.09287">
        <ele>578</ele>
        <time>2014-02-13T14:55:10Z</time>
      </trkpt>
      <trkpt lat="44.206" lon="3.09291">
        <ele>579</ele>
        <time>2014-02-13T14:55:14Z</time>
      </trkpt>
      <trkpt lat="44.20596" lon="3.09294">
        <ele>580</ele>
        <time>2014-02-13T14:55:19Z</time>
      </trkpt>
      <trkpt lat="44.20591" lon="3.09295">
        <ele>581</ele>
        <time>2014-02-13T14:55:24Z</time>
      </trkpt>
      <trkpt lat="44.20587" lon="3.093">
        <ele>581</ele>
        <time>2014-02-13T14:55:29Z</time>
      </trkpt>
      <trkpt lat="44.20582" lon="3.09304">
        <ele>581</ele>
        <time>2014-02-13T14:55:33Z</time>
      </trkpt>
      <trkpt lat="44.20577" lon="3.09309">
        <ele>581</ele>
        <time>2014-02-13T14:55:37Z</time>
      </trkpt>
      <trkpt lat="44.20573" lon="3.09313">
        <ele>582</ele>
        <time>2014-02-13T14:55:40Z</time>
      </trkpt>
      <trkpt lat="44.20569" lon="3.09319">
        <ele>581</ele>
        <time>2014-02-13T14:55:44Z</time>
      </trkpt>
      <trkpt lat="44.20565" lon="3.09325">
        <ele>580</ele>
        <time>2014-02-13T14:55:49Z</time>
      </trkpt>
      <trkpt lat="44.20561" lon="3.09329">
        <ele>579</ele>
        <time>2014-02-13T14:55:53Z</time>
      </trkpt>
      <trkpt lat="44.20557" lon="3.09335">
        <ele>578</ele>
        <time>2014-02-13T14:55:57Z</time>
      </trkpt>
      <trkpt lat="44.20554" lon="3.09339">
        <ele>577</ele>
        <time>2014-02-13T14:56:01Z</time>
      </trkpt>
      <trkpt lat="44.2055" lon="3.09345">
        <ele>576</ele>
        <time>2014-02-13T14:56:05Z</time>
      </trkpt>
      <trkpt lat="44.20546" lon="3.09348">
        <ele>575</ele>
        <time>2014-02-13T14:56:10Z</time>
      </trkpt>
      <trkpt lat="44.20542" lon="3.09352">
        <ele>574</ele>
        <time>2014-02-13T14:56:14Z</time>
      </trkpt>
      <trkpt lat="44.20539" lon="3.09357">
        <ele>573</ele>
        <time>2014-02-13T14:56:18Z</time>
      </trkpt>
      <trkpt lat="44.20536" lon="3.09362">
        <ele>572</ele>
        <time>2014-02-13T14:56:22Z</time>
      </trkpt>
      <trkpt lat="44.20532" lon="3.09368">
        <ele>571</ele>
        <time>2014-02-13T14:56:26Z</time>
      </trkpt>
      <trkpt lat="44.2053" lon="3.09375">
        <ele>570</ele>
        <time>2014-02-13T14:56:29Z</time>
      </trkpt>
      <trkpt lat="44.2053" lon="3.09382">
        <ele>569</ele>
        <time>2014-02-13T14:56:32Z</time>
      </trkpt>
      <trkpt lat="44.20529" lon="3.09389">
        <ele>569</ele>
        <time>2014-02-13T14:56:35Z</time>
      </trkpt>
      <trkpt lat="44.20529" lon="3.09396">
        <ele>568</ele>
        <time>2014-02-13T14:56:38Z</time>
      </trkpt>
      <trkpt lat="44.20528" lon="3.09403">
        <ele>568</ele>
        <time>2014-02-13T14:56:41Z</time>
      </trkpt>
      <trkpt lat="44.20528" lon="3.09411">
        <ele>568</ele>
        <time>2014-02-13T14:56:45Z</time>
      </trkpt>
      <trkpt lat="44.2053" lon="3.09418">
        <ele>567</ele>
        <time>2014-02-13T14:56:48Z</time>
      </trkpt>
      <trkpt lat="44.20532" lon="3.09427">
        <ele>567</ele>
        <time>2014-02-13T14:56:51Z</time>
      </trkpt>
      <trkpt lat="44.20533" lon="3.09435">
        <ele>567</ele>
        <time>2014-02-13T14:56:54Z</time>
      </trkpt>
      <trkpt lat="44.20533" lon="3.09442">
        <ele>568</ele>
        <time>2014-02-13T14:56:57Z</time>
      </trkpt>
      <trkpt lat="44.20532" lon="3.09449">
        <ele>568</ele>
        <time>2014-02-13T14:57:01Z</time>
      </trkpt>
      <trkpt lat="44.20532" lon="3.09456">
        <ele>567</ele>
        <time>2014-02-13T14:57:07Z</time>
      </trkpt>
      <trkpt lat="44.20533" lon="3.09463">
        <ele>566</ele>
        <time>2014-02-13T14:57:16Z</time>
      </trkpt>
      <trkpt lat="44.2053" lon="3.09463">
        <ele>565</ele>
        <time>2014-02-13T14:57:32Z</time>
      </trkpt>
      <trkpt lat="44.20523" lon="3.09455">
        <ele>565</ele>
        <time>2014-02-13T14:57:42Z</time>
      </trkpt>
      <trkpt lat="44.20515" lon="3.09457">
        <ele>566</ele>
        <time>2014-02-13T14:57:54Z</time>
      </trkpt>
      <trkpt lat="44.20511" lon="3.09453">
        <ele>566</ele>
        <time>2014-02-13T14:57:58Z</time>
      </trkpt>
      <trkpt lat="44.20506" lon="3.0945">
        <ele>566</ele>
        <time>2014-02-13T14:58:02Z</time>
      </trkpt>
      <trkpt lat="44.20501" lon="3.0945">
        <ele>566</ele>
        <time>2014-02-13T14:58:07Z</time>
      </trkpt>
      <trkpt lat="44.20497" lon="3.09448">
        <ele>566</ele>
        <time>2014-02-13T14:58:14Z</time>
      </trkpt>
      <trkpt lat="44.20492" lon="3.09449">
        <ele>566</ele>
        <time>2014-02-13T14:58:18Z</time>
      </trkpt>
      <trkpt lat="44.20488" lon="3.09452">
        <ele>565</ele>
        <time>2014-02-13T14:58:24Z</time>
      </trkpt>
      <trkpt lat="44.20484" lon="3.09458">
        <ele>566</ele>
        <time>2014-02-13T14:58:28Z</time>
      </trkpt>
      <trkpt lat="44.20482" lon="3.09464">
        <ele>566</ele>
        <time>2014-02-13T14:58:31Z</time>
      </trkpt>
      <trkpt lat="44.20478" lon="3.0947">
        <ele>566</ele>
        <time>2014-02-13T14:58:34Z</time>
      </trkpt>
      <trkpt lat="44.20474" lon="3.09471">
        <ele>566</ele>
        <time>2014-02-13T14:58:37Z</time>
      </trkpt>
      <trkpt lat="44.20468" lon="3.09472">
        <ele>566</ele>
        <time>2014-02-13T14:58:41Z</time>
      </trkpt>
      <trkpt lat="44.20463" lon="3.09475">
        <ele>566</ele>
        <time>2014-02-13T14:58:45Z</time>
      </trkpt>
      <trkpt lat="44.20461" lon="3.0948">
        <ele>566</ele>
        <time>2014-02-13T14:58:48Z</time>
      </trkpt>
      <trkpt lat="44.20455" lon="3.0949">
        <ele>566</ele>
        <time>2014-02-13T14:58:54Z</time>
      </trkpt>
      <trkpt lat="44.20451" lon="3.09493">
        <ele>567</ele>
        <time>2014-02-13T14:59:00Z</time>
      </trkpt>
      <trkpt lat="44.20442" lon="3.0949">
        <ele>569</ele>
        <time>2014-02-13T14:59:09Z</time>
      </trkpt>
      <trkpt lat="44.20436" lon="3.09492">
        <ele>569</ele>
        <time>2014-02-13T14:59:12Z</time>
      </trkpt>
      <trkpt lat="44.20432" lon="3.09493">
        <ele>570</ele>
        <time>2014-02-13T14:59:15Z</time>
      </trkpt>
      <trkpt lat="44.20428" lon="3.09497">
        <ele>570</ele>
        <time>2014-02-13T14:59:21Z</time>
      </trkpt>
      <trkpt lat="44.20424" lon="3.095">
        <ele>570</ele>
        <time>2014-02-13T14:59:28Z</time>
      </trkpt>
      <trkpt lat="44.20419" lon="3.09502">
        <ele>570</ele>
        <time>2014-02-13T14:59:33Z</time>
      </trkpt>
      <trkpt lat="44.20414" lon="3.09499">
        <ele>570</ele>
        <time>2014-02-13T14:59:38Z</time>
      </trkpt>
      <trkpt lat="44.20409" lon="3.09501">
        <ele>570</ele>
        <time>2014-02-13T14:59:43Z</time>
      </trkpt>
      <trkpt lat="44.20407" lon="3.09508">
        <ele>570</ele>
        <time>2014-02-13T14:59:55Z</time>
      </trkpt>
      <trkpt lat="44.20402" lon="3.09507">
        <ele>571</ele>
        <time>2014-02-13T15:00:01Z</time>
      </trkpt>
      <trkpt lat="44.20401" lon="3.095">
        <ele>571</ele>
        <time>2014-02-13T15:00:08Z</time>
      </trkpt>
      <trkpt lat="44.20398" lon="3.09496">
        <ele>570</ele>
        <time>2014-02-13T15:00:22Z</time>
      </trkpt>
      <trkpt lat="44.20394" lon="3.09498">
        <ele>570</ele>
        <time>2014-02-13T15:00:27Z</time>
      </trkpt>
      <trkpt lat="44.20388" lon="3.095">
        <ele>570</ele>
        <time>2014-02-13T15:00:32Z</time>
      </trkpt>
      <trkpt lat="44.20383" lon="3.095">
        <ele>570</ele>
        <time>2014-02-13T15:00:36Z</time>
      </trkpt>
      <trkpt lat="44.20377" lon="3.095">
        <ele>571</ele>
        <time>2014-02-13T15:00:42Z</time>
      </trkpt>
      <trkpt lat="44.20373" lon="3.09498">
        <ele>572</ele>
        <time>2014-02-13T15:00:45Z</time>
      </trkpt>
      <trkpt lat="44.20368" lon="3.09496">
        <ele>573</ele>
        <time>2014-02-13T15:00:49Z</time>
      </trkpt>
      <trkpt lat="44.20363" lon="3.09496">
        <ele>573</ele>
        <time>2014-02-13T15:00:55Z</time>
      </trkpt>
      <trkpt lat="44.20358" lon="3.09498">
        <ele>574</ele>
        <time>2014-02-13T15:00:59Z</time>
      </trkpt>
      <trkpt lat="44.20354" lon="3.09498">
        <ele>574</ele>
        <time>2014-02-13T15:01:03Z</time>
      </trkpt>
      <trkpt lat="44.20349" lon="3.09499">
        <ele>575</ele>
        <time>2014-02-13T15:01:08Z</time>
      </trkpt>
      <trkpt lat="44.20345" lon="3.09504">
        <ele>575</ele>
        <time>2014-02-13T15:01:13Z</time>
      </trkpt>
      <trkpt lat="44.20341" lon="3.09507">
        <ele>576</ele>
        <time>2014-02-13T15:01:21Z</time>
      </trkpt>
      <trkpt lat="44.20339" lon="3.09509">
        <ele>578</ele>
        <time>2014-02-13T15:01:37Z</time>
      </trkpt>
      <trkpt lat="44.20334" lon="3.09511">
        <ele>579</ele>
        <time>2014-02-13T15:01:45Z</time>
      </trkpt>
      <trkpt lat="44.2033" lon="3.09513">
        <ele>579</ele>
        <time>2014-02-13T15:01:48Z</time>
      </trkpt>
      <trkpt lat="44.20325" lon="3.09515">
        <ele>580</ele>
        <time>2014-02-13T15:01:52Z</time>
      </trkpt>
      <trkpt lat="44.20319" lon="3.09514">
        <ele>580</ele>
        <time>2014-02-13T15:01:57Z</time>
      </trkpt>
      <trkpt lat="44.20315" lon="3.0951">
        <ele>580</ele>
        <time>2014-02-13T15:02:00Z</time>
      </trkpt>
      <trkpt lat="44.20311" lon="3.09506">
        <ele>580</ele>
        <time>2014-02-13T15:02:03Z</time>
      </trkpt>
      <trkpt lat="44.20306" lon="3.09504">
        <ele>581</ele>
        <time>2014-02-13T15:02:08Z</time>
      </trkpt>
      <trkpt lat="44.20303" lon="3.095">
        <ele>581</ele>
        <time>2014-02-13T15:02:18Z</time>
      </trkpt>
      <trkpt lat="44.203" lon="3.09505">
        <ele>582</ele>
        <time>2014-02-13T15:02:32Z</time>
      </trkpt>
      <trkpt lat="44.20299" lon="3.09511">
        <ele>583</ele>
        <time>2014-02-13T15:02:37Z</time>
      </trkpt>
      <trkpt lat="44.20297" lon="3.09517">
        <ele>583</ele>
        <time>2014-02-13T15:02:44Z</time>
      </trkpt>
      <trkpt lat="44.20292" lon="3.09518">
        <ele>583</ele>
        <time>2014-02-13T15:02:49Z</time>
      </trkpt>
      <trkpt lat="44.20287" lon="3.09518">
        <ele>584</ele>
        <time>2014-02-13T15:02:54Z</time>
      </trkpt>
      <trkpt lat="44.20282" lon="3.09521">
        <ele>584</ele>
        <time>2014-02-13T15:03:00Z</time>
      </trkpt>
      <trkpt lat="44.20277" lon="3.09523">
        <ele>586</ele>
        <time>2014-02-13T15:03:07Z</time>
      </trkpt>
      <trkpt lat="44.20267" lon="3.09522">
        <ele>592</ele>
        <time>2014-02-13T15:03:20Z</time>
      </trkpt>
      <trkpt lat="44.20262" lon="3.09519">
        <ele>592</ele>
        <time>2014-02-13T15:03:24Z</time>
      </trkpt>
      <trkpt lat="44.20258" lon="3.09521">
        <ele>594</ele>
        <time>2014-02-13T15:03:28Z</time>
      </trkpt>
      <trkpt lat="44.20257" lon="3.09527">
        <ele>596</ele>
        <time>2014-02-13T15:03:33Z</time>
      </trkpt>
      <trkpt lat="44.20258" lon="3.09533">
        <ele>598</ele>
        <time>2014-02-13T15:03:38Z</time>
      </trkpt>
      <trkpt lat="44.20253" lon="3.09537">
        <ele>599</ele>
        <time>2014-02-13T15:03:45Z</time>
      </trkpt>
      <trkpt lat="44.20251" lon="3.09543">
        <ele>600</ele>
        <time>2014-02-13T15:03:47Z</time>
      </trkpt>
      <trkpt lat="44.20246" lon="3.09546">
        <ele>601</ele>
        <time>2014-02-13T15:03:50Z</time>
      </trkpt>
      <trkpt lat="44.20241" lon="3.09546">
        <ele>601</ele>
        <time>2014-02-13T15:03:54Z</time>
      </trkpt>
      <trkpt lat="44.20245" lon="3.09553">
        <ele>601</ele>
        <time>2014-02-13T15:04:01Z</time>
      </trkpt>
      <trkpt lat="44.20241" lon="3.09558">
        <ele>601</ele>
        <time>2014-02-13T15:04:06Z</time>
      </trkpt>
      <trkpt lat="44.20239" lon="3.09565">
        <ele>601</ele>
        <time>2014-02-13T15:04:12Z</time>
      </trkpt>
      <trkpt lat="44.20239" lon="3.09573">
        <ele>601</ele>
        <time>2014-02-13T15:04:15Z</time>
      </trkpt>
      <trkpt lat="44.20236" lon="3.09578">
        <ele>601</ele>
        <time>2014-02-13T15:04:20Z</time>
      </trkpt>
      <trkpt lat="44.20231" lon="3.0958">
        <ele>601</ele>
        <time>2014-02-13T15:04:23Z</time>
      </trkpt>
      <trkpt lat="44.20226" lon="3.0958">
        <ele>601</ele>
        <time>2014-02-13T15:04:27Z</time>
      </trkpt>
      <trkpt lat="44.20221" lon="3.09579">
        <ele>602</ele>
        <time>2014-02-13T15:04:31Z</time>
      </trkpt>
      <trkpt lat="44.20217" lon="3.0958">
        <ele>603</ele>
        <time>2014-02-13T15:04:38Z</time>
      </trkpt>
      <trkpt lat="44.20213" lon="3.09585">
        <ele>603</ele>
        <time>2014-02-13T15:04:41Z</time>
      </trkpt>
      <trkpt lat="44.2021" lon="3.0959">
        <ele>604</ele>
        <time>2014-02-13T15:04:45Z</time>
      </trkpt>
      <trkpt lat="44.20206" lon="3.09594">
        <ele>604</ele>
        <time>2014-02-13T15:04:49Z</time>
      </trkpt>
      <trkpt lat="44.20204" lon="3.09602">
        <ele>604</ele>
        <time>2014-02-13T15:04:53Z</time>
      </trkpt>
      <trkpt lat="44.20203" lon="3.09608">
        <ele>605</ele>
        <time>2014-02-13T15:04:56Z</time>
      </trkpt>
      <trkpt lat="44.20198" lon="3.09607">
        <ele>606</ele>
        <time>2014-02-13T15:05:04Z</time>
      </trkpt>
      <trkpt lat="44.20194" lon="3.09602">
        <ele>607</ele>
        <time>2014-02-13T15:05:08Z</time>
      </trkpt>
      <trkpt lat="44.20189" lon="3.096">
        <ele>609</ele>
        <time>2014-02-13T15:05:12Z</time>
      </trkpt>
      <trkpt lat="44.20184" lon="3.09599">
        <ele>611</ele>
        <time>2014-02-13T15:05:19Z</time>
      </trkpt>
      <trkpt lat="44.20179" lon="3.09598">
        <ele>613</ele>
        <time>2014-02-13T15:05:24Z</time>
      </trkpt>
      <trkpt lat="44.20174" lon="3.09598">
        <ele>615</ele>
        <time>2014-02-13T15:05:31Z</time>
      </trkpt>
      <trkpt lat="44.20169" lon="3.09597">
        <ele>617</ele>
        <time>2014-02-13T15:05:39Z</time>
      </trkpt>
      <trkpt lat="44.20165" lon="3.09593">
        <ele>618</ele>
        <time>2014-02-13T15:05:44Z</time>
      </trkpt>
      <trkpt lat="44.20161" lon="3.09588">
        <ele>619</ele>
        <time>2014-02-13T15:05:50Z</time>
      </trkpt>
      <trkpt lat="44.20158" lon="3.09583">
        <ele>619</ele>
        <time>2014-02-13T15:05:55Z</time>
      </trkpt>
      <trkpt lat="44.20153" lon="3.09581">
        <ele>618</ele>
        <time>2014-02-13T15:06:02Z</time>
      </trkpt>
      <trkpt lat="44.20149" lon="3.09578">
        <ele>617</ele>
        <time>2014-02-13T15:06:09Z</time>
      </trkpt>
      <trkpt lat="44.20148" lon="3.09573">
        <ele>617</ele>
        <time>2014-02-13T15:06:18Z</time>
      </trkpt>
      <trkpt lat="44.20148" lon="3.09563">
        <ele>617</ele>
        <time>2014-02-13T15:06:28Z</time>
      </trkpt>
      <trkpt lat="44.20152" lon="3.09558">
        <ele>617</ele>
        <time>2014-02-13T15:06:32Z</time>
      </trkpt>
      <trkpt lat="44.20152" lon="3.0955">
        <ele>617</ele>
        <time>2014-02-13T15:06:36Z</time>
      </trkpt>
      <trkpt lat="44.20153" lon="3.09544">
        <ele>616</ele>
        <time>2014-02-13T15:06:41Z</time>
      </trkpt>
      <trkpt lat="44.20156" lon="3.09539">
        <ele>617</ele>
        <time>2014-02-13T15:06:52Z</time>
      </trkpt>
      <trkpt lat="44.20147" lon="3.09535">
        <ele>617</ele>
        <time>2014-02-13T15:06:58Z</time>
      </trkpt>
      <trkpt lat="44.20151" lon="3.09537">
        <ele>618</ele>
        <time>2014-02-13T15:07:09Z</time>
      </trkpt>
      <trkpt lat="44.20155" lon="3.09533">
        <ele>618</ele>
        <time>2014-02-13T15:07:12Z</time>
      </trkpt>
      <trkpt lat="44.2016" lon="3.09529">
        <ele>619</ele>
        <time>2014-02-13T15:07:15Z</time>
      </trkpt>
      <trkpt lat="44.20165" lon="3.09525">
        <ele>619</ele>
        <time>2014-02-13T15:07:17Z</time>
      </trkpt>
      <trkpt lat="44.2017" lon="3.09522">
        <ele>620</ele>
        <time>2014-02-13T15:07:19Z</time>
      </trkpt>
      <trkpt lat="44.20177" lon="3.09517">
        <ele>620</ele>
        <time>2014-02-13T15:07:21Z</time>
      </trkpt>
      <trkpt lat="44.2018" lon="3.09515">
        <ele>620</ele>
        <time>2014-02-13T15:07:22Z</time>
      </trkpt>
      <trkpt lat="44.20184" lon="3.09513">
        <ele>620</ele>
        <time>2014-02-13T15:07:23Z</time>
      </trkpt>
      <trkpt lat="44.20187" lon="3.09512">
        <ele>619</ele>
        <time>2014-02-13T15:07:24Z</time>
      </trkpt>
      <trkpt lat="44.20189" lon="3.09511">
        <ele>619</ele>
        <time>2014-02-13T15:07:25Z</time>
      </trkpt>
      <trkpt lat="44.2019" lon="3.09506">
        <ele>619</ele>
        <time>2014-02-13T15:07:30Z</time>
      </trkpt>
      <trkpt lat="44.20178" lon="3.09498">
        <ele>620</ele>
        <time>2014-02-13T15:07:37Z</time>
      </trkpt>
      <trkpt lat="44.20177" lon="3.09491">
        <ele>620</ele>
        <time>2014-02-13T15:07:40Z</time>
      </trkpt>
      <trkpt lat="44.20176" lon="3.09482">
        <ele>621</ele>
        <time>2014-02-13T15:07:43Z</time>
      </trkpt>
      <trkpt lat="44.20176" lon="3.09475">
        <ele>621</ele>
        <time>2014-02-13T15:07:46Z</time>
      </trkpt>
      <trkpt lat="44.20175" lon="3.09467">
        <ele>621</ele>
        <time>2014-02-13T15:07:50Z</time>
      </trkpt>
      <trkpt lat="44.20177" lon="3.09461">
        <ele>622</ele>
        <time>2014-02-13T15:07:56Z</time>
      </trkpt>
      <trkpt lat="44.20175" lon="3.09454">
        <ele>623</ele>
        <time>2014-02-13T15:08:02Z</time>
      </trkpt>
      <trkpt lat="44.20175" lon="3.09457">
        <ele>624</ele>
        <time>2014-02-13T15:08:20Z</time>
      </trkpt>
      <trkpt lat="44.2018" lon="3.09458">
        <ele>624</ele>
        <time>2014-02-13T15:08:29Z</time>
      </trkpt>
      <trkpt lat="44.20181" lon="3.09462">
        <ele>623</ele>
        <time>2014-02-13T15:08:37Z</time>
      </trkpt>
      <trkpt lat="44.20186" lon="3.09463">
        <ele>623</ele>
        <time>2014-02-13T15:09:02Z</time>
      </trkpt>
      <trkpt lat="44.2019" lon="3.09461">
        <ele>623</ele>
        <time>2014-02-13T15:10:02Z</time>
      </trkpt>
      <trkpt lat="44.20187" lon="3.09462">
        <ele>623</ele>
        <time>2014-02-13T15:10:40Z</time>
      </trkpt>
      <trkpt lat="44.20189" lon="3.09475">
        <ele>624</ele>
        <time>2014-02-13T15:10:44Z</time>
      </trkpt>
      <trkpt lat="44.20193" lon="3.09486">
        <ele>624</ele>
        <time>2014-02-13T15:10:46Z</time>
      </trkpt>
      <trkpt lat="44.20197" lon="3.09491">
        <ele>624</ele>
        <time>2014-02-13T15:10:47Z</time>
      </trkpt>
      <trkpt lat="44.20197" lon="3.09476">
        <ele>624</ele>
        <time>2014-02-13T15:10:55Z</time>
      </trkpt>
      <trkpt lat="44.20192" lon="3.09477">
        <ele>624</ele>
        <time>2014-02-13T15:10:56Z</time>
      </trkpt>
      <trkpt lat="44.20188" lon="3.09479">
        <ele>624</ele>
        <time>2014-02-13T15:10:57Z</time>
      </trkpt>
      <trkpt lat="44.20184" lon="3.09483">
        <ele>625</ele>
        <time>2014-02-13T15:10:59Z</time>
      </trkpt>
      <trkpt lat="44.20186" lon="3.09492">
        <ele>624</ele>
        <time>2014-02-13T15:11:05Z</time>
      </trkpt>
      <trkpt lat="44.202" lon="3.09485">
        <ele>624</ele>
        <time>2014-02-13T15:11:14Z</time>
      </trkpt>
      <trkpt lat="44.20228" lon="3.09469">
        <ele>624</ele>
        <time>2014-02-13T15:11:17Z</time>
      </trkpt>
      <trkpt lat="44.20217" lon="3.09465">
        <ele>624</ele>
        <time>2014-02-13T15:11:22Z</time>
      </trkpt>
      <trkpt lat="44.20208" lon="3.09466">
        <ele>624</ele>
        <time>2014-02-13T15:11:25Z</time>
      </trkpt>
      <trkpt lat="44.20203" lon="3.09457">
        <ele>623</ele>
        <time>2014-02-13T15:11:57Z</time>
      </trkpt>
      <trkpt lat="44.20198" lon="3.09454">
        <ele>623</ele>
        <time>2014-02-13T15:12:00Z</time>
      </trkpt>
      <trkpt lat="44.20197" lon="3.09449">
        <ele>621</ele>
        <time>2014-02-13T15:12:16Z</time>
      </trkpt>
      <trkpt lat="44.20195" lon="3.09463">
        <ele>621</ele>
        <time>2014-02-13T15:12:19Z</time>
      </trkpt>
      <trkpt lat="44.20192" lon="3.09478">
        <ele>622</ele>
        <time>2014-02-13T15:12:22Z</time>
      </trkpt>
      <trkpt lat="44.20185" lon="3.09484">
        <ele>623</ele>
        <time>2014-02-13T15:12:27Z</time>
      </trkpt>
      <trkpt lat="44.20182" lon="3.09479">
        <ele>623</ele>
        <time>2014-02-13T15:12:29Z</time>
      </trkpt>
      <trkpt lat="44.20186" lon="3.0947">
        <ele>622</ele>
        <time>2014-02-13T15:12:33Z</time>
      </trkpt>
      <trkpt lat="44.20188" lon="3.09463">
        <ele>621</ele>
        <time>2014-02-13T15:12:36Z</time>
      </trkpt>
      <trkpt lat="44.20186" lon="3.09456">
        <ele>621</ele>
        <time>2014-02-13T15:12:41Z</time>
      </trkpt>
      <trkpt lat="44.20182" lon="3.09453">
        <ele>621</ele>
        <time>2014-02-13T15:12:49Z</time>
      </trkpt>
      <trkpt lat="44.20179" lon="3.09445">
        <ele>622</ele>
        <time>2014-02-13T15:12:53Z</time>
      </trkpt>
      <trkpt lat="44.20177" lon="3.09439">
        <ele>624</ele>
        <time>2014-02-13T15:12:57Z</time>
      </trkpt>
      <trkpt lat="44.20183" lon="3.09433">
        <ele>625</ele>
        <time>2014-02-13T15:13:02Z</time>
      </trkpt>
      <trkpt lat="44.20184" lon="3.09436">
        <ele>626</ele>
        <time>2014-02-13T15:13:08Z</time>
      </trkpt>
      <trkpt lat="44.20182" lon="3.09441">
        <ele>625</ele>
        <time>2014-02-13T15:13:10Z</time>
      </trkpt>
      <trkpt lat="44.20179" lon="3.09442">
        <ele>627</ele>
        <time>2014-02-13T15:13:17Z</time>
      </trkpt>
      <trkpt lat="44.20172" lon="3.0944">
        <ele>627</ele>
        <time>2014-02-13T15:13:25Z</time>
      </trkpt>
      <trkpt lat="44.20169" lon="3.09446">
        <ele>625</ele>
        <time>2014-02-13T15:13:30Z</time>
      </trkpt>
      <trkpt lat="44.20168" lon="3.09453">
        <ele>623</ele>
        <time>2014-02-13T15:13:33Z</time>
      </trkpt>
      <trkpt lat="44.20168" lon="3.0946">
        <ele>622</ele>
        <time>2014-02-13T15:13:35Z</time>
      </trkpt>
      <trkpt lat="44.20169" lon="3.09467">
        <ele>621</ele>
        <time>2014-02-13T15:13:37Z</time>
      </trkpt>
      <trkpt lat="44.20172" lon="3.09473">
        <ele>621</ele>
        <time>2014-02-13T15:13:39Z</time>
      </trkpt>
      <trkpt lat="44.20176" lon="3.09478">
        <ele>620</ele>
        <time>2014-02-13T15:13:43Z</time>
      </trkpt>
      <trkpt lat="44.20173" lon="3.09483">
        <ele>619</ele>
        <time>2014-02-13T15:13:51Z</time>
      </trkpt>
      <trkpt lat="44.20168" lon="3.09483">
        <ele>619</ele>
        <time>2014-02-13T15:13:54Z</time>
      </trkpt>
      <trkpt lat="44.20165" lon="3.0949">
        <ele>620</ele>
        <time>2014-02-13T15:13:57Z</time>
      </trkpt>
      <trkpt lat="44.20165" lon="3.09496">
        <ele>621</ele>
        <time>2014-02-13T15:14:00Z</time>
      </trkpt>
      <trkpt lat="44.20166" lon="3.09503">
        <ele>621</ele>
        <time>2014-02-13T15:14:05Z</time>
      </trkpt>
      <trkpt lat="44.20164" lon="3.09509">
        <ele>620</ele>
        <time>2014-02-13T15:14:12Z</time>
      </trkpt>
      <trkpt lat="44.20164" lon="3.09517">
        <ele>620</ele>
        <time>2014-02-13T15:14:15Z</time>
      </trkpt>
      <trkpt lat="44.20161" lon="3.09523">
        <ele>620</ele>
        <time>2014-02-13T15:14:18Z</time>
      </trkpt>
      <trkpt lat="44.20159" lon="3.09529">
        <ele>620</ele>
        <time>2014-02-13T15:14:21Z</time>
      </trkpt>
      <trkpt lat="44.20159" lon="3.09536">
        <ele>620</ele>
        <time>2014-02-13T15:14:25Z</time>
      </trkpt>
      <trkpt lat="44.20154" lon="3.09541">
        <ele>621</ele>
        <time>2014-02-13T15:14:28Z</time>
      </trkpt>
      <trkpt lat="44.2015" lon="3.09546">
        <ele>622</ele>
        <time>2014-02-13T15:14:31Z</time>
      </trkpt>
      <trkpt lat="44.20147" lon="3.09552">
        <ele>623</ele>
        <time>2014-02-13T15:14:34Z</time>
      </trkpt>
      <trkpt lat="44.20145" lon="3.09554">
        <ele>623</ele>
        <time>2014-02-13T15:14:41Z</time>
      </trkpt>
      <trkpt lat="44.20145" lon="3.09556">
        <ele>624</ele>
        <time>2014-02-13T15:15:06Z</time>
      </trkpt>
      <trkpt lat="44.20147" lon="3.09563">
        <ele>625</ele>
        <time>2014-02-13T15:15:09Z</time>
      </trkpt>
      <trkpt lat="44.20148" lon="3.09569">
        <ele>625</ele>
        <time>2014-02-13T15:15:11Z</time>
      </trkpt>
      <trkpt lat="44.20148" lon="3.09576">
        <ele>626</ele>
        <time>2014-02-13T15:15:14Z</time>
      </trkpt>
      <trkpt lat="44.20148" lon="3.09583">
        <ele>625</ele>
        <time>2014-02-13T15:15:20Z</time>
      </trkpt>
      <trkpt lat="44.20149" lon="3.0959">
        <ele>625</ele>
        <time>2014-02-13T15:15:26Z</time>
      </trkpt>
      <trkpt lat="44.20148" lon="3.09597">
        <ele>625</ele>
        <time>2014-02-13T15:15:31Z</time>
      </trkpt>
      <trkpt lat="44.20146" lon="3.09603">
        <ele>625</ele>
        <time>2014-02-13T15:15:35Z</time>
      </trkpt>
      <trkpt lat="44.20145" lon="3.0961">
        <ele>625</ele>
        <time>2014-02-13T15:15:37Z</time>
      </trkpt>
      <trkpt lat="44.20143" lon="3.09619">
        <ele>624</ele>
        <time>2014-02-13T15:15:39Z</time>
      </trkpt>
      <trkpt lat="44.2014" lon="3.09624">
        <ele>624</ele>
        <time>2014-02-13T15:15:41Z</time>
      </trkpt>
      <trkpt lat="44.20138" lon="3.09633">
        <ele>625</ele>
        <time>2014-02-13T15:15:49Z</time>
      </trkpt>
      <trkpt lat="44.20134" lon="3.09648">
        <ele>619</ele>
        <time>2014-02-13T15:16:03Z</time>
      </trkpt>
      <trkpt lat="44.2013" lon="3.09654">
        <ele>618</ele>
        <time>2014-02-13T15:16:10Z</time>
      </trkpt>
      <trkpt lat="44.20129" lon="3.09661">
        <ele>618</ele>
        <time>2014-02-13T15:16:13Z</time>
      </trkpt>
      <trkpt lat="44.2013" lon="3.09668">
        <ele>619</ele>
        <time>2014-02-13T15:16:17Z</time>
      </trkpt>
      <trkpt lat="44.20125" lon="3.09672">
        <ele>618</ele>
        <time>2014-02-13T15:16:27Z</time>
      </trkpt>
      <trkpt lat="44.20121" lon="3.09674">
        <ele>618</ele>
        <time>2014-02-13T15:16:32Z</time>
      </trkpt>
      <trkpt lat="44.20117" lon="3.09679">
        <ele>618</ele>
        <time>2014-02-13T15:16:36Z</time>
      </trkpt>
      <trkpt lat="44.20113" lon="3.09685">
        <ele>617</ele>
        <time>2014-02-13T15:16:40Z</time>
      </trkpt>
      <trkpt lat="44.20109" lon="3.09689">
        <ele>617</ele>
        <time>2014-02-13T15:16:44Z</time>
      </trkpt>
      <trkpt lat="44.20105" lon="3.09693">
        <ele>617</ele>
        <time>2014-02-13T15:16:48Z</time>
      </trkpt>
      <trkpt lat="44.20104" lon="3.09699">
        <ele>617</ele>
        <time>2014-02-13T15:16:53Z</time>
      </trkpt>
      <trkpt lat="44.20101" lon="3.09708">
        <ele>616</ele>
        <time>2014-02-13T15:16:57Z</time>
      </trkpt>
      <trkpt lat="44.20099" lon="3.09715">
        <ele>617</ele>
        <time>2014-02-13T15:16:59Z</time>
      </trkpt>
      <trkpt lat="44.20089" lon="3.09721">
        <ele>617</ele>
        <time>2014-02-13T15:17:03Z</time>
      </trkpt>
      <trkpt lat="44.20093" lon="3.09725">
        <ele>617</ele>
        <time>2014-02-13T15:17:09Z</time>
      </trkpt>
      <trkpt lat="44.20091" lon="3.09732">
        <ele>617</ele>
        <time>2014-02-13T15:17:14Z</time>
      </trkpt>
      <trkpt lat="44.20088" lon="3.09737">
        <ele>617</ele>
        <time>2014-02-13T15:17:17Z</time>
      </trkpt>
      <trkpt lat="44.20084" lon="3.09742">
        <ele>617</ele>
        <time>2014-02-13T15:17:20Z</time>
      </trkpt>
      <trkpt lat="44.20082" lon="3.09748">
        <ele>617</ele>
        <time>2014-02-13T15:17:22Z</time>
      </trkpt>
      <trkpt lat="44.20079" lon="3.09752">
        <ele>617</ele>
        <time>2014-02-13T15:17:25Z</time>
      </trkpt>
      <trkpt lat="44.20074" lon="3.09753">
        <ele>617</ele>
        <time>2014-02-13T15:17:29Z</time>
      </trkpt>
      <trkpt lat="44.20069" lon="3.09753">
        <ele>616</ele>
        <time>2014-02-13T15:17:35Z</time>
      </trkpt>
      <trkpt lat="44.20064" lon="3.09756">
        <ele>615</ele>
        <time>2014-02-13T15:17:39Z</time>
      </trkpt>
      <trkpt lat="44.2006" lon="3.09757">
        <ele>615</ele>
        <time>2014-02-13T15:17:43Z</time>
      </trkpt>
      <trkpt lat="44.20055" lon="3.09757">
        <ele>613</ele>
        <time>2014-02-13T15:17:46Z</time>
      </trkpt>
      <trkpt lat="44.20049" lon="3.09758">
        <ele>612</ele>
        <time>2014-02-13T15:17:49Z</time>
      </trkpt>
      <trkpt lat="44.20043" lon="3.09761">
        <ele>610</ele>
        <time>2014-02-13T15:17:52Z</time>
      </trkpt>
      <trkpt lat="44.20037" lon="3.09764">
        <ele>609</ele>
        <time>2014-02-13T15:17:54Z</time>
      </trkpt>
      <trkpt lat="44.20028" lon="3.09783">
        <ele>609</ele>
        <time>2014-02-13T15:17:56Z</time>
      </trkpt>
      <trkpt lat="44.20025" lon="3.0978">
        <ele>609</ele>
        <time>2014-02-13T15:17:58Z</time>
      </trkpt>
      <trkpt lat="44.20027" lon="3.09775">
        <ele>609</ele>
        <time>2014-02-13T15:17:59Z</time>
      </trkpt>
      <trkpt lat="44.20026" lon="3.09772">
        <ele>609</ele>
        <time>2014-02-13T15:18:00Z</time>
      </trkpt>
      <trkpt lat="44.2002" lon="3.09774">
        <ele>608</ele>
        <time>2014-02-13T15:18:06Z</time>
      </trkpt>
      <trkpt lat="44.20015" lon="3.09789">
        <ele>608</ele>
        <time>2014-02-13T15:18:09Z</time>
      </trkpt>
      <trkpt lat="44.20014" lon="3.09795">
        <ele>608</ele>
        <time>2014-02-13T15:18:10Z</time>
      </trkpt>
      <trkpt lat="44.20012" lon="3.09802">
        <ele>609</ele>
        <time>2014-02-13T15:18:11Z</time>
      </trkpt>
      <trkpt lat="44.20008" lon="3.09801">
        <ele>608</ele>
        <time>2014-02-13T15:18:16Z</time>
      </trkpt>
      <trkpt lat="44.20003" lon="3.09788">
        <ele>608</ele>
        <time>2014-02-13T15:18:21Z</time>
      </trkpt>
      <trkpt lat="44.19999" lon="3.09784">
        <ele>606</ele>
        <time>2014-02-13T15:18:26Z</time>
      </trkpt>
      <trkpt lat="44.19995" lon="3.09789">
        <ele>605</ele>
        <time>2014-02-13T15:18:29Z</time>
      </trkpt>
      <trkpt lat="44.19991" lon="3.09798">
        <ele>604</ele>
        <time>2014-02-13T15:18:32Z</time>
      </trkpt>
      <trkpt lat="44.19988" lon="3.09805">
        <ele>603</ele>
        <time>2014-02-13T15:18:34Z</time>
      </trkpt>
      <trkpt lat="44.19984" lon="3.0981">
        <ele>603</ele>
        <time>2014-02-13T15:18:36Z</time>
      </trkpt>
      <trkpt lat="44.19979" lon="3.09812">
        <ele>602</ele>
        <time>2014-02-13T15:18:40Z</time>
      </trkpt>
      <trkpt lat="44.19975" lon="3.09816">
        <ele>601</ele>
        <time>2014-02-13T15:18:44Z</time>
      </trkpt>
      <trkpt lat="44.19971" lon="3.09819">
        <ele>601</ele>
        <time>2014-02-13T15:18:47Z</time>
      </trkpt>
      <trkpt lat="44.19965" lon="3.0982">
        <ele>600</ele>
        <time>2014-02-13T15:18:52Z</time>
      </trkpt>
      <trkpt lat="44.1996" lon="3.0982">
        <ele>598</ele>
        <time>2014-02-13T15:18:56Z</time>
      </trkpt>
      <trkpt lat="44.19955" lon="3.0982">
        <ele>598</ele>
        <time>2014-02-13T15:19:00Z</time>
      </trkpt>
      <trkpt lat="44.1995" lon="3.09819">
        <ele>597</ele>
        <time>2014-02-13T15:19:03Z</time>
      </trkpt>
      <trkpt lat="44.19945" lon="3.09816">
        <ele>596</ele>
        <time>2014-02-13T15:19:06Z</time>
      </trkpt>
      <trkpt lat="44.19941" lon="3.09822">
        <ele>595</ele>
        <time>2014-02-13T15:19:10Z</time>
      </trkpt>
      <trkpt lat="44.19939" lon="3.09828">
        <ele>595</ele>
        <time>2014-02-13T15:19:13Z</time>
      </trkpt>
      <trkpt lat="44.19937" lon="3.09835">
        <ele>595</ele>
        <time>2014-02-13T15:19:16Z</time>
      </trkpt>
      <trkpt lat="44.19935" lon="3.09842">
        <ele>595</ele>
        <time>2014-02-13T15:19:18Z</time>
      </trkpt>
      <trkpt lat="44.19935" lon="3.09849">
        <ele>595</ele>
        <time>2014-02-13T15:19:20Z</time>
      </trkpt>
      <trkpt lat="44.19934" lon="3.09857">
        <ele>595</ele>
        <time>2014-02-13T15:19:22Z</time>
      </trkpt>
      <trkpt lat="44.19932" lon="3.09864">
        <ele>594</ele>
        <time>2014-02-13T15:19:26Z</time>
      </trkpt>
      <trkpt lat="44.19931" lon="3.0987">
        <ele>592</ele>
        <time>2014-02-13T15:19:33Z</time>
      </trkpt>
      <trkpt lat="44.19933" lon="3.09877">
        <ele>592</ele>
        <time>2014-02-13T15:19:38Z</time>
      </trkpt>
      <trkpt lat="44.19935" lon="3.09883">
        <ele>593</ele>
        <time>2014-02-13T15:19:42Z</time>
      </trkpt>
      <trkpt lat="44.19938" lon="3.09888">
        <ele>593</ele>
        <time>2014-02-13T15:19:47Z</time>
      </trkpt>
      <trkpt lat="44.19938" lon="3.09895">
        <ele>593</ele>
        <time>2014-02-13T15:19:50Z</time>
      </trkpt>
      <trkpt lat="44.19937" lon="3.09903">
        <ele>593</ele>
        <time>2014-02-13T15:19:53Z</time>
      </trkpt>
      <trkpt lat="44.19936" lon="3.09911">
        <ele>593</ele>
        <time>2014-02-13T15:19:56Z</time>
      </trkpt>
      <trkpt lat="44.19936" lon="3.09919">
        <ele>593</ele>
        <time>2014-02-13T15:19:59Z</time>
      </trkpt>
      <trkpt lat="44.19936" lon="3.09928">
        <ele>593</ele>
        <time>2014-02-13T15:20:02Z</time>
      </trkpt>
      <trkpt lat="44.19937" lon="3.09934">
        <ele>593</ele>
        <time>2014-02-13T15:20:05Z</time>
      </trkpt>
      <trkpt lat="44.19935" lon="3.09942">
        <ele>593</ele>
        <time>2014-02-13T15:20:09Z</time>
      </trkpt>
      <trkpt lat="44.19933" lon="3.0995">
        <ele>593</ele>
        <time>2014-02-13T15:20:12Z</time>
      </trkpt>
      <trkpt lat="44.19929" lon="3.09954">
        <ele>593</ele>
        <time>2014-02-13T15:20:17Z</time>
      </trkpt>
      <trkpt lat="44.19925" lon="3.0996">
        <ele>594</ele>
        <time>2014-02-13T15:20:22Z</time>
      </trkpt>
      <trkpt lat="44.19923" lon="3.09965">
        <ele>594</ele>
        <time>2014-02-13T15:20:25Z</time>
      </trkpt>
      <trkpt lat="44.19918" lon="3.09971">
        <ele>594</ele>
        <time>2014-02-13T15:20:29Z</time>
      </trkpt>
      <trkpt lat="44.19913" lon="3.09975">
        <ele>594</ele>
        <time>2014-02-13T15:20:32Z</time>
      </trkpt>
      <trkpt lat="44.19909" lon="3.09978">
        <ele>594</ele>
        <time>2014-02-13T15:20:35Z</time>
      </trkpt>
      <trkpt lat="44.19905" lon="3.09982">
        <ele>593</ele>
        <time>2014-02-13T15:20:38Z</time>
      </trkpt>
      <trkpt lat="44.199" lon="3.09987">
        <ele>594</ele>
        <time>2014-02-13T15:20:41Z</time>
      </trkpt>
      <trkpt lat="44.19896" lon="3.09992">
        <ele>594</ele>
        <time>2014-02-13T15:20:44Z</time>
      </trkpt>
      <trkpt lat="44.1989" lon="3.09994">
        <ele>594</ele>
        <time>2014-02-13T15:20:48Z</time>
      </trkpt>
      <trkpt lat="44.19888" lon="3.1">
        <ele>594</ele>
        <time>2014-02-13T15:20:52Z</time>
      </trkpt>
      <trkpt lat="44.19882" lon="3.10004">
        <ele>594</ele>
        <time>2014-02-13T15:20:56Z</time>
      </trkpt>
      <trkpt lat="44.19877" lon="3.10008">
        <ele>594</ele>
        <time>2014-02-13T15:21:00Z</time>
      </trkpt>
      <trkpt lat="44.19873" lon="3.10011">
        <ele>594</ele>
        <time>2014-02-13T15:21:03Z</time>
      </trkpt>
      <trkpt lat="44.1987" lon="3.10016">
        <ele>595</ele>
        <time>2014-02-13T15:21:08Z</time>
      </trkpt>
      <trkpt lat="44.19866" lon="3.1002">
        <ele>596</ele>
        <time>2014-02-13T15:21:13Z</time>
      </trkpt>
      <trkpt lat="44.19862" lon="3.10024">
        <ele>597</ele>
        <time>2014-02-13T15:21:17Z</time>
      </trkpt>
      <trkpt lat="44.19857" lon="3.10026">
        <ele>599</ele>
        <time>2014-02-13T15:21:21Z</time>
      </trkpt>
      <trkpt lat="44.19852" lon="3.10029">
        <ele>601</ele>
        <time>2014-02-13T15:21:25Z</time>
      </trkpt>
      <trkpt lat="44.19848" lon="3.10031">
        <ele>601</ele>
        <time>2014-02-13T15:21:29Z</time>
      </trkpt>
      <trkpt lat="44.19844" lon="3.10035">
        <ele>602</ele>
        <time>2014-02-13T15:21:32Z</time>
      </trkpt>
      <trkpt lat="44.19839" lon="3.10037">
        <ele>602</ele>
        <time>2014-02-13T15:21:37Z</time>
      </trkpt>
      <trkpt lat="44.19836" lon="3.10044">
        <ele>602</ele>
        <time>2014-02-13T15:21:40Z</time>
      </trkpt>
      <trkpt lat="44.19833" lon="3.10051">
        <ele>602</ele>
        <time>2014-02-13T15:21:44Z</time>
      </trkpt>
      <trkpt lat="44.1983" lon="3.10057">
        <ele>602</ele>
        <time>2014-02-13T15:21:47Z</time>
      </trkpt>
      <trkpt lat="44.19825" lon="3.10062">
        <ele>602</ele>
        <time>2014-02-13T15:21:51Z</time>
      </trkpt>
      <trkpt lat="44.19819" lon="3.10066">
        <ele>602</ele>
        <time>2014-02-13T15:21:55Z</time>
      </trkpt>
      <trkpt lat="44.19815" lon="3.1007">
        <ele>602</ele>
        <time>2014-02-13T15:21:58Z</time>
      </trkpt>
      <trkpt lat="44.19809" lon="3.10071">
        <ele>601</ele>
        <time>2014-02-13T15:22:01Z</time>
      </trkpt>
      <trkpt lat="44.19804" lon="3.10073">
        <ele>600</ele>
        <time>2014-02-13T15:22:04Z</time>
      </trkpt>
      <trkpt lat="44.198" lon="3.10079">
        <ele>599</ele>
        <time>2014-02-13T15:22:07Z</time>
      </trkpt>
      <trkpt lat="44.19798" lon="3.10086">
        <ele>599</ele>
        <time>2014-02-13T15:22:10Z</time>
      </trkpt>
      <trkpt lat="44.19794" lon="3.10093">
        <ele>599</ele>
        <time>2014-02-13T15:22:14Z</time>
      </trkpt>
      <trkpt lat="44.19789" lon="3.10096">
        <ele>599</ele>
        <time>2014-02-13T15:22:18Z</time>
      </trkpt>
      <trkpt lat="44.19785" lon="3.10101">
        <ele>600</ele>
        <time>2014-02-13T15:22:21Z</time>
      </trkpt>
      <trkpt lat="44.19781" lon="3.10105">
        <ele>600</ele>
        <time>2014-02-13T15:22:23Z</time>
      </trkpt>
      <trkpt lat="44.19776" lon="3.10107">
        <ele>600</ele>
        <time>2014-02-13T15:22:26Z</time>
      </trkpt>
      <trkpt lat="44.19772" lon="3.1011">
        <ele>600</ele>
        <time>2014-02-13T15:22:30Z</time>
      </trkpt>
      <trkpt lat="44.19767" lon="3.1011">
        <ele>600</ele>
        <time>2014-02-13T15:22:35Z</time>
      </trkpt>
      <trkpt lat="44.19763" lon="3.10114">
        <ele>600</ele>
        <time>2014-02-13T15:22:39Z</time>
      </trkpt>
      <trkpt lat="44.19759" lon="3.10119">
        <ele>600</ele>
        <time>2014-02-13T15:22:44Z</time>
      </trkpt>
      <trkpt lat="44.19755" lon="3.10123">
        <ele>601</ele>
        <time>2014-02-13T15:22:48Z</time>
      </trkpt>
      <trkpt lat="44.1975" lon="3.10127">
        <ele>601</ele>
        <time>2014-02-13T15:22:51Z</time>
      </trkpt>
      <trkpt lat="44.19745" lon="3.10129">
        <ele>601</ele>
        <time>2014-02-13T15:22:54Z</time>
      </trkpt>
      <trkpt lat="44.1974" lon="3.10128">
        <ele>601</ele>
        <time>2014-02-13T15:22:58Z</time>
      </trkpt>
      <trkpt lat="44.19734" lon="3.10125">
        <ele>602</ele>
        <time>2014-02-13T15:23:02Z</time>
      </trkpt>
      <trkpt lat="44.1973" lon="3.10122">
        <ele>601</ele>
        <time>2014-02-13T15:23:06Z</time>
      </trkpt>
      <trkpt lat="44.19725" lon="3.10119">
        <ele>602</ele>
        <time>2014-02-13T15:23:10Z</time>
      </trkpt>
      <trkpt lat="44.1972" lon="3.10115">
        <ele>602</ele>
        <time>2014-02-13T15:23:14Z</time>
      </trkpt>
      <trkpt lat="44.19715" lon="3.10111">
        <ele>602</ele>
        <time>2014-02-13T15:23:18Z</time>
      </trkpt>
      <trkpt lat="44.19711" lon="3.10106">
        <ele>602</ele>
        <time>2014-02-13T15:23:23Z</time>
      </trkpt>
      <trkpt lat="44.19706" lon="3.10103">
        <ele>603</ele>
        <time>2014-02-13T15:23:27Z</time>
      </trkpt>
      <trkpt lat="44.19701" lon="3.10102">
        <ele>603</ele>
        <time>2014-02-13T15:23:31Z</time>
      </trkpt>
      <trkpt lat="44.19695" lon="3.101">
        <ele>603</ele>
        <time>2014-02-13T15:23:35Z</time>
      </trkpt>
      <trkpt lat="44.19691" lon="3.10098">
        <ele>604</ele>
        <time>2014-02-13T15:23:39Z</time>
      </trkpt>
      <trkpt lat="44.19686" lon="3.10096">
        <ele>604</ele>
        <time>2014-02-13T15:23:42Z</time>
      </trkpt>
      <trkpt lat="44.19681" lon="3.10094">
        <ele>605</ele>
        <time>2014-02-13T15:23:45Z</time>
      </trkpt>
      <trkpt lat="44.19676" lon="3.10094">
        <ele>606</ele>
        <time>2014-02-13T15:23:48Z</time>
      </trkpt>
      <trkpt lat="44.19671" lon="3.10094">
        <ele>606</ele>
        <time>2014-02-13T15:23:52Z</time>
      </trkpt>
      <trkpt lat="44.19667" lon="3.10092">
        <ele>607</ele>
        <time>2014-02-13T15:23:57Z</time>
      </trkpt>
      <trkpt lat="44.19661" lon="3.10092">
        <ele>607</ele>
        <time>2014-02-13T15:24:01Z</time>
      </trkpt>
      <trkpt lat="44.19656" lon="3.10095">
        <ele>608</ele>
        <time>2014-02-13T15:24:05Z</time>
      </trkpt>
      <trkpt lat="44.1965" lon="3.10097">
        <ele>609</ele>
        <time>2014-02-13T15:24:11Z</time>
      </trkpt>
      <trkpt lat="44.19646" lon="3.10098">
        <ele>609</ele>
        <time>2014-02-13T15:24:15Z</time>
      </trkpt>
      <trkpt lat="44.19643" lon="3.10104">
        <ele>611</ele>
        <time>2014-02-13T15:24:18Z</time>
      </trkpt>
      <trkpt lat="44.19639" lon="3.10107">
        <ele>613</ele>
        <time>2014-02-13T15:24:23Z</time>
      </trkpt>
      <trkpt lat="44.19634" lon="3.10105">
        <ele>614</ele>
        <time>2014-02-13T15:24:26Z</time>
      </trkpt>
      <trkpt lat="44.19629" lon="3.10104">
        <ele>614</ele>
        <time>2014-02-13T15:24:31Z</time>
      </trkpt>
      <trkpt lat="44.19624" lon="3.10102">
        <ele>615</ele>
        <time>2014-02-13T15:24:36Z</time>
      </trkpt>
      <trkpt lat="44.1962" lon="3.10098">
        <ele>615</ele>
        <time>2014-02-13T15:24:40Z</time>
      </trkpt>
      <trkpt lat="44.19615" lon="3.10096">
        <ele>616</ele>
        <time>2014-02-13T15:24:44Z</time>
      </trkpt>
      <trkpt lat="44.1961" lon="3.10097">
        <ele>617</ele>
        <time>2014-02-13T15:24:47Z</time>
      </trkpt>
      <trkpt lat="44.19606" lon="3.10094">
        <ele>618</ele>
        <time>2014-02-13T15:24:51Z</time>
      </trkpt>
      <trkpt lat="44.19602" lon="3.10089">
        <ele>618</ele>
        <time>2014-02-13T15:24:54Z</time>
      </trkpt>
      <trkpt lat="44.196" lon="3.10083">
        <ele>618</ele>
        <time>2014-02-13T15:24:57Z</time>
      </trkpt>
      <trkpt lat="44.19597" lon="3.10079">
        <ele>618</ele>
        <time>2014-02-13T15:25:00Z</time>
      </trkpt>
      <trkpt lat="44.19593" lon="3.10074">
        <ele>619</ele>
        <time>2014-02-13T15:25:05Z</time>
      </trkpt>
      <trkpt lat="44.19589" lon="3.10071">
        <ele>619</ele>
        <time>2014-02-13T15:25:09Z</time>
      </trkpt>
      <trkpt lat="44.19584" lon="3.10069">
        <ele>620</ele>
        <time>2014-02-13T15:25:13Z</time>
      </trkpt>
      <trkpt lat="44.1958" lon="3.10067">
        <ele>621</ele>
        <time>2014-02-13T15:25:17Z</time>
      </trkpt>
      <trkpt lat="44.19575" lon="3.10065">
        <ele>621</ele>
        <time>2014-02-13T15:25:21Z</time>
      </trkpt>
      <trkpt lat="44.19569" lon="3.10062">
        <ele>622</ele>
        <time>2014-02-13T15:25:25Z</time>
      </trkpt>
      <trkpt lat="44.19565" lon="3.10059">
        <ele>623</ele>
        <time>2014-02-13T15:25:28Z</time>
      </trkpt>
      <trkpt lat="44.19561" lon="3.10055">
        <ele>623</ele>
        <time>2014-02-13T15:25:32Z</time>
      </trkpt>
      <trkpt lat="44.19557" lon="3.10052">
        <ele>624</ele>
        <time>2014-02-13T15:25:36Z</time>
      </trkpt>
      <trkpt lat="44.19552" lon="3.10049">
        <ele>624</ele>
        <time>2014-02-13T15:25:40Z</time>
      </trkpt>
      <trkpt lat="44.19548" lon="3.10051">
        <ele>624</ele>
        <time>2014-02-13T15:25:43Z</time>
      </trkpt>
      <trkpt lat="44.19543" lon="3.1005">
        <ele>624</ele>
        <time>2014-02-13T15:25:48Z</time>
      </trkpt>
      <trkpt lat="44.19538" lon="3.10045">
        <ele>625</ele>
        <time>2014-02-13T15:25:52Z</time>
      </trkpt>
      <trkpt lat="44.19533" lon="3.10042">
        <ele>626</ele>
        <time>2014-02-13T15:25:55Z</time>
      </trkpt>
      <trkpt lat="44.19529" lon="3.10039">
        <ele>627</ele>
        <time>2014-02-13T15:25:59Z</time>
      </trkpt>
      <trkpt lat="44.19524" lon="3.10036">
        <ele>627</ele>
        <time>2014-02-13T15:26:03Z</time>
      </trkpt>
      <trkpt lat="44.19521" lon="3.1004">
        <ele>627</ele>
        <time>2014-02-13T15:26:10Z</time>
      </trkpt>
      <trkpt lat="44.19517" lon="3.10036">
        <ele>627</ele>
        <time>2014-02-13T15:26:13Z</time>
      </trkpt>
      <trkpt lat="44.19511" lon="3.10032">
        <ele>627</ele>
        <time>2014-02-13T15:26:16Z</time>
      </trkpt>
      <trkpt lat="44.19505" lon="3.1003">
        <ele>627</ele>
        <time>2014-02-13T15:26:19Z</time>
      </trkpt>
      <trkpt lat="44.195" lon="3.10026">
        <ele>628</ele>
        <time>2014-02-13T15:26:22Z</time>
      </trkpt>
      <trkpt lat="44.19497" lon="3.10022">
        <ele>627</ele>
        <time>2014-02-13T15:26:24Z</time>
      </trkpt>
      <trkpt lat="44.19493" lon="3.10015">
        <ele>627</ele>
        <time>2014-02-13T15:26:27Z</time>
      </trkpt>
      <trkpt lat="44.19492" lon="3.10009">
        <ele>626</ele>
        <time>2014-02-13T15:26:29Z</time>
      </trkpt>
      <trkpt lat="44.19489" lon="3.1">
        <ele>626</ele>
        <time>2014-02-13T15:26:32Z</time>
      </trkpt>
      <trkpt lat="44.19487" lon="3.09994">
        <ele>626</ele>
        <time>2014-02-13T15:26:36Z</time>
      </trkpt>
      <trkpt lat="44.19483" lon="3.09989">
        <ele>627</ele>
        <time>2014-02-13T15:26:38Z</time>
      </trkpt>
      <trkpt lat="44.19479" lon="3.09984">
        <ele>627</ele>
        <time>2014-02-13T15:26:40Z</time>
      </trkpt>
      <trkpt lat="44.19476" lon="3.09979">
        <ele>627</ele>
        <time>2014-02-13T15:26:43Z</time>
      </trkpt>
      <trkpt lat="44.19471" lon="3.09975">
        <ele>627</ele>
        <time>2014-02-13T15:26:46Z</time>
      </trkpt>
      <trkpt lat="44.19468" lon="3.09972">
        <ele>627</ele>
        <time>2014-02-13T15:26:48Z</time>
      </trkpt>
      <trkpt lat="44.19465" lon="3.0997">
        <ele>627</ele>
        <time>2014-02-13T15:26:50Z</time>
      </trkpt>
      <trkpt lat="44.19463" lon="3.09961">
        <ele>627</ele>
        <time>2014-02-13T15:26:58Z</time>
      </trkpt>
      <trkpt lat="44.19461" lon="3.09954">
        <ele>628</ele>
        <time>2014-02-13T15:27:01Z</time>
      </trkpt>
      <trkpt lat="44.19459" lon="3.09947">
        <ele>627</ele>
        <time>2014-02-13T15:27:05Z</time>
      </trkpt>
      <trkpt lat="44.19454" lon="3.09944">
        <ele>627</ele>
        <time>2014-02-13T15:27:08Z</time>
      </trkpt>
      <trkpt lat="44.1945" lon="3.09939">
        <ele>627</ele>
        <time>2014-02-13T15:27:11Z</time>
      </trkpt>
      <trkpt lat="44.19446" lon="3.09932">
        <ele>626</ele>
        <time>2014-02-13T15:27:15Z</time>
      </trkpt>
      <trkpt lat="44.19444" lon="3.09926">
        <ele>626</ele>
        <time>2014-02-13T15:27:20Z</time>
      </trkpt>
      <trkpt lat="44.19441" lon="3.09919">
        <ele>624</ele>
        <time>2014-02-13T15:27:28Z</time>
      </trkpt>
      <trkpt lat="44.19438" lon="3.09913">
        <ele>623</ele>
        <time>2014-02-13T15:27:31Z</time>
      </trkpt>
      <trkpt lat="44.19438" lon="3.09906">
        <ele>623</ele>
        <time>2014-02-13T15:27:38Z</time>
      </trkpt>
      <trkpt lat="44.19436" lon="3.09899">
        <ele>622</ele>
        <time>2014-02-13T15:27:41Z</time>
      </trkpt>
      <trkpt lat="44.19437" lon="3.09891">
        <ele>621</ele>
        <time>2014-02-13T15:27:43Z</time>
      </trkpt>
      <trkpt lat="44.19438" lon="3.09882">
        <ele>621</ele>
        <time>2014-02-13T15:27:45Z</time>
      </trkpt>
      <trkpt lat="44.19435" lon="3.09871">
        <ele>621</ele>
        <time>2014-02-13T15:27:49Z</time>
      </trkpt>
      <trkpt lat="44.19433" lon="3.09865">
        <ele>620</ele>
        <time>2014-02-13T15:27:53Z</time>
      </trkpt>
      <trkpt lat="44.19432" lon="3.09856">
        <ele>619</ele>
        <time>2014-02-13T15:27:56Z</time>
      </trkpt>
      <trkpt lat="44.1943" lon="3.0985">
        <ele>618</ele>
        <time>2014-02-13T15:27:59Z</time>
      </trkpt>
      <trkpt lat="44.19426" lon="3.09844">
        <ele>617</ele>
        <time>2014-02-13T15:28:02Z</time>
      </trkpt>
      <trkpt lat="44.19422" lon="3.0984">
        <ele>617</ele>
        <time>2014-02-13T15:28:05Z</time>
      </trkpt>
      <trkpt lat="44.19417" lon="3.09837">
        <ele>616</ele>
        <time>2014-02-13T15:28:08Z</time>
      </trkpt>
      <trkpt lat="44.19412" lon="3.09837">
        <ele>615</ele>
        <time>2014-02-13T15:28:11Z</time>
      </trkpt>
      <trkpt lat="44.19407" lon="3.09837">
        <ele>615</ele>
        <time>2014-02-13T15:28:14Z</time>
      </trkpt>
      <trkpt lat="44.19402" lon="3.09836">
        <ele>615</ele>
        <time>2014-02-13T15:28:17Z</time>
      </trkpt>
      <trkpt lat="44.19397" lon="3.09835">
        <ele>615</ele>
        <time>2014-02-13T15:28:21Z</time>
      </trkpt>
      <trkpt lat="44.19392" lon="3.09832">
        <ele>614</ele>
        <time>2014-02-13T15:28:27Z</time>
      </trkpt>
      <trkpt lat="44.1939" lon="3.09826">
        <ele>614</ele>
        <time>2014-02-13T15:28:30Z</time>
      </trkpt>
      <trkpt lat="44.19389" lon="3.09819">
        <ele>614</ele>
        <time>2014-02-13T15:28:33Z</time>
      </trkpt>
      <trkpt lat="44.19386" lon="3.09813">
        <ele>613</ele>
        <time>2014-02-13T15:28:35Z</time>
      </trkpt>
      <trkpt lat="44.19383" lon="3.09808">
        <ele>613</ele>
        <time>2014-02-13T15:28:37Z</time>
      </trkpt>
      <trkpt lat="44.1938" lon="3.09801">
        <ele>613</ele>
        <time>2014-02-13T15:28:40Z</time>
      </trkpt>
      <trkpt lat="44.19376" lon="3.09793">
        <ele>612</ele>
        <time>2014-02-13T15:28:43Z</time>
      </trkpt>
      <trkpt lat="44.19373" lon="3.09788">
        <ele>612</ele>
        <time>2014-02-13T15:28:46Z</time>
      </trkpt>
      <trkpt lat="44.19369" lon="3.09783">
        <ele>612</ele>
        <time>2014-02-13T15:28:49Z</time>
      </trkpt>
      <trkpt lat="44.19364" lon="3.09779">
        <ele>611</ele>
        <time>2014-02-13T15:28:52Z</time>
      </trkpt>
      <trkpt lat="44.19359" lon="3.09776">
        <ele>611</ele>
        <time>2014-02-13T15:28:55Z</time>
      </trkpt>
      <trkpt lat="44.19354" lon="3.09772">
        <ele>610</ele>
        <time>2014-02-13T15:28:59Z</time>
      </trkpt>
      <trkpt lat="44.19352" lon="3.09766">
        <ele>610</ele>
        <time>2014-02-13T15:29:03Z</time>
      </trkpt>
      <trkpt lat="44.19353" lon="3.09759">
        <ele>608</ele>
        <time>2014-02-13T15:29:06Z</time>
      </trkpt>
      <trkpt lat="44.19355" lon="3.09751">
        <ele>607</ele>
        <time>2014-02-13T15:29:09Z</time>
      </trkpt>
      <trkpt lat="44.19356" lon="3.09745">
        <ele>606</ele>
        <time>2014-02-13T15:29:12Z</time>
      </trkpt>
      <trkpt lat="44.19358" lon="3.09738">
        <ele>606</ele>
        <time>2014-02-13T15:29:15Z</time>
      </trkpt>
      <trkpt lat="44.1936" lon="3.09731">
        <ele>605</ele>
        <time>2014-02-13T15:29:19Z</time>
      </trkpt>
      <trkpt lat="44.19363" lon="3.09725">
        <ele>605</ele>
        <time>2014-02-13T15:29:23Z</time>
      </trkpt>
      <trkpt lat="44.19366" lon="3.09719">
        <ele>605</ele>
        <time>2014-02-13T15:29:27Z</time>
      </trkpt>
      <trkpt lat="44.19368" lon="3.09712">
        <ele>605</ele>
        <time>2014-02-13T15:29:31Z</time>
      </trkpt>
      <trkpt lat="44.1937" lon="3.09705">
        <ele>604</ele>
        <time>2014-02-13T15:29:35Z</time>
      </trkpt>
      <trkpt lat="44.19372" lon="3.09698">
        <ele>604</ele>
        <time>2014-02-13T15:29:39Z</time>
      </trkpt>
      <trkpt lat="44.19372" lon="3.09691">
        <ele>603</ele>
        <time>2014-02-13T15:29:43Z</time>
      </trkpt>
      <trkpt lat="44.19373" lon="3.09684">
        <ele>604</ele>
        <time>2014-02-13T15:29:47Z</time>
      </trkpt>
      <trkpt lat="44.19374" lon="3.09677">
        <ele>604</ele>
        <time>2014-02-13T15:29:51Z</time>
      </trkpt>
      <trkpt lat="44.19375" lon="3.0967">
        <ele>604</ele>
        <time>2014-02-13T15:29:55Z</time>
      </trkpt>
      <trkpt lat="44.19377" lon="3.09663">
        <ele>604</ele>
        <time>2014-02-13T15:29:59Z</time>
      </trkpt>
      <trkpt lat="44.19377" lon="3.09656">
        <ele>605</ele>
        <time>2014-02-13T15:30:02Z</time>
      </trkpt>
      <trkpt lat="44.19379" lon="3.09649">
        <ele>606</ele>
        <time>2014-02-13T15:30:06Z</time>
      </trkpt>
      <trkpt lat="44.19379" lon="3.09642">
        <ele>607</ele>
        <time>2014-02-13T15:30:10Z</time>
      </trkpt>
      <trkpt lat="44.19381" lon="3.09634">
        <ele>606</ele>
        <time>2014-02-13T15:30:15Z</time>
      </trkpt>
      <trkpt lat="44.19383" lon="3.09626">
        <ele>606</ele>
        <time>2014-02-13T15:30:19Z</time>
      </trkpt>
      <trkpt lat="44.19385" lon="3.0962">
        <ele>607</ele>
        <time>2014-02-13T15:30:22Z</time>
      </trkpt>
      <trkpt lat="44.19387" lon="3.09614">
        <ele>607</ele>
        <time>2014-02-13T15:30:26Z</time>
      </trkpt>
      <trkpt lat="44.19388" lon="3.09606">
        <ele>607</ele>
        <time>2014-02-13T15:30:30Z</time>
      </trkpt>
      <trkpt lat="44.19389" lon="3.096">
        <ele>608</ele>
        <time>2014-02-13T15:30:33Z</time>
      </trkpt>
      <trkpt lat="44.19388" lon="3.09592">
        <ele>608</ele>
        <time>2014-02-13T15:30:36Z</time>
      </trkpt>
      <trkpt lat="44.19388" lon="3.09585">
        <ele>609</ele>
        <time>2014-02-13T15:30:39Z</time>
      </trkpt>
      <trkpt lat="44.19389" lon="3.09577">
        <ele>610</ele>
        <time>2014-02-13T15:30:43Z</time>
      </trkpt>
      <trkpt lat="44.19389" lon="3.09569">
        <ele>610</ele>
        <time>2014-02-13T15:30:47Z</time>
      </trkpt>
      <trkpt lat="44.19388" lon="3.09562">
        <ele>610</ele>
        <time>2014-02-13T15:30:51Z</time>
      </trkpt>
      <trkpt lat="44.19388" lon="3.09554">
        <ele>610</ele>
        <time>2014-02-13T15:30:54Z</time>
      </trkpt>
      <trkpt lat="44.19387" lon="3.09548">
        <ele>610</ele>
        <time>2014-02-13T15:30:57Z</time>
      </trkpt>
      <trkpt lat="44.19386" lon="3.0954">
        <ele>611</ele>
        <time>2014-02-13T15:31:01Z</time>
      </trkpt>
      <trkpt lat="44.19386" lon="3.09532">
        <ele>611</ele>
        <time>2014-02-13T15:31:05Z</time>
      </trkpt>
      <trkpt lat="44.19388" lon="3.09525">
        <ele>611</ele>
        <time>2014-02-13T15:31:09Z</time>
      </trkpt>
      <trkpt lat="44.19389" lon="3.09518">
        <ele>612</ele>
        <time>2014-02-13T15:31:12Z</time>
      </trkpt>
      <trkpt lat="44.19388" lon="3.09511">
        <ele>613</ele>
        <time>2014-02-13T15:31:15Z</time>
      </trkpt>
      <trkpt lat="44.19386" lon="3.09505">
        <ele>614</ele>
        <time>2014-02-13T15:31:18Z</time>
      </trkpt>
      <trkpt lat="44.19385" lon="3.09498">
        <ele>615</ele>
        <time>2014-02-13T15:31:21Z</time>
      </trkpt>
      <trkpt lat="44.19383" lon="3.09492">
        <ele>616</ele>
        <time>2014-02-13T15:31:25Z</time>
      </trkpt>
      <trkpt lat="44.19378" lon="3.0949">
        <ele>617</ele>
        <time>2014-02-13T15:31:28Z</time>
      </trkpt>
      <trkpt lat="44.19374" lon="3.09487">
        <ele>617</ele>
        <time>2014-02-13T15:31:30Z</time>
      </trkpt>
      <trkpt lat="44.19371" lon="3.09482">
        <ele>618</ele>
        <time>2014-02-13T15:31:32Z</time>
      </trkpt>
      <trkpt lat="44.19368" lon="3.09476">
        <ele>617</ele>
        <time>2014-02-13T15:31:35Z</time>
      </trkpt>
      <trkpt lat="44.19364" lon="3.09475">
        <ele>617</ele>
        <time>2014-02-13T15:31:42Z</time>
      </trkpt>
      <trkpt lat="44.19359" lon="3.09474">
        <ele>617</ele>
        <time>2014-02-13T15:31:46Z</time>
      </trkpt>
      <trkpt lat="44.19355" lon="3.09472">
        <ele>617</ele>
        <time>2014-02-13T15:31:50Z</time>
      </trkpt>
      <trkpt lat="44.1935" lon="3.09469">
        <ele>616</ele>
        <time>2014-02-13T15:31:55Z</time>
      </trkpt>
      <trkpt lat="44.19344" lon="3.09466">
        <ele>616</ele>
        <time>2014-02-13T15:31:59Z</time>
      </trkpt>
      <trkpt lat="44.1934" lon="3.09462">
        <ele>615</ele>
        <time>2014-02-13T15:32:03Z</time>
      </trkpt>
      <trkpt lat="44.19336" lon="3.0946">
        <ele>615</ele>
        <time>2014-02-13T15:32:06Z</time>
      </trkpt>
      <trkpt lat="44.19331" lon="3.09458">
        <ele>615</ele>
        <time>2014-02-13T15:32:09Z</time>
      </trkpt>
      <trkpt lat="44.19326" lon="3.09453">
        <ele>615</ele>
        <time>2014-02-13T15:32:13Z</time>
      </trkpt>
      <trkpt lat="44.19321" lon="3.09449">
        <ele>616</ele>
        <time>2014-02-13T15:32:16Z</time>
      </trkpt>
      <trkpt lat="44.19317" lon="3.09446">
        <ele>617</ele>
        <time>2014-02-13T15:32:19Z</time>
      </trkpt>
      <trkpt lat="44.19313" lon="3.09442">
        <ele>617</ele>
        <time>2014-02-13T15:32:22Z</time>
      </trkpt>
      <trkpt lat="44.19309" lon="3.09439">
        <ele>617</ele>
        <time>2014-02-13T15:32:25Z</time>
      </trkpt>
      <trkpt lat="44.19305" lon="3.09434">
        <ele>617</ele>
        <time>2014-02-13T15:32:28Z</time>
      </trkpt>
      <trkpt lat="44.19301" lon="3.09431">
        <ele>617</ele>
        <time>2014-02-13T15:32:31Z</time>
      </trkpt>
      <trkpt lat="44.19296" lon="3.09426">
        <ele>617</ele>
        <time>2014-02-13T15:32:35Z</time>
      </trkpt>
      <trkpt lat="44.19293" lon="3.0942">
        <ele>617</ele>
        <time>2014-02-13T15:32:38Z</time>
      </trkpt>
      <trkpt lat="44.19289" lon="3.09415">
        <ele>617</ele>
        <time>2014-02-13T15:32:42Z</time>
      </trkpt>
      <trkpt lat="44.19285" lon="3.0941">
        <ele>616</ele>
        <time>2014-02-13T15:32:46Z</time>
      </trkpt>
      <trkpt lat="44.19282" lon="3.09405">
        <ele>615</ele>
        <time>2014-02-13T15:32:49Z</time>
      </trkpt>
      <trkpt lat="44.19277" lon="3.094">
        <ele>615</ele>
        <time>2014-02-13T15:32:53Z</time>
      </trkpt>
      <trkpt lat="44.19273" lon="3.09394">
        <ele>615</ele>
        <time>2014-02-13T15:32:57Z</time>
      </trkpt>
      <trkpt lat="44.19269" lon="3.09389">
        <ele>616</ele>
        <time>2014-02-13T15:33:00Z</time>
      </trkpt>
      <trkpt lat="44.19265" lon="3.09385">
        <ele>616</ele>
        <time>2014-02-13T15:33:03Z</time>
      </trkpt>
      <trkpt lat="44.19262" lon="3.09381">
        <ele>617</ele>
        <time>2014-02-13T15:33:06Z</time>
      </trkpt>
      <trkpt lat="44.19258" lon="3.09377">
        <ele>617</ele>
        <time>2014-02-13T15:33:09Z</time>
      </trkpt>
      <trkpt lat="44.19253" lon="3.09373">
        <ele>618</ele>
        <time>2014-02-13T15:33:12Z</time>
      </trkpt>
      <trkpt lat="44.19248" lon="3.09369">
        <ele>618</ele>
        <time>2014-02-13T15:33:15Z</time>
      </trkpt>
      <trkpt lat="44.19243" lon="3.09365">
        <ele>618</ele>
        <time>2014-02-13T15:33:19Z</time>
      </trkpt>
      <trkpt lat="44.19239" lon="3.09362">
        <ele>617</ele>
        <time>2014-02-13T15:33:23Z</time>
      </trkpt>
      <trkpt lat="44.19235" lon="3.09358">
        <ele>617</ele>
        <time>2014-02-13T15:33:26Z</time>
      </trkpt>
      <trkpt lat="44.1923" lon="3.09353">
        <ele>616</ele>
        <time>2014-02-13T15:33:30Z</time>
      </trkpt>
      <trkpt lat="44.19226" lon="3.0935">
        <ele>616</ele>
        <time>2014-02-13T15:33:34Z</time>
      </trkpt>
      <trkpt lat="44.19221" lon="3.09345">
        <ele>616</ele>
        <time>2014-02-13T15:33:38Z</time>
      </trkpt>
      <trkpt lat="44.19217" lon="3.09341">
        <ele>616</ele>
        <time>2014-02-13T15:33:42Z</time>
      </trkpt>
      <trkpt lat="44.19212" lon="3.09337">
        <ele>616</ele>
        <time>2014-02-13T15:33:46Z</time>
      </trkpt>
      <trkpt lat="44.19207" lon="3.09333">
        <ele>616</ele>
        <time>2014-02-13T15:33:49Z</time>
      </trkpt>
      <trkpt lat="44.19203" lon="3.0933">
        <ele>616</ele>
        <time>2014-02-13T15:33:52Z</time>
      </trkpt>
      <trkpt lat="44.19198" lon="3.09326">
        <ele>616</ele>
        <time>2014-02-13T15:33:56Z</time>
      </trkpt>
      <trkpt lat="44.19194" lon="3.09322">
        <ele>616</ele>
        <time>2014-02-13T15:33:59Z</time>
      </trkpt>
      <trkpt lat="44.19189" lon="3.09319">
        <ele>615</ele>
        <time>2014-02-13T15:34:02Z</time>
      </trkpt>
      <trkpt lat="44.19185" lon="3.09316">
        <ele>615</ele>
        <time>2014-02-13T15:34:05Z</time>
      </trkpt>
      <trkpt lat="44.19182" lon="3.09311">
        <ele>615</ele>
        <time>2014-02-13T15:34:09Z</time>
      </trkpt>
      <trkpt lat="44.19178" lon="3.09305">
        <ele>614</ele>
        <time>2014-02-13T15:34:13Z</time>
      </trkpt>
      <trkpt lat="44.19175" lon="3.093">
        <ele>614</ele>
        <time>2014-02-13T15:34:16Z</time>
      </trkpt>
      <trkpt lat="44.19173" lon="3.09294">
        <ele>613</ele>
        <time>2014-02-13T15:34:19Z</time>
      </trkpt>
      <trkpt lat="44.1917" lon="3.09287">
        <ele>612</ele>
        <time>2014-02-13T15:34:23Z</time>
      </trkpt>
      <trkpt lat="44.19166" lon="3.0928">
        <ele>610</ele>
        <time>2014-02-13T15:34:27Z</time>
      </trkpt>
      <trkpt lat="44.19163" lon="3.09275">
        <ele>609</ele>
        <time>2014-02-13T15:34:30Z</time>
      </trkpt>
      <trkpt lat="44.1916" lon="3.09269">
        <ele>608</ele>
        <time>2014-02-13T15:34:34Z</time>
      </trkpt>
      <trkpt lat="44.19157" lon="3.09263">
        <ele>607</ele>
        <time>2014-02-13T15:34:38Z</time>
      </trkpt>
      <trkpt lat="44.19153" lon="3.09257">
        <ele>605</ele>
        <time>2014-02-13T15:34:42Z</time>
      </trkpt>
      <trkpt lat="44.1915" lon="3.09251">
        <ele>605</ele>
        <time>2014-02-13T15:34:46Z</time>
      </trkpt>
      <trkpt lat="44.19146" lon="3.09247">
        <ele>605</ele>
        <time>2014-02-13T15:34:50Z</time>
      </trkpt>
      <trkpt lat="44.19141" lon="3.09242">
        <ele>604</ele>
        <time>2014-02-13T15:34:54Z</time>
      </trkpt>
      <trkpt lat="44.19138" lon="3.09237">
        <ele>604</ele>
        <time>2014-02-13T15:34:58Z</time>
      </trkpt>
      <trkpt lat="44.19137" lon="3.09231">
        <ele>602</ele>
        <time>2014-02-13T15:35:07Z</time>
      </trkpt>
      <trkpt lat="44.1914" lon="3.09227">
        <ele>602</ele>
        <time>2014-02-13T15:35:12Z</time>
      </trkpt>
      <trkpt lat="44.19141" lon="3.09223">
        <ele>601</ele>
        <time>2014-02-13T15:35:18Z</time>
      </trkpt>
      <trkpt lat="44.19143" lon="3.09217">
        <ele>600</ele>
        <time>2014-02-13T15:35:25Z</time>
      </trkpt>
      <trkpt lat="44.19147" lon="3.09213">
        <ele>598</ele>
        <time>2014-02-13T15:35:29Z</time>
      </trkpt>
      <trkpt lat="44.19151" lon="3.09215">
        <ele>597</ele>
        <time>2014-02-13T15:35:34Z</time>
      </trkpt>
      <trkpt lat="44.19155" lon="3.09209">
        <ele>596</ele>
        <time>2014-02-13T15:35:40Z</time>
      </trkpt>
      <trkpt lat="44.19157" lon="3.09203">
        <ele>595</ele>
        <time>2014-02-13T15:35:43Z</time>
      </trkpt>
      <trkpt lat="44.1916" lon="3.09197">
        <ele>595</ele>
        <time>2014-02-13T15:35:47Z</time>
      </trkpt>
      <trkpt lat="44.19164" lon="3.09193">
        <ele>594</ele>
        <time>2014-02-13T15:35:51Z</time>
      </trkpt>
      <trkpt lat="44.19168" lon="3.09186">
        <ele>593</ele>
        <time>2014-02-13T15:35:54Z</time>
      </trkpt>
      <trkpt lat="44.19171" lon="3.0918">
        <ele>592</ele>
        <time>2014-02-13T15:35:57Z</time>
      </trkpt>
      <trkpt lat="44.19173" lon="3.09173">
        <ele>591</ele>
        <time>2014-02-13T15:36:00Z</time>
      </trkpt>
      <trkpt lat="44.19176" lon="3.09165">
        <ele>590</ele>
        <time>2014-02-13T15:36:03Z</time>
      </trkpt>
      <trkpt lat="44.19178" lon="3.09159">
        <ele>589</ele>
        <time>2014-02-13T15:36:06Z</time>
      </trkpt>
      <trkpt lat="44.19181" lon="3.09152">
        <ele>588</ele>
        <time>2014-02-13T15:36:10Z</time>
      </trkpt>
      <trkpt lat="44.19185" lon="3.09147">
        <ele>588</ele>
        <time>2014-02-13T15:36:14Z</time>
      </trkpt>
      <trkpt lat="44.19187" lon="3.09141">
        <ele>588</ele>
        <time>2014-02-13T15:36:18Z</time>
      </trkpt>
      <trkpt lat="44.19189" lon="3.09134">
        <ele>588</ele>
        <time>2014-02-13T15:36:21Z</time>
      </trkpt>
      <trkpt lat="44.19191" lon="3.09127">
        <ele>588</ele>
        <time>2014-02-13T15:36:24Z</time>
      </trkpt>
      <trkpt lat="44.19194" lon="3.09122">
        <ele>588</ele>
        <time>2014-02-13T15:36:27Z</time>
      </trkpt>
      <trkpt lat="44.19197" lon="3.09117">
        <ele>587</ele>
        <time>2014-02-13T15:36:30Z</time>
      </trkpt>
      <trkpt lat="44.19201" lon="3.09113">
        <ele>587</ele>
        <time>2014-02-13T15:36:33Z</time>
      </trkpt>
      <trkpt lat="44.19205" lon="3.09108">
        <ele>587</ele>
        <time>2014-02-13T15:36:36Z</time>
      </trkpt>
      <trkpt lat="44.19209" lon="3.09106">
        <ele>586</ele>
        <time>2014-02-13T15:36:40Z</time>
      </trkpt>
      <trkpt lat="44.19214" lon="3.0911">
        <ele>585</ele>
        <time>2014-02-13T15:36:44Z</time>
      </trkpt>
      <trkpt lat="44.19219" lon="3.09111">
        <ele>586</ele>
        <time>2014-02-13T15:36:47Z</time>
      </trkpt>
      <trkpt lat="44.19225" lon="3.09113">
        <ele>585</ele>
        <time>2014-02-13T15:36:51Z</time>
      </trkpt>
      <trkpt lat="44.1923" lon="3.09112">
        <ele>585</ele>
        <time>2014-02-13T15:36:55Z</time>
      </trkpt>
      <trkpt lat="44.19236" lon="3.09111">
        <ele>585</ele>
        <time>2014-02-13T15:36:59Z</time>
      </trkpt>
      <trkpt lat="44.1924" lon="3.09108">
        <ele>585</ele>
        <time>2014-02-13T15:37:02Z</time>
      </trkpt>
      <trkpt lat="44.19246" lon="3.09104">
        <ele>585</ele>
        <time>2014-02-13T15:37:06Z</time>
      </trkpt>
      <trkpt lat="44.1925" lon="3.091">
        <ele>586</ele>
        <time>2014-02-13T15:37:10Z</time>
      </trkpt>
      <trkpt lat="44.1925" lon="3.09094">
        <ele>586</ele>
        <time>2014-02-13T15:37:13Z</time>
      </trkpt>
      <trkpt lat="44.19251" lon="3.09087">
        <ele>588</ele>
        <time>2014-02-13T15:37:16Z</time>
      </trkpt>
      <trkpt lat="44.19252" lon="3.0908">
        <ele>588</ele>
        <time>2014-02-13T15:37:19Z</time>
      </trkpt>
      <trkpt lat="44.19251" lon="3.09071">
        <ele>588</ele>
        <time>2014-02-13T15:37:22Z</time>
      </trkpt>
      <trkpt lat="44.1925" lon="3.09063">
        <ele>588</ele>
        <time>2014-02-13T15:37:25Z</time>
      </trkpt>
      <trkpt lat="44.19249" lon="3.09057">
        <ele>589</ele>
        <time>2014-02-13T15:37:28Z</time>
      </trkpt>
      <trkpt lat="44.19248" lon="3.09049">
        <ele>589</ele>
        <time>2014-02-13T15:37:32Z</time>
      </trkpt>
      <trkpt lat="44.19248" lon="3.09041">
        <ele>591</ele>
        <time>2014-02-13T15:37:36Z</time>
      </trkpt>
      <trkpt lat="44.19247" lon="3.09034">
        <ele>592</ele>
        <time>2014-02-13T15:37:40Z</time>
      </trkpt>
      <trkpt lat="44.19246" lon="3.09027">
        <ele>592</ele>
        <time>2014-02-13T15:37:43Z</time>
      </trkpt>
      <trkpt lat="44.19243" lon="3.0902">
        <ele>592</ele>
        <time>2014-02-13T15:37:46Z</time>
      </trkpt>
      <trkpt lat="44.1924" lon="3.09014">
        <ele>592</ele>
        <time>2014-02-13T15:37:49Z</time>
      </trkpt>
      <trkpt lat="44.19237" lon="3.09007">
        <ele>591</ele>
        <time>2014-02-13T15:37:52Z</time>
      </trkpt>
      <trkpt lat="44.19234" lon="3.09001">
        <ele>591</ele>
        <time>2014-02-13T15:37:55Z</time>
      </trkpt>
      <trkpt lat="44.1923" lon="3.08996">
        <ele>592</ele>
        <time>2014-02-13T15:37:58Z</time>
      </trkpt>
      <trkpt lat="44.19228" lon="3.0899">
        <ele>592</ele>
        <time>2014-02-13T15:38:01Z</time>
      </trkpt>
      <trkpt lat="44.19226" lon="3.08983">
        <ele>591</ele>
        <time>2014-02-13T15:38:05Z</time>
      </trkpt>
      <trkpt lat="44.19226" lon="3.08976">
        <ele>590</ele>
        <time>2014-02-13T15:38:08Z</time>
      </trkpt>
      <trkpt lat="44.19227" lon="3.08969">
        <ele>590</ele>
        <time>2014-02-13T15:38:12Z</time>
      </trkpt>
      <trkpt lat="44.1923" lon="3.08962">
        <ele>590</ele>
        <time>2014-02-13T15:38:16Z</time>
      </trkpt>
      <trkpt lat="44.19232" lon="3.08954">
        <ele>590</ele>
        <time>2014-02-13T15:38:19Z</time>
      </trkpt>
      <trkpt lat="44.19234" lon="3.08946">
        <ele>589</ele>
        <time>2014-02-13T15:38:21Z</time>
      </trkpt>
      <trkpt lat="44.19237" lon="3.08939">
        <ele>588</ele>
        <time>2014-02-13T15:38:24Z</time>
      </trkpt>
      <trkpt lat="44.19242" lon="3.08935">
        <ele>587</ele>
        <time>2014-02-13T15:38:29Z</time>
      </trkpt>
      <trkpt lat="44.19248" lon="3.0893">
        <ele>587</ele>
        <time>2014-02-13T15:38:32Z</time>
      </trkpt>
      <trkpt lat="44.19251" lon="3.08923">
        <ele>587</ele>
        <time>2014-02-13T15:38:35Z</time>
      </trkpt>
      <trkpt lat="44.19253" lon="3.08918">
        <ele>587</ele>
        <time>2014-02-13T15:38:39Z</time>
      </trkpt>
      <trkpt lat="44.19256" lon="3.08912">
        <ele>586</ele>
        <time>2014-02-13T15:38:42Z</time>
      </trkpt>
      <trkpt lat="44.19259" lon="3.08906">
        <ele>587</ele>
        <time>2014-02-13T15:38:45Z</time>
      </trkpt>
      <trkpt lat="44.19262" lon="3.089">
        <ele>586</ele>
        <time>2014-02-13T15:38:48Z</time>
      </trkpt>
      <trkpt lat="44.19265" lon="3.08895">
        <ele>587</ele>
        <time>2014-02-13T15:38:51Z</time>
      </trkpt>
      <trkpt lat="44.19269" lon="3.0889">
        <ele>587</ele>
        <time>2014-02-13T15:38:54Z</time>
      </trkpt>
      <trkpt lat="44.19272" lon="3.08885">
        <ele>587</ele>
        <time>2014-02-13T15:38:57Z</time>
      </trkpt>
      <trkpt lat="44.19276" lon="3.08882">
        <ele>588</ele>
        <time>2014-02-13T15:39:00Z</time>
      </trkpt>
      <trkpt lat="44.19279" lon="3.08878">
        <ele>588</ele>
        <time>2014-02-13T15:39:03Z</time>
      </trkpt>
      <trkpt lat="44.19282" lon="3.08871">
        <ele>588</ele>
        <time>2014-02-13T15:39:06Z</time>
      </trkpt>
      <trkpt lat="44.19284" lon="3.08865">
        <ele>588</ele>
        <time>2014-02-13T15:39:09Z</time>
      </trkpt>
      <trkpt lat="44.19287" lon="3.0886">
        <ele>588</ele>
        <time>2014-02-13T15:39:12Z</time>
      </trkpt>
      <trkpt lat="44.19291" lon="3.08854">
        <ele>588</ele>
        <time>2014-02-13T15:39:16Z</time>
      </trkpt>
      <trkpt lat="44.19296" lon="3.08851">
        <ele>585</ele>
        <time>2014-02-13T15:39:21Z</time>
      </trkpt>
      <trkpt lat="44.19299" lon="3.08844">
        <ele>583</ele>
        <time>2014-02-13T15:39:25Z</time>
      </trkpt>
      <trkpt lat="44.19302" lon="3.08836">
        <ele>583</ele>
        <time>2014-02-13T15:39:28Z</time>
      </trkpt>
      <trkpt lat="44.19305" lon="3.08831">
        <ele>583</ele>
        <time>2014-02-13T15:39:31Z</time>
      </trkpt>
      <trkpt lat="44.19309" lon="3.08827">
        <ele>582</ele>
        <time>2014-02-13T15:39:35Z</time>
      </trkpt>
      <trkpt lat="44.19313" lon="3.08821">
        <ele>582</ele>
        <time>2014-02-13T15:39:39Z</time>
      </trkpt>
      <trkpt lat="44.19316" lon="3.08815">
        <ele>582</ele>
        <time>2014-02-13T15:39:42Z</time>
      </trkpt>
      <trkpt lat="44.19319" lon="3.08808">
        <ele>582</ele>
        <time>2014-02-13T15:39:45Z</time>
      </trkpt>
      <trkpt lat="44.19321" lon="3.08801">
        <ele>582</ele>
        <time>2014-02-13T15:39:48Z</time>
      </trkpt>
      <trkpt lat="44.19323" lon="3.08796">
        <ele>581</ele>
        <time>2014-02-13T15:39:51Z</time>
      </trkpt>
      <trkpt lat="44.19327" lon="3.08791">
        <ele>581</ele>
        <time>2014-02-13T15:39:54Z</time>
      </trkpt>
      <trkpt lat="44.1933" lon="3.08787">
        <ele>581</ele>
        <time>2014-02-13T15:39:57Z</time>
      </trkpt>
      <trkpt lat="44.19334" lon="3.0878">
        <ele>581</ele>
        <time>2014-02-13T15:40:01Z</time>
      </trkpt>
      <trkpt lat="44.19336" lon="3.08773">
        <ele>580</ele>
        <time>2014-02-13T15:40:04Z</time>
      </trkpt>
      <trkpt lat="44.19336" lon="3.08764">
        <ele>579</ele>
        <time>2014-02-13T15:40:06Z</time>
      </trkpt>
      <trkpt lat="44.19336" lon="3.08756">
        <ele>579</ele>
        <time>2014-02-13T15:40:08Z</time>
      </trkpt>
      <trkpt lat="44.19337" lon="3.08752">
        <ele>578</ele>
        <time>2014-02-13T15:40:10Z</time>
      </trkpt>
      <trkpt lat="44.19342" lon="3.08748">
        <ele>577</ele>
        <time>2014-02-13T15:40:16Z</time>
      </trkpt>
      <trkpt lat="44.19345" lon="3.08743">
        <ele>577</ele>
        <time>2014-02-13T15:40:20Z</time>
      </trkpt>
      <trkpt lat="44.19346" lon="3.08736">
        <ele>576</ele>
        <time>2014-02-13T15:40:23Z</time>
      </trkpt>
      <trkpt lat="44.19347" lon="3.08729">
        <ele>575</ele>
        <time>2014-02-13T15:40:25Z</time>
      </trkpt>
      <trkpt lat="44.1935" lon="3.08723">
        <ele>575</ele>
        <time>2014-02-13T15:40:28Z</time>
      </trkpt>
      <trkpt lat="44.19353" lon="3.08718">
        <ele>575</ele>
        <time>2014-02-13T15:40:31Z</time>
      </trkpt>
      <trkpt lat="44.19354" lon="3.08711">
        <ele>574</ele>
        <time>2014-02-13T15:40:36Z</time>
      </trkpt>
      <trkpt lat="44.19353" lon="3.08703">
        <ele>574</ele>
        <time>2014-02-13T15:40:40Z</time>
      </trkpt>
      <trkpt lat="44.19351" lon="3.08695">
        <ele>574</ele>
        <time>2014-02-13T15:40:44Z</time>
      </trkpt>
      <trkpt lat="44.19349" lon="3.08688">
        <ele>573</ele>
        <time>2014-02-13T15:40:48Z</time>
      </trkpt>
      <trkpt lat="44.19347" lon="3.08681">
        <ele>572</ele>
        <time>2014-02-13T15:40:53Z</time>
      </trkpt>
      <trkpt lat="44.19345" lon="3.08674">
        <ele>572</ele>
        <time>2014-02-13T15:40:56Z</time>
      </trkpt>
      <trkpt lat="44.19346" lon="3.08667">
        <ele>572</ele>
        <time>2014-02-13T15:41:00Z</time>
      </trkpt>
      <trkpt lat="44.19345" lon="3.08659">
        <ele>571</ele>
        <time>2014-02-13T15:41:04Z</time>
      </trkpt>
      <trkpt lat="44.19345" lon="3.08651">
        <ele>571</ele>
        <time>2014-02-13T15:41:08Z</time>
      </trkpt>
      <trkpt lat="44.19347" lon="3.08645">
        <ele>571</ele>
        <time>2014-02-13T15:41:12Z</time>
      </trkpt>
      <trkpt lat="44.19346" lon="3.08638">
        <ele>570</ele>
        <time>2014-02-13T15:41:16Z</time>
      </trkpt>
      <trkpt lat="44.19347" lon="3.08631">
        <ele>570</ele>
        <time>2014-02-13T15:41:21Z</time>
      </trkpt>
      <trkpt lat="44.19347" lon="3.08625">
        <ele>570</ele>
        <time>2014-02-13T15:41:27Z</time>
      </trkpt>
      <trkpt lat="44.19347" lon="3.08617">
        <ele>569</ele>
        <time>2014-02-13T15:41:32Z</time>
      </trkpt>
      <trkpt lat="44.19346" lon="3.0861">
        <ele>569</ele>
        <time>2014-02-13T15:41:36Z</time>
      </trkpt>
      <trkpt lat="44.19348" lon="3.08604">
        <ele>569</ele>
        <time>2014-02-13T15:41:40Z</time>
      </trkpt>
      <trkpt lat="44.19349" lon="3.08597">
        <ele>570</ele>
        <time>2014-02-13T15:41:45Z</time>
      </trkpt>
      <trkpt lat="44.19349" lon="3.08589">
        <ele>571</ele>
        <time>2014-02-13T15:41:50Z</time>
      </trkpt>
      <trkpt lat="44.19348" lon="3.08582">
        <ele>571</ele>
        <time>2014-02-13T15:41:53Z</time>
      </trkpt>
      <trkpt lat="44.19346" lon="3.08576">
        <ele>571</ele>
        <time>2014-02-13T15:41:57Z</time>
      </trkpt>
      <trkpt lat="44.19346" lon="3.08569">
        <ele>571</ele>
        <time>2014-02-13T15:42:01Z</time>
      </trkpt>
      <trkpt lat="44.19345" lon="3.08562">
        <ele>571</ele>
        <time>2014-02-13T15:42:06Z</time>
      </trkpt>
      <trkpt lat="44.19343" lon="3.08555">
        <ele>572</ele>
        <time>2014-02-13T15:42:10Z</time>
      </trkpt>
      <trkpt lat="44.19342" lon="3.08548">
        <ele>572</ele>
        <time>2014-02-13T15:42:13Z</time>
      </trkpt>
      <trkpt lat="44.19341" lon="3.08541">
        <ele>572</ele>
        <time>2014-02-13T15:42:17Z</time>
      </trkpt>
      <trkpt lat="44.1934" lon="3.08534">
        <ele>572</ele>
        <time>2014-02-13T15:42:21Z</time>
      </trkpt>
      <trkpt lat="44.19339" lon="3.08526">
        <ele>572</ele>
        <time>2014-02-13T15:42:25Z</time>
      </trkpt>
      <trkpt lat="44.19338" lon="3.08518">
        <ele>573</ele>
        <time>2014-02-13T15:42:29Z</time>
      </trkpt>
      <trkpt lat="44.19336" lon="3.08511">
        <ele>573</ele>
        <time>2014-02-13T15:42:32Z</time>
      </trkpt>
      <trkpt lat="44.19335" lon="3.08504">
        <ele>573</ele>
        <time>2014-02-13T15:42:36Z</time>
      </trkpt>
      <trkpt lat="44.19334" lon="3.08497">
        <ele>573</ele>
        <time>2014-02-13T15:42:39Z</time>
      </trkpt>
      <trkpt lat="44.19334" lon="3.08489">
        <ele>572</ele>
        <time>2014-02-13T15:42:44Z</time>
      </trkpt>
      <trkpt lat="44.19333" lon="3.08481">
        <ele>572</ele>
        <time>2014-02-13T15:42:47Z</time>
      </trkpt>
      <trkpt lat="44.19331" lon="3.08474">
        <ele>571</ele>
        <time>2014-02-13T15:42:51Z</time>
      </trkpt>
      <trkpt lat="44.19332" lon="3.08467">
        <ele>571</ele>
        <time>2014-02-13T15:42:56Z</time>
      </trkpt>
      <trkpt lat="44.19334" lon="3.08461">
        <ele>572</ele>
        <time>2014-02-13T15:43:00Z</time>
      </trkpt>
      <trkpt lat="44.19332" lon="3.08454">
        <ele>572</ele>
        <time>2014-02-13T15:43:03Z</time>
      </trkpt>
      <trkpt lat="44.1933" lon="3.08448">
        <ele>572</ele>
        <time>2014-02-13T15:43:06Z</time>
      </trkpt>
      <trkpt lat="44.19328" lon="3.08441">
        <ele>573</ele>
        <time>2014-02-13T15:43:10Z</time>
      </trkpt>
      <trkpt lat="44.19326" lon="3.08434">
        <ele>573</ele>
        <time>2014-02-13T15:43:14Z</time>
      </trkpt>
      <trkpt lat="44.19325" lon="3.08426">
        <ele>574</ele>
        <time>2014-02-13T15:43:18Z</time>
      </trkpt>
      <trkpt lat="44.19325" lon="3.08419">
        <ele>575</ele>
        <time>2014-02-13T15:43:21Z</time>
      </trkpt>
      <trkpt lat="44.19325" lon="3.08411">
        <ele>576</ele>
        <time>2014-02-13T15:43:25Z</time>
      </trkpt>
      <trkpt lat="44.19323" lon="3.08404">
        <ele>577</ele>
        <time>2014-02-13T15:43:29Z</time>
      </trkpt>
      <trkpt lat="44.19322" lon="3.08397">
        <ele>577</ele>
        <time>2014-02-13T15:43:34Z</time>
      </trkpt>
      <trkpt lat="44.19322" lon="3.08391">
        <ele>578</ele>
        <time>2014-02-13T15:43:39Z</time>
      </trkpt>
      <trkpt lat="44.19324" lon="3.08384">
        <ele>579</ele>
        <time>2014-02-13T15:43:44Z</time>
      </trkpt>
      <trkpt lat="44.19323" lon="3.08377">
        <ele>579</ele>
        <time>2014-02-13T15:43:48Z</time>
      </trkpt>
      <trkpt lat="44.19322" lon="3.08369">
        <ele>580</ele>
        <time>2014-02-13T15:43:52Z</time>
      </trkpt>
      <trkpt lat="44.1932" lon="3.08362">
        <ele>580</ele>
        <time>2014-02-13T15:43:56Z</time>
      </trkpt>
      <trkpt lat="44.1932" lon="3.08353">
        <ele>581</ele>
        <time>2014-02-13T15:43:59Z</time>
      </trkpt>
      <trkpt lat="44.1932" lon="3.08347">
        <ele>581</ele>
        <time>2014-02-13T15:44:02Z</time>
      </trkpt>
      <trkpt lat="44.1932" lon="3.08339">
        <ele>582</ele>
        <time>2014-02-13T15:44:06Z</time>
      </trkpt>
      <trkpt lat="44.19318" lon="3.08332">
        <ele>583</ele>
        <time>2014-02-13T15:44:09Z</time>
      </trkpt>
      <trkpt lat="44.19316" lon="3.08326">
        <ele>584</ele>
        <time>2014-02-13T15:44:12Z</time>
      </trkpt>
      <trkpt lat="44.19314" lon="3.0832">
        <ele>585</ele>
        <time>2014-02-13T15:44:16Z</time>
      </trkpt>
      <trkpt lat="44.19311" lon="3.08314">
        <ele>585</ele>
        <time>2014-02-13T15:44:21Z</time>
      </trkpt>
      <trkpt lat="44.19309" lon="3.08308">
        <ele>585</ele>
        <time>2014-02-13T15:44:25Z</time>
      </trkpt>
      <trkpt lat="44.19308" lon="3.08302">
        <ele>585</ele>
        <time>2014-02-13T15:44:29Z</time>
      </trkpt>
      <trkpt lat="44.19306" lon="3.08296">
        <ele>585</ele>
        <time>2014-02-13T15:44:32Z</time>
      </trkpt>
      <trkpt lat="44.19305" lon="3.08289">
        <ele>586</ele>
        <time>2014-02-13T15:44:35Z</time>
      </trkpt>
      <trkpt lat="44.19303" lon="3.08283">
        <ele>587</ele>
        <time>2014-02-13T15:44:38Z</time>
      </trkpt>
      <trkpt lat="44.19301" lon="3.08276">
        <ele>587</ele>
        <time>2014-02-13T15:44:41Z</time>
      </trkpt>
      <trkpt lat="44.19299" lon="3.0827">
        <ele>588</ele>
        <time>2014-02-13T15:44:45Z</time>
      </trkpt>
      <trkpt lat="44.19298" lon="3.08264">
        <ele>588</ele>
        <time>2014-02-13T15:44:49Z</time>
      </trkpt>
      <trkpt lat="44.19296" lon="3.08258">
        <ele>589</ele>
        <time>2014-02-13T15:44:53Z</time>
      </trkpt>
      <trkpt lat="44.19294" lon="3.0825">
        <ele>589</ele>
        <time>2014-02-13T15:44:57Z</time>
      </trkpt>
      <trkpt lat="44.19293" lon="3.08243">
        <ele>588</ele>
        <time>2014-02-13T15:45:02Z</time>
      </trkpt>
      <trkpt lat="44.1929" lon="3.08236">
        <ele>588</ele>
        <time>2014-02-13T15:45:07Z</time>
      </trkpt>
      <trkpt lat="44.19291" lon="3.08229">
        <ele>588</ele>
        <time>2014-02-13T15:45:12Z</time>
      </trkpt>
      <trkpt lat="44.19289" lon="3.08221">
        <ele>588</ele>
        <time>2014-02-13T15:45:16Z</time>
      </trkpt>
      <trkpt lat="44.19287" lon="3.08214">
        <ele>588</ele>
        <time>2014-02-13T15:45:20Z</time>
      </trkpt>
      <trkpt lat="44.19285" lon="3.08206">
        <ele>587</ele>
        <time>2014-02-13T15:45:23Z</time>
      </trkpt>
      <trkpt lat="44.19283" lon="3.082">
        <ele>587</ele>
        <time>2014-02-13T15:45:26Z</time>
      </trkpt>
      <trkpt lat="44.19283" lon="3.08192">
        <ele>588</ele>
        <time>2014-02-13T15:45:33Z</time>
      </trkpt>
      <trkpt lat="44.19285" lon="3.08186">
        <ele>588</ele>
        <time>2014-02-13T15:45:37Z</time>
      </trkpt>
      <trkpt lat="44.19286" lon="3.0818">
        <ele>590</ele>
        <time>2014-02-13T15:45:42Z</time>
      </trkpt>
      <trkpt lat="44.19284" lon="3.08172">
        <ele>591</ele>
        <time>2014-02-13T15:45:46Z</time>
      </trkpt>
      <trkpt lat="44.19288" lon="3.08171">
        <ele>591</ele>
        <time>2014-02-13T15:45:59Z</time>
      </trkpt>
      <trkpt lat="44.19286" lon="3.0817">
        <ele>588</ele>
        <time>2014-02-13T15:46:20Z</time>
      </trkpt>
      <trkpt lat="44.19285" lon="3.08163">
        <ele>588</ele>
        <time>2014-02-13T15:46:23Z</time>
      </trkpt>
      <trkpt lat="44.19285" lon="3.08156">
        <ele>589</ele>
        <time>2014-02-13T15:46:26Z</time>
      </trkpt>
      <trkpt lat="44.19285" lon="3.08149">
        <ele>589</ele>
        <time>2014-02-13T15:46:29Z</time>
      </trkpt>
      <trkpt lat="44.19285" lon="3.08141">
        <ele>589</ele>
        <time>2014-02-13T15:46:32Z</time>
      </trkpt>
      <trkpt lat="44.19285" lon="3.08133">
        <ele>589</ele>
        <time>2014-02-13T15:46:34Z</time>
      </trkpt>
      <trkpt lat="44.19285" lon="3.08127">
        <ele>589</ele>
        <time>2014-02-13T15:46:38Z</time>
      </trkpt>
      <trkpt lat="44.19287" lon="3.08119">
        <ele>589</ele>
        <time>2014-02-13T15:46:45Z</time>
      </trkpt>
      <trkpt lat="44.19288" lon="3.08111">
        <ele>589</ele>
        <time>2014-02-13T15:46:48Z</time>
      </trkpt>
      <trkpt lat="44.19288" lon="3.08103">
        <ele>589</ele>
        <time>2014-02-13T15:46:51Z</time>
      </trkpt>
      <trkpt lat="44.19289" lon="3.08096">
        <ele>589</ele>
        <time>2014-02-13T15:46:54Z</time>
      </trkpt>
      <trkpt lat="44.1929" lon="3.0809">
        <ele>588</ele>
        <time>2014-02-13T15:46:59Z</time>
      </trkpt>
      <trkpt lat="44.19292" lon="3.08083">
        <ele>588</ele>
        <time>2014-02-13T15:47:06Z</time>
      </trkpt>
      <trkpt lat="44.19291" lon="3.08076">
        <ele>588</ele>
        <time>2014-02-13T15:47:10Z</time>
      </trkpt>
      <trkpt lat="44.19294" lon="3.08069">
        <ele>588</ele>
        <time>2014-02-13T15:47:14Z</time>
      </trkpt>
      <trkpt lat="44.19296" lon="3.08061">
        <ele>588</ele>
        <time>2014-02-13T15:47:18Z</time>
      </trkpt>
      <trkpt lat="44.19296" lon="3.08054">
        <ele>588</ele>
        <time>2014-02-13T15:47:21Z</time>
      </trkpt>
      <trkpt lat="44.19297" lon="3.08048">
        <ele>587</ele>
        <time>2014-02-13T15:47:25Z</time>
      </trkpt>
      <trkpt lat="44.19303" lon="3.08048">
        <ele>587</ele>
        <time>2014-02-13T15:47:30Z</time>
      </trkpt>
      <trkpt lat="44.19308" lon="3.08046">
        <ele>587</ele>
        <time>2014-02-13T15:47:34Z</time>
      </trkpt>
      <trkpt lat="44.19314" lon="3.08044">
        <ele>587</ele>
        <time>2014-02-13T15:47:38Z</time>
      </trkpt>
      <trkpt lat="44.19319" lon="3.08046">
        <ele>586</ele>
        <time>2014-02-13T15:47:43Z</time>
      </trkpt>
      <trkpt lat="44.19323" lon="3.08049">
        <ele>586</ele>
        <time>2014-02-13T15:47:47Z</time>
      </trkpt>
      <trkpt lat="44.19328" lon="3.08051">
        <ele>585</ele>
        <time>2014-02-13T15:47:50Z</time>
      </trkpt>
      <trkpt lat="44.19333" lon="3.08053">
        <ele>585</ele>
        <time>2014-02-13T15:47:54Z</time>
      </trkpt>
      <trkpt lat="44.19338" lon="3.08057">
        <ele>585</ele>
        <time>2014-02-13T15:47:58Z</time>
      </trkpt>
      <trkpt lat="44.19343" lon="3.0806">
        <ele>584</ele>
        <time>2014-02-13T15:48:02Z</time>
      </trkpt>
      <trkpt lat="44.19348" lon="3.08062">
        <ele>584</ele>
        <time>2014-02-13T15:48:07Z</time>
      </trkpt>
      <trkpt lat="44.19353" lon="3.08062">
        <ele>583</ele>
        <time>2014-02-13T15:48:12Z</time>
      </trkpt>
      <trkpt lat="44.19358" lon="3.0806">
        <ele>583</ele>
        <time>2014-02-13T15:48:15Z</time>
      </trkpt>
      <trkpt lat="44.19363" lon="3.08058">
        <ele>582</ele>
        <time>2014-02-13T15:48:19Z</time>
      </trkpt>
      <trkpt lat="44.19367" lon="3.08061">
        <ele>582</ele>
        <time>2014-02-13T15:48:23Z</time>
      </trkpt>
      <trkpt lat="44.19372" lon="3.08065">
        <ele>581</ele>
        <time>2014-02-13T15:48:26Z</time>
      </trkpt>
      <trkpt lat="44.19376" lon="3.08069">
        <ele>580</ele>
        <time>2014-02-13T15:48:29Z</time>
      </trkpt>
      <trkpt lat="44.19381" lon="3.0807">
        <ele>580</ele>
        <time>2014-02-13T15:48:33Z</time>
      </trkpt>
      <trkpt lat="44.19387" lon="3.08069">
        <ele>580</ele>
        <time>2014-02-13T15:48:37Z</time>
      </trkpt>
      <trkpt lat="44.19393" lon="3.08068">
        <ele>580</ele>
        <time>2014-02-13T15:48:41Z</time>
      </trkpt>
      <trkpt lat="44.19398" lon="3.08068">
        <ele>580</ele>
        <time>2014-02-13T15:48:45Z</time>
      </trkpt>
      <trkpt lat="44.19404" lon="3.0807">
        <ele>580</ele>
        <time>2014-02-13T15:48:48Z</time>
      </trkpt>
      <trkpt lat="44.19408" lon="3.08071">
        <ele>581</ele>
        <time>2014-02-13T15:48:50Z</time>
      </trkpt>
      <trkpt lat="44.19413" lon="3.08071">
        <ele>580</ele>
        <time>2014-02-13T15:48:53Z</time>
      </trkpt>
      <trkpt lat="44.19418" lon="3.08072">
        <ele>579</ele>
        <time>2014-02-13T15:48:57Z</time>
      </trkpt>
      <trkpt lat="44.19423" lon="3.08072">
        <ele>579</ele>
        <time>2014-02-13T15:49:02Z</time>
      </trkpt>
      <trkpt lat="44.19428" lon="3.08072">
        <ele>578</ele>
        <time>2014-02-13T15:49:06Z</time>
      </trkpt>
      <trkpt lat="44.19433" lon="3.08073">
        <ele>577</ele>
        <time>2014-02-13T15:49:10Z</time>
      </trkpt>
      <trkpt lat="44.19439" lon="3.08071">
        <ele>574</ele>
        <time>2014-02-13T15:49:16Z</time>
      </trkpt>
      <trkpt lat="44.19443" lon="3.08068">
        <ele>573</ele>
        <time>2014-02-13T15:49:20Z</time>
      </trkpt>
      <trkpt lat="44.19449" lon="3.08064">
        <ele>572</ele>
        <time>2014-02-13T15:49:24Z</time>
      </trkpt>
      <trkpt lat="44.19452" lon="3.08061">
        <ele>571</ele>
        <time>2014-02-13T15:49:27Z</time>
      </trkpt>
      <trkpt lat="44.19458" lon="3.0806">
        <ele>570</ele>
        <time>2014-02-13T15:49:32Z</time>
      </trkpt>
      <trkpt lat="44.19463" lon="3.08059">
        <ele>569</ele>
        <time>2014-02-13T15:49:37Z</time>
      </trkpt>
      <trkpt lat="44.19467" lon="3.0806">
        <ele>569</ele>
        <time>2014-02-13T15:49:47Z</time>
      </trkpt>
      <trkpt lat="44.19471" lon="3.08061">
        <ele>567</ele>
        <time>2014-02-13T15:50:08Z</time>
      </trkpt>
      <trkpt lat="44.19469" lon="3.0806">
        <ele>567</ele>
        <time>2014-02-13T15:50:31Z</time>
      </trkpt>
      <trkpt lat="44.19472" lon="3.08053">
        <ele>567</ele>
        <time>2014-02-13T15:50:34Z</time>
      </trkpt>
      <trkpt lat="44.19473" lon="3.08044">
        <ele>567</ele>
        <time>2014-02-13T15:50:37Z</time>
      </trkpt>
      <trkpt lat="44.19474" lon="3.08038">
        <ele>567</ele>
        <time>2014-02-13T15:50:40Z</time>
      </trkpt>
      <trkpt lat="44.19475" lon="3.0803">
        <ele>567</ele>
        <time>2014-02-13T15:50:45Z</time>
      </trkpt>
      <trkpt lat="44.19476" lon="3.08024">
        <ele>567</ele>
        <time>2014-02-13T15:50:51Z</time>
      </trkpt>
      <trkpt lat="44.19477" lon="3.08017">
        <ele>567</ele>
        <time>2014-02-13T15:50:58Z</time>
      </trkpt>
      <trkpt lat="44.19475" lon="3.0801">
        <ele>567</ele>
        <time>2014-02-13T15:51:03Z</time>
      </trkpt>
      <trkpt lat="44.19472" lon="3.08005">
        <ele>566</ele>
        <time>2014-02-13T15:51:09Z</time>
      </trkpt>
      <trkpt lat="44.1947" lon="3.07999">
        <ele>566</ele>
        <time>2014-02-13T15:51:15Z</time>
      </trkpt>
      <trkpt lat="44.19468" lon="3.07993">
        <ele>566</ele>
        <time>2014-02-13T15:51:18Z</time>
      </trkpt>
      <trkpt lat="44.19465" lon="3.07986">
        <ele>567</ele>
        <time>2014-02-13T15:51:21Z</time>
      </trkpt>
      <trkpt lat="44.19462" lon="3.0798">
        <ele>567</ele>
        <time>2014-02-13T15:51:24Z</time>
      </trkpt>
      <trkpt lat="44.1946" lon="3.07974">
        <ele>568</ele>
        <time>2014-02-13T15:51:28Z</time>
      </trkpt>
      <trkpt lat="44.19459" lon="3.07967">
        <ele>568</ele>
        <time>2014-02-13T15:51:33Z</time>
      </trkpt>
      <trkpt lat="44.19459" lon="3.07961">
        <ele>569</ele>
        <time>2014-02-13T15:51:38Z</time>
      </trkpt>
      <trkpt lat="44.19457" lon="3.07955">
        <ele>569</ele>
        <time>2014-02-13T15:51:43Z</time>
      </trkpt>
      <trkpt lat="44.19454" lon="3.07949">
        <ele>569</ele>
        <time>2014-02-13T15:51:48Z</time>
      </trkpt>
      <trkpt lat="44.19454" lon="3.07942">
        <ele>569</ele>
        <time>2014-02-13T15:51:55Z</time>
      </trkpt>
      <trkpt lat="44.19452" lon="3.07935">
        <ele>568</ele>
        <time>2014-02-13T15:51:59Z</time>
      </trkpt>
      <trkpt lat="44.1945" lon="3.07929">
        <ele>568</ele>
        <time>2014-02-13T15:52:02Z</time>
      </trkpt>
      <trkpt lat="44.19447" lon="3.07923">
        <ele>568</ele>
        <time>2014-02-13T15:52:05Z</time>
      </trkpt>
      <trkpt lat="44.19444" lon="3.07918">
        <ele>566</ele>
        <time>2014-02-13T15:52:08Z</time>
      </trkpt>
      <trkpt lat="44.19441" lon="3.07912">
        <ele>566</ele>
        <time>2014-02-13T15:52:12Z</time>
      </trkpt>
      <trkpt lat="44.19441" lon="3.07906">
        <ele>565</ele>
        <time>2014-02-13T15:52:16Z</time>
      </trkpt>
      <trkpt lat="44.19442" lon="3.07899">
        <ele>565</ele>
        <time>2014-02-13T15:52:23Z</time>
      </trkpt>
      <trkpt lat="44.19441" lon="3.07893">
        <ele>564</ele>
        <time>2014-02-13T15:52:26Z</time>
      </trkpt>
      <trkpt lat="44.1944" lon="3.07886">
        <ele>563</ele>
        <time>2014-02-13T15:52:31Z</time>
      </trkpt>
      <trkpt lat="44.19438" lon="3.07878">
        <ele>563</ele>
        <time>2014-02-13T15:52:36Z</time>
      </trkpt>
      <trkpt lat="44.19437" lon="3.07871">
        <ele>563</ele>
        <time>2014-02-13T15:52:42Z</time>
      </trkpt>
      <trkpt lat="44.19436" lon="3.07863">
        <ele>563</ele>
        <time>2014-02-13T15:52:46Z</time>
      </trkpt>
      <trkpt lat="44.19436" lon="3.07855">
        <ele>564</ele>
        <time>2014-02-13T15:52:49Z</time>
      </trkpt>
      <trkpt lat="44.19435" lon="3.07848">
        <ele>564</ele>
        <time>2014-02-13T15:52:52Z</time>
      </trkpt>
      <trkpt lat="44.19433" lon="3.07842">
        <ele>564</ele>
        <time>2014-02-13T15:52:55Z</time>
      </trkpt>
      <trkpt lat="44.1943" lon="3.07835">
        <ele>563</ele>
        <time>2014-02-13T15:52:58Z</time>
      </trkpt>
      <trkpt lat="44.19428" lon="3.07829">
        <ele>563</ele>
        <time>2014-02-13T15:53:01Z</time>
      </trkpt>
      <trkpt lat="44.19426" lon="3.07822">
        <ele>563</ele>
        <time>2014-02-13T15:53:06Z</time>
      </trkpt>
      <trkpt lat="44.19425" lon="3.07816">
        <ele>563</ele>
        <time>2014-02-13T15:53:09Z</time>
      </trkpt>
      <trkpt lat="44.19425" lon="3.07809">
        <ele>563</ele>
        <time>2014-02-13T15:53:13Z</time>
      </trkpt>
      <trkpt lat="44.19424" lon="3.07802">
        <ele>563</ele>
        <time>2014-02-13T15:53:19Z</time>
      </trkpt>
      <trkpt lat="44.19425" lon="3.07793">
        <ele>563</ele>
        <time>2014-02-13T15:53:23Z</time>
      </trkpt>
      <trkpt lat="44.19424" lon="3.07785">
        <ele>563</ele>
        <time>2014-02-13T15:53:26Z</time>
      </trkpt>
      <trkpt lat="44.19423" lon="3.07777">
        <ele>561</ele>
        <time>2014-02-13T15:53:29Z</time>
      </trkpt>
      <trkpt lat="44.1942" lon="3.0777">
        <ele>560</ele>
        <time>2014-02-13T15:53:32Z</time>
      </trkpt>
      <trkpt lat="44.19418" lon="3.07764">
        <ele>558</ele>
        <time>2014-02-13T15:53:35Z</time>
      </trkpt>
      <trkpt lat="44.19416" lon="3.07757">
        <ele>557</ele>
        <time>2014-02-13T15:53:38Z</time>
      </trkpt>
      <trkpt lat="44.19414" lon="3.0775">
        <ele>556</ele>
        <time>2014-02-13T15:53:41Z</time>
      </trkpt>
      <trkpt lat="44.19414" lon="3.07743">
        <ele>555</ele>
        <time>2014-02-13T15:53:46Z</time>
      </trkpt>
      <trkpt lat="44.19411" lon="3.07736">
        <ele>554</ele>
        <time>2014-02-13T15:53:51Z</time>
      </trkpt>
      <trkpt lat="44.19407" lon="3.07731">
        <ele>553</ele>
        <time>2014-02-13T15:53:55Z</time>
      </trkpt>
      <trkpt lat="44.19403" lon="3.07727">
        <ele>551</ele>
        <time>2014-02-13T15:53:59Z</time>
      </trkpt>
      <trkpt lat="44.19399" lon="3.07723">
        <ele>550</ele>
        <time>2014-02-13T15:54:03Z</time>
      </trkpt>
      <trkpt lat="44.19395" lon="3.07719">
        <ele>549</ele>
        <time>2014-02-13T15:54:06Z</time>
      </trkpt>
      <trkpt lat="44.1939" lon="3.07714">
        <ele>548</ele>
        <time>2014-02-13T15:54:09Z</time>
      </trkpt>
      <trkpt lat="44.19385" lon="3.0771">
        <ele>547</ele>
        <time>2014-02-13T15:54:13Z</time>
      </trkpt>
      <trkpt lat="44.19381" lon="3.07707">
        <ele>546</ele>
        <time>2014-02-13T15:54:18Z</time>
      </trkpt>
      <trkpt lat="44.19376" lon="3.07702">
        <ele>545</ele>
        <time>2014-02-13T15:54:23Z</time>
      </trkpt>
      <trkpt lat="44.19371" lon="3.077">
        <ele>544</ele>
        <time>2014-02-13T15:54:26Z</time>
      </trkpt>
      <trkpt lat="44.19366" lon="3.07698">
        <ele>542</ele>
        <time>2014-02-13T15:54:30Z</time>
      </trkpt>
      <trkpt lat="44.19362" lon="3.07696">
        <ele>542</ele>
        <time>2014-02-13T15:54:33Z</time>
      </trkpt>
      <trkpt lat="44.19357" lon="3.07693">
        <ele>541</ele>
        <time>2014-02-13T15:54:36Z</time>
      </trkpt>
      <trkpt lat="44.19353" lon="3.0769">
        <ele>539</ele>
        <time>2014-02-13T15:54:40Z</time>
      </trkpt>
      <trkpt lat="44.19348" lon="3.07688">
        <ele>538</ele>
        <time>2014-02-13T15:54:43Z</time>
      </trkpt>
      <trkpt lat="44.19342" lon="3.07687">
        <ele>538</ele>
        <time>2014-02-13T15:54:46Z</time>
      </trkpt>
      <trkpt lat="44.19338" lon="3.07687">
        <ele>537</ele>
        <time>2014-02-13T15:54:49Z</time>
      </trkpt>
      <trkpt lat="44.19334" lon="3.07683">
        <ele>537</ele>
        <time>2014-02-13T15:54:53Z</time>
      </trkpt>
      <trkpt lat="44.1933" lon="3.07679">
        <ele>536</ele>
        <time>2014-02-13T15:54:57Z</time>
      </trkpt>
      <trkpt lat="44.19326" lon="3.07675">
        <ele>535</ele>
        <time>2014-02-13T15:55:01Z</time>
      </trkpt>
      <trkpt lat="44.19323" lon="3.0767">
        <ele>535</ele>
        <time>2014-02-13T15:55:04Z</time>
      </trkpt>
      <trkpt lat="44.19319" lon="3.07666">
        <ele>534</ele>
        <time>2014-02-13T15:55:08Z</time>
      </trkpt>
      <trkpt lat="44.19315" lon="3.0766">
        <ele>534</ele>
        <time>2014-02-13T15:55:14Z</time>
      </trkpt>
      <trkpt lat="44.19313" lon="3.07655">
        <ele>534</ele>
        <time>2014-02-13T15:55:20Z</time>
      </trkpt>
      <trkpt lat="44.19311" lon="3.07649">
        <ele>533</ele>
        <time>2014-02-13T15:55:24Z</time>
      </trkpt>
      <trkpt lat="44.19308" lon="3.07643">
        <ele>532</ele>
        <time>2014-02-13T15:55:27Z</time>
      </trkpt>
      <trkpt lat="44.19304" lon="3.07639">
        <ele>530</ele>
        <time>2014-02-13T15:55:31Z</time>
      </trkpt>
      <trkpt lat="44.19301" lon="3.07634">
        <ele>529</ele>
        <time>2014-02-13T15:55:35Z</time>
      </trkpt>
      <trkpt lat="44.19297" lon="3.07629">
        <ele>527</ele>
        <time>2014-02-13T15:55:40Z</time>
      </trkpt>
      <trkpt lat="44.19293" lon="3.07626">
        <ele>526</ele>
        <time>2014-02-13T15:55:45Z</time>
      </trkpt>
      <trkpt lat="44.19296" lon="3.07619">
        <ele>523</ele>
        <time>2014-02-13T15:55:55Z</time>
      </trkpt>
      <trkpt lat="44.19299" lon="3.07615">
        <ele>521</ele>
        <time>2014-02-13T15:55:58Z</time>
      </trkpt>
      <trkpt lat="44.19303" lon="3.0761">
        <ele>519</ele>
        <time>2014-02-13T15:56:01Z</time>
      </trkpt>
      <trkpt lat="44.19304" lon="3.07603">
        <ele>516</ele>
        <time>2014-02-13T15:56:05Z</time>
      </trkpt>
      <trkpt lat="44.19304" lon="3.07595">
        <ele>515</ele>
        <time>2014-02-13T15:56:08Z</time>
      </trkpt>
      <trkpt lat="44.19303" lon="3.07588">
        <ele>514</ele>
        <time>2014-02-13T15:56:11Z</time>
      </trkpt>
      <trkpt lat="44.19303" lon="3.0758">
        <ele>513</ele>
        <time>2014-02-13T15:56:15Z</time>
      </trkpt>
      <trkpt lat="44.19301" lon="3.07573">
        <ele>513</ele>
        <time>2014-02-13T15:56:19Z</time>
      </trkpt>
      <trkpt lat="44.19301" lon="3.07566">
        <ele>511</ele>
        <time>2014-02-13T15:56:26Z</time>
      </trkpt>
      <trkpt lat="44.19298" lon="3.07559">
        <ele>511</ele>
        <time>2014-02-13T15:56:32Z</time>
      </trkpt>
      <trkpt lat="44.19294" lon="3.07554">
        <ele>510</ele>
        <time>2014-02-13T15:56:35Z</time>
      </trkpt>
      <trkpt lat="44.19291" lon="3.07548">
        <ele>509</ele>
        <time>2014-02-13T15:56:38Z</time>
      </trkpt>
      <trkpt lat="44.19289" lon="3.07542">
        <ele>508</ele>
        <time>2014-02-13T15:56:43Z</time>
      </trkpt>
      <trkpt lat="44.19285" lon="3.07535">
        <ele>508</ele>
        <time>2014-02-13T15:56:48Z</time>
      </trkpt>
      <trkpt lat="44.19283" lon="3.07529">
        <ele>507</ele>
        <time>2014-02-13T15:56:51Z</time>
      </trkpt>
      <trkpt lat="44.1928" lon="3.07523">
        <ele>506</ele>
        <time>2014-02-13T15:56:55Z</time>
      </trkpt>
      <trkpt lat="44.19276" lon="3.07519">
        <ele>505</ele>
        <time>2014-02-13T15:57:00Z</time>
      </trkpt>
      <trkpt lat="44.19272" lon="3.07513">
        <ele>504</ele>
        <time>2014-02-13T15:57:07Z</time>
      </trkpt>
      <trkpt lat="44.19271" lon="3.07507">
        <ele>504</ele>
        <time>2014-02-13T15:57:10Z</time>
      </trkpt>
      <trkpt lat="44.1927" lon="3.07499">
        <ele>503</ele>
        <time>2014-02-13T15:57:14Z</time>
      </trkpt>
      <trkpt lat="44.19269" lon="3.07493">
        <ele>502</ele>
        <time>2014-02-13T15:57:18Z</time>
      </trkpt>
      <trkpt lat="44.19268" lon="3.07485">
        <ele>501</ele>
        <time>2014-02-13T15:57:22Z</time>
      </trkpt>
      <trkpt lat="44.19266" lon="3.07478">
        <ele>501</ele>
        <time>2014-02-13T15:57:25Z</time>
      </trkpt>
      <trkpt lat="44.19263" lon="3.07472">
        <ele>501</ele>
        <time>2014-02-13T15:57:28Z</time>
      </trkpt>
      <trkpt lat="44.1926" lon="3.07467">
        <ele>501</ele>
        <time>2014-02-13T15:57:31Z</time>
      </trkpt>
      <trkpt lat="44.19258" lon="3.07462">
        <ele>500</ele>
        <time>2014-02-13T15:57:35Z</time>
      </trkpt>
      <trkpt lat="44.19255" lon="3.07456">
        <ele>500</ele>
        <time>2014-02-13T15:57:39Z</time>
      </trkpt>
      <trkpt lat="44.19251" lon="3.07453">
        <ele>499</ele>
        <time>2014-02-13T15:57:42Z</time>
      </trkpt>
      <trkpt lat="44.19247" lon="3.07448">
        <ele>498</ele>
        <time>2014-02-13T15:57:46Z</time>
      </trkpt>
      <trkpt lat="44.19244" lon="3.07443">
        <ele>497</ele>
        <time>2014-02-13T15:57:50Z</time>
      </trkpt>
      <trkpt lat="44.1924" lon="3.07438">
        <ele>496</ele>
        <time>2014-02-13T15:57:54Z</time>
      </trkpt>
      <trkpt lat="44.19236" lon="3.07433">
        <ele>495</ele>
        <time>2014-02-13T15:57:58Z</time>
      </trkpt>
      <trkpt lat="44.19232" lon="3.07429">
        <ele>494</ele>
        <time>2014-02-13T15:58:02Z</time>
      </trkpt>
      <trkpt lat="44.19229" lon="3.07424">
        <ele>494</ele>
        <time>2014-02-13T15:58:06Z</time>
      </trkpt>
      <trkpt lat="44.19226" lon="3.07417">
        <ele>494</ele>
        <time>2014-02-13T15:58:10Z</time>
      </trkpt>
      <trkpt lat="44.19224" lon="3.07412">
        <ele>494</ele>
        <time>2014-02-13T15:58:13Z</time>
      </trkpt>
      <trkpt lat="44.19221" lon="3.07406">
        <ele>494</ele>
        <time>2014-02-13T15:58:18Z</time>
      </trkpt>
      <trkpt lat="44.19218" lon="3.07401">
        <ele>495</ele>
        <time>2014-02-13T15:58:23Z</time>
      </trkpt>
      <trkpt lat="44.19214" lon="3.07397">
        <ele>495</ele>
        <time>2014-02-13T15:58:27Z</time>
      </trkpt>
      <trkpt lat="44.1921" lon="3.07391">
        <ele>495</ele>
        <time>2014-02-13T15:58:31Z</time>
      </trkpt>
      <trkpt lat="44.19208" lon="3.07384">
        <ele>495</ele>
        <time>2014-02-13T15:58:34Z</time>
      </trkpt>
      <trkpt lat="44.19205" lon="3.07378">
        <ele>494</ele>
        <time>2014-02-13T15:58:39Z</time>
      </trkpt>
      <trkpt lat="44.19203" lon="3.07373">
        <ele>491</ele>
        <time>2014-02-13T15:58:49Z</time>
      </trkpt>
      <trkpt lat="44.19201" lon="3.07366">
        <ele>490</ele>
        <time>2014-02-13T15:58:54Z</time>
      </trkpt>
      <trkpt lat="44.19198" lon="3.0736">
        <ele>488</ele>
        <time>2014-02-13T15:58:59Z</time>
      </trkpt>
      <trkpt lat="44.19196" lon="3.07353">
        <ele>485</ele>
        <time>2014-02-13T15:59:04Z</time>
      </trkpt>
      <trkpt lat="44.19192" lon="3.07348">
        <ele>482</ele>
        <time>2014-02-13T15:59:09Z</time>
      </trkpt>
      <trkpt lat="44.19187" lon="3.07345">
        <ele>481</ele>
        <time>2014-02-13T15:59:14Z</time>
      </trkpt>
      <trkpt lat="44.19187" lon="3.07335">
        <ele>478</ele>
        <time>2014-02-13T15:59:24Z</time>
      </trkpt>
      <trkpt lat="44.19189" lon="3.0733">
        <ele>475</ele>
        <time>2014-02-13T15:59:29Z</time>
      </trkpt>
      <trkpt lat="44.19185" lon="3.07324">
        <ele>473</ele>
        <time>2014-02-13T15:59:35Z</time>
      </trkpt>
      <trkpt lat="44.19182" lon="3.0732">
        <ele>471</ele>
        <time>2014-02-13T15:59:38Z</time>
      </trkpt>
      <trkpt lat="44.19184" lon="3.07316">
        <ele>460</ele>
        <time>2014-02-13T16:00:22Z</time>
      </trkpt>
      <trkpt lat="44.19189" lon="3.07314">
        <ele>459</ele>
        <time>2014-02-13T16:00:28Z</time>
      </trkpt>
      <trkpt lat="44.19192" lon="3.07308">
        <ele>456</ele>
        <time>2014-02-13T16:00:34Z</time>
      </trkpt>
      <trkpt lat="44.19195" lon="3.07304">
        <ele>455</ele>
        <time>2014-02-13T16:00:50Z</time>
      </trkpt>
      <trkpt lat="44.19196" lon="3.07297">
        <ele>451</ele>
        <time>2014-02-13T16:00:57Z</time>
      </trkpt>
      <trkpt lat="44.19196" lon="3.0729">
        <ele>450</ele>
        <time>2014-02-13T16:01:01Z</time>
      </trkpt>
      <trkpt lat="44.19197" lon="3.07282">
        <ele>448</ele>
        <time>2014-02-13T16:01:07Z</time>
      </trkpt>
      <trkpt lat="44.19203" lon="3.07272">
        <ele>448</ele>
        <time>2014-02-13T16:01:12Z</time>
      </trkpt>
      <trkpt lat="44.19205" lon="3.07263">
        <ele>447</ele>
        <time>2014-02-13T16:01:22Z</time>
      </trkpt>
      <trkpt lat="44.19206" lon="3.07257">
        <ele>448</ele>
        <time>2014-02-13T16:01:25Z</time>
      </trkpt>
      <trkpt lat="44.19208" lon="3.07251">
        <ele>447</ele>
        <time>2014-02-13T16:01:30Z</time>
      </trkpt>
      <trkpt lat="44.19212" lon="3.07246">
        <ele>447</ele>
        <time>2014-02-13T16:01:33Z</time>
      </trkpt>
      <trkpt lat="44.19215" lon="3.0724">
        <ele>447</ele>
        <time>2014-02-13T16:01:36Z</time>
      </trkpt>
      <trkpt lat="44.19217" lon="3.07235">
        <ele>446</ele>
        <time>2014-02-13T16:01:40Z</time>
      </trkpt>
      <trkpt lat="44.19219" lon="3.07228">
        <ele>446</ele>
        <time>2014-02-13T16:01:45Z</time>
      </trkpt>
      <trkpt lat="44.19223" lon="3.07222">
        <ele>446</ele>
        <time>2014-02-13T16:01:49Z</time>
      </trkpt>
      <trkpt lat="44.19224" lon="3.07216">
        <ele>445</ele>
        <time>2014-02-13T16:01:52Z</time>
      </trkpt>
      <trkpt lat="44.19226" lon="3.07209">
        <ele>446</ele>
        <time>2014-02-13T16:01:56Z</time>
      </trkpt>
      <trkpt lat="44.19228" lon="3.07203">
        <ele>446</ele>
        <time>2014-02-13T16:02:00Z</time>
      </trkpt>
      <trkpt lat="44.19231" lon="3.07197">
        <ele>446</ele>
        <time>2014-02-13T16:02:04Z</time>
      </trkpt>
      <trkpt lat="44.19233" lon="3.07191">
        <ele>446</ele>
        <time>2014-02-13T16:02:07Z</time>
      </trkpt>
      <trkpt lat="44.19236" lon="3.07185">
        <ele>446</ele>
        <time>2014-02-13T16:02:11Z</time>
      </trkpt>
      <trkpt lat="44.19238" lon="3.07178">
        <ele>446</ele>
        <time>2014-02-13T16:02:15Z</time>
      </trkpt>
      <trkpt lat="44.19242" lon="3.07172">
        <ele>446</ele>
        <time>2014-02-13T16:02:20Z</time>
      </trkpt>
      <trkpt lat="44.19245" lon="3.07165">
        <ele>446</ele>
        <time>2014-02-13T16:02:23Z</time>
      </trkpt>
      <trkpt lat="44.19246" lon="3.07157">
        <ele>445</ele>
        <time>2014-02-13T16:02:26Z</time>
      </trkpt>
      <trkpt lat="44.19246" lon="3.0715">
        <ele>445</ele>
        <time>2014-02-13T16:02:29Z</time>
      </trkpt>
      <trkpt lat="44.19246" lon="3.07143">
        <ele>445</ele>
        <time>2014-02-13T16:02:33Z</time>
      </trkpt>
      <trkpt lat="44.19248" lon="3.07137">
        <ele>445</ele>
        <time>2014-02-13T16:02:37Z</time>
      </trkpt>
      <trkpt lat="44.19249" lon="3.0713">
        <ele>444</ele>
        <time>2014-02-13T16:02:40Z</time>
      </trkpt>
      <trkpt lat="44.19251" lon="3.07123">
        <ele>444</ele>
        <time>2014-02-13T16:02:43Z</time>
      </trkpt>
      <trkpt lat="44.19252" lon="3.07116">
        <ele>444</ele>
        <time>2014-02-13T16:02:46Z</time>
      </trkpt>
      <trkpt lat="44.19256" lon="3.07109">
        <ele>443</ele>
        <time>2014-02-13T16:02:50Z</time>
      </trkpt>
      <trkpt lat="44.19262" lon="3.07106">
        <ele>442</ele>
        <time>2014-02-13T16:02:53Z</time>
      </trkpt>
      <trkpt lat="44.19269" lon="3.07097">
        <ele>442</ele>
        <time>2014-02-13T16:02:57Z</time>
      </trkpt>
      <trkpt lat="44.19272" lon="3.07091">
        <ele>441</ele>
        <time>2014-02-13T16:03:00Z</time>
      </trkpt>
      <trkpt lat="44.19278" lon="3.07079">
        <ele>441</ele>
        <time>2014-02-13T16:03:05Z</time>
      </trkpt>
      <trkpt lat="44.19284" lon="3.07069">
        <ele>440</ele>
        <time>2014-02-13T16:03:13Z</time>
      </trkpt>
      <trkpt lat="44.19289" lon="3.07066">
        <ele>441</ele>
        <time>2014-02-13T16:03:17Z</time>
      </trkpt>
      <trkpt lat="44.19293" lon="3.07062">
        <ele>441</ele>
        <time>2014-02-13T16:03:20Z</time>
      </trkpt>
      <trkpt lat="44.19297" lon="3.07059">
        <ele>442</ele>
        <time>2014-02-13T16:03:23Z</time>
      </trkpt>
      <trkpt lat="44.19302" lon="3.07058">
        <ele>442</ele>
        <time>2014-02-13T16:03:26Z</time>
      </trkpt>
      <trkpt lat="44.19306" lon="3.07053">
        <ele>443</ele>
        <time>2014-02-13T16:03:31Z</time>
      </trkpt>
      <trkpt lat="44.19309" lon="3.07047">
        <ele>443</ele>
        <time>2014-02-13T16:03:35Z</time>
      </trkpt>
      <trkpt lat="44.19314" lon="3.07043">
        <ele>443</ele>
        <time>2014-02-13T16:03:39Z</time>
      </trkpt>
      <trkpt lat="44.19318" lon="3.07038">
        <ele>443</ele>
        <time>2014-02-13T16:03:43Z</time>
      </trkpt>
      <trkpt lat="44.19322" lon="3.07034">
        <ele>443</ele>
        <time>2014-02-13T16:03:46Z</time>
      </trkpt>
      <trkpt lat="44.19327" lon="3.0703">
        <ele>443</ele>
        <time>2014-02-13T16:03:50Z</time>
      </trkpt>
      <trkpt lat="44.1933" lon="3.07026">
        <ele>443</ele>
        <time>2014-02-13T16:03:54Z</time>
      </trkpt>
      <trkpt lat="44.19333" lon="3.0702">
        <ele>444</ele>
        <time>2014-02-13T16:03:58Z</time>
      </trkpt>
      <trkpt lat="44.19336" lon="3.07014">
        <ele>445</ele>
        <time>2014-02-13T16:04:01Z</time>
      </trkpt>
      <trkpt lat="44.1934" lon="3.07008">
        <ele>446</ele>
        <time>2014-02-13T16:04:05Z</time>
      </trkpt>
      <trkpt lat="44.19345" lon="3.07002">
        <ele>446</ele>
        <time>2014-02-13T16:04:08Z</time>
      </trkpt>
      <trkpt lat="44.19348" lon="3.06998">
        <ele>447</ele>
        <time>2014-02-13T16:04:11Z</time>
      </trkpt>
      <trkpt lat="44.19352" lon="3.06994">
        <ele>446</ele>
        <time>2014-02-13T16:04:14Z</time>
      </trkpt>
      <trkpt lat="44.19357" lon="3.0699">
        <ele>446</ele>
        <time>2014-02-13T16:04:18Z</time>
      </trkpt>
      <trkpt lat="44.1936" lon="3.06985">
        <ele>446</ele>
        <time>2014-02-13T16:04:21Z</time>
      </trkpt>
      <trkpt lat="44.19363" lon="3.0698">
        <ele>447</ele>
        <time>2014-02-13T16:04:24Z</time>
      </trkpt>
      <trkpt lat="44.19367" lon="3.06976">
        <ele>447</ele>
        <time>2014-02-13T16:04:27Z</time>
      </trkpt>
      <trkpt lat="44.19372" lon="3.06972">
        <ele>447</ele>
        <time>2014-02-13T16:04:32Z</time>
      </trkpt>
      <trkpt lat="44.19376" lon="3.06968">
        <ele>447</ele>
        <time>2014-02-13T16:04:37Z</time>
      </trkpt>
      <trkpt lat="44.1938" lon="3.06964">
        <ele>447</ele>
        <time>2014-02-13T16:04:41Z</time>
      </trkpt>
      <trkpt lat="44.19385" lon="3.06959">
        <ele>447</ele>
        <time>2014-02-13T16:04:46Z</time>
      </trkpt>
      <trkpt lat="44.1939" lon="3.06954">
        <ele>447</ele>
        <time>2014-02-13T16:04:50Z</time>
      </trkpt>
      <trkpt lat="44.19393" lon="3.06949">
        <ele>447</ele>
        <time>2014-02-13T16:04:53Z</time>
      </trkpt>
      <trkpt lat="44.19396" lon="3.06944">
        <ele>447</ele>
        <time>2014-02-13T16:04:56Z</time>
      </trkpt>
      <trkpt lat="44.194" lon="3.06939">
        <ele>446</ele>
        <time>2014-02-13T16:05:00Z</time>
      </trkpt>
      <trkpt lat="44.19402" lon="3.06933">
        <ele>446</ele>
        <time>2014-02-13T16:05:04Z</time>
      </trkpt>
      <trkpt lat="44.19406" lon="3.06928">
        <ele>446</ele>
        <time>2014-02-13T16:05:07Z</time>
      </trkpt>
      <trkpt lat="44.19411" lon="3.06924">
        <ele>446</ele>
        <time>2014-02-13T16:05:10Z</time>
      </trkpt>
      <trkpt lat="44.19415" lon="3.0692">
        <ele>446</ele>
        <time>2014-02-13T16:05:13Z</time>
      </trkpt>
      <trkpt lat="44.19418" lon="3.06915">
        <ele>446</ele>
        <time>2014-02-13T16:05:16Z</time>
      </trkpt>
      <trkpt lat="44.19422" lon="3.06911">
        <ele>447</ele>
        <time>2014-02-13T16:05:19Z</time>
      </trkpt>
      <trkpt lat="44.19426" lon="3.06907">
        <ele>448</ele>
        <time>2014-02-13T16:05:22Z</time>
      </trkpt>
      <trkpt lat="44.19431" lon="3.06902">
        <ele>449</ele>
        <time>2014-02-13T16:05:26Z</time>
      </trkpt>
      <trkpt lat="44.19434" lon="3.06899">
        <ele>449</ele>
        <time>2014-02-13T16:05:29Z</time>
      </trkpt>
      <trkpt lat="44.19439" lon="3.06894">
        <ele>449</ele>
        <time>2014-02-13T16:05:32Z</time>
      </trkpt>
      <trkpt lat="44.19443" lon="3.06891">
        <ele>449</ele>
        <time>2014-02-13T16:05:35Z</time>
      </trkpt>
      <trkpt lat="44.19448" lon="3.06887">
        <ele>449</ele>
        <time>2014-02-13T16:05:39Z</time>
      </trkpt>
      <trkpt lat="44.19452" lon="3.06882">
        <ele>449</ele>
        <time>2014-02-13T16:05:43Z</time>
      </trkpt>
      <trkpt lat="44.19455" lon="3.06877">
        <ele>449</ele>
        <time>2014-02-13T16:05:46Z</time>
      </trkpt>
      <trkpt lat="44.19459" lon="3.06873">
        <ele>449</ele>
        <time>2014-02-13T16:05:49Z</time>
      </trkpt>
      <trkpt lat="44.19461" lon="3.06867">
        <ele>450</ele>
        <time>2014-02-13T16:05:52Z</time>
      </trkpt>
      <trkpt lat="44.19465" lon="3.06861">
        <ele>450</ele>
        <time>2014-02-13T16:05:59Z</time>
      </trkpt>
      <trkpt lat="44.1947" lon="3.06858">
        <ele>450</ele>
        <time>2014-02-13T16:06:03Z</time>
      </trkpt>
      <trkpt lat="44.19474" lon="3.06855">
        <ele>450</ele>
        <time>2014-02-13T16:06:06Z</time>
      </trkpt>
      <trkpt lat="44.19478" lon="3.06849">
        <ele>450</ele>
        <time>2014-02-13T16:06:09Z</time>
      </trkpt>
      <trkpt lat="44.19481" lon="3.06841">
        <ele>450</ele>
        <time>2014-02-13T16:06:12Z</time>
      </trkpt>
      <trkpt lat="44.19485" lon="3.06835">
        <ele>450</ele>
        <time>2014-02-13T16:06:16Z</time>
      </trkpt>
      <trkpt lat="44.19488" lon="3.0683">
        <ele>450</ele>
        <time>2014-02-13T16:06:19Z</time>
      </trkpt>
      <trkpt lat="44.19492" lon="3.06825">
        <ele>451</ele>
        <time>2014-02-13T16:06:23Z</time>
      </trkpt>
      <trkpt lat="44.19497" lon="3.06821">
        <ele>451</ele>
        <time>2014-02-13T16:06:26Z</time>
      </trkpt>
      <trkpt lat="44.19501" lon="3.06816">
        <ele>451</ele>
        <time>2014-02-13T16:06:29Z</time>
      </trkpt>
      <trkpt lat="44.19506" lon="3.06814">
        <ele>451</ele>
        <time>2014-02-13T16:06:33Z</time>
      </trkpt>
      <trkpt lat="44.19511" lon="3.06811">
        <ele>451</ele>
        <time>2014-02-13T16:06:36Z</time>
      </trkpt>
      <trkpt lat="44.19515" lon="3.06806">
        <ele>451</ele>
        <time>2014-02-13T16:06:39Z</time>
      </trkpt>
      <trkpt lat="44.19518" lon="3.068">
        <ele>451</ele>
        <time>2014-02-13T16:06:42Z</time>
      </trkpt>
      <trkpt lat="44.19521" lon="3.06793">
        <ele>451</ele>
        <time>2014-02-13T16:06:45Z</time>
      </trkpt>
      <trkpt lat="44.19524" lon="3.06788">
        <ele>450</ele>
        <time>2014-02-13T16:06:48Z</time>
      </trkpt>
      <trkpt lat="44.19527" lon="3.06781">
        <ele>450</ele>
        <time>2014-02-13T16:06:53Z</time>
      </trkpt>
      <trkpt lat="44.19529" lon="3.06773">
        <ele>451</ele>
        <time>2014-02-13T16:06:57Z</time>
      </trkpt>
      <trkpt lat="44.19527" lon="3.06766">
        <ele>451</ele>
        <time>2014-02-13T16:07:01Z</time>
      </trkpt>
      <trkpt lat="44.19523" lon="3.06761">
        <ele>451</ele>
        <time>2014-02-13T16:07:05Z</time>
      </trkpt>
      <trkpt lat="44.19518" lon="3.06757">
        <ele>451</ele>
        <time>2014-02-13T16:07:09Z</time>
      </trkpt>
      <trkpt lat="44.19514" lon="3.06754">
        <ele>450</ele>
        <time>2014-02-13T16:07:13Z</time>
      </trkpt>
      <trkpt lat="44.1951" lon="3.06749">
        <ele>449</ele>
        <time>2014-02-13T16:07:17Z</time>
      </trkpt>
      <trkpt lat="44.19506" lon="3.06744">
        <ele>448</ele>
        <time>2014-02-13T16:07:22Z</time>
      </trkpt>
      <trkpt lat="44.19502" lon="3.06738">
        <ele>447</ele>
        <time>2014-02-13T16:07:26Z</time>
      </trkpt>
      <trkpt lat="44.19499" lon="3.06733">
        <ele>446</ele>
        <time>2014-02-13T16:07:30Z</time>
      </trkpt>
      <trkpt lat="44.19496" lon="3.06728">
        <ele>446</ele>
        <time>2014-02-13T16:07:34Z</time>
      </trkpt>
      <trkpt lat="44.19491" lon="3.06723">
        <ele>446</ele>
        <time>2014-02-13T16:07:38Z</time>
      </trkpt>
      <trkpt lat="44.19489" lon="3.06717">
        <ele>446</ele>
        <time>2014-02-13T16:07:41Z</time>
      </trkpt>
      <trkpt lat="44.19487" lon="3.0671">
        <ele>446</ele>
        <time>2014-02-13T16:07:44Z</time>
      </trkpt>
      <trkpt lat="44.19486" lon="3.06701">
        <ele>445</ele>
        <time>2014-02-13T16:07:47Z</time>
      </trkpt>
      <trkpt lat="44.19485" lon="3.06694">
        <ele>445</ele>
        <time>2014-02-13T16:07:50Z</time>
      </trkpt>
      <trkpt lat="44.19486" lon="3.06688">
        <ele>445</ele>
        <time>2014-02-13T16:07:54Z</time>
      </trkpt>
      <trkpt lat="44.19484" lon="3.0668">
        <ele>445</ele>
        <time>2014-02-13T16:07:58Z</time>
      </trkpt>
      <trkpt lat="44.19482" lon="3.06674">
        <ele>445</ele>
        <time>2014-02-13T16:08:02Z</time>
      </trkpt>
      <trkpt lat="44.19477" lon="3.06672">
        <ele>444</ele>
        <time>2014-02-13T16:08:06Z</time>
      </trkpt>
      <trkpt lat="44.19471" lon="3.06676">
        <ele>444</ele>
        <time>2014-02-13T16:08:10Z</time>
      </trkpt>
      <trkpt lat="44.19466" lon="3.06679">
        <ele>443</ele>
        <time>2014-02-13T16:08:13Z</time>
      </trkpt>
      <trkpt lat="44.19462" lon="3.06684">
        <ele>443</ele>
        <time>2014-02-13T16:08:16Z</time>
      </trkpt>
      <trkpt lat="44.19458" lon="3.06688">
        <ele>443</ele>
        <time>2014-02-13T16:08:19Z</time>
      </trkpt>
      <trkpt lat="44.19453" lon="3.06691">
        <ele>442</ele>
        <time>2014-02-13T16:08:23Z</time>
      </trkpt>
      <trkpt lat="44.19449" lon="3.06695">
        <ele>443</ele>
        <time>2014-02-13T16:08:27Z</time>
      </trkpt>
      <trkpt lat="44.19444" lon="3.06699">
        <ele>444</ele>
        <time>2014-02-13T16:08:31Z</time>
      </trkpt>
      <trkpt lat="44.1944" lon="3.06703">
        <ele>444</ele>
        <time>2014-02-13T16:08:36Z</time>
      </trkpt>
      <trkpt lat="44.19435" lon="3.06704">
        <ele>445</ele>
        <time>2014-02-13T16:08:41Z</time>
      </trkpt>
      <trkpt lat="44.1943" lon="3.06704">
        <ele>445</ele>
        <time>2014-02-13T16:08:46Z</time>
      </trkpt>
      <trkpt lat="44.19425" lon="3.06706">
        <ele>445</ele>
        <time>2014-02-13T16:08:52Z</time>
      </trkpt>
      <trkpt lat="44.19419" lon="3.06708">
        <ele>446</ele>
        <time>2014-02-13T16:08:55Z</time>
      </trkpt>
      <trkpt lat="44.19413" lon="3.06709">
        <ele>446</ele>
        <time>2014-02-13T16:08:58Z</time>
      </trkpt>
      <trkpt lat="44.19408" lon="3.06707">
        <ele>447</ele>
        <time>2014-02-13T16:09:02Z</time>
      </trkpt>
      <trkpt lat="44.19404" lon="3.06703">
        <ele>448</ele>
        <time>2014-02-13T16:09:06Z</time>
      </trkpt>
      <trkpt lat="44.19399" lon="3.06699">
        <ele>449</ele>
        <time>2014-02-13T16:09:09Z</time>
      </trkpt>
      <trkpt lat="44.19395" lon="3.06694">
        <ele>449</ele>
        <time>2014-02-13T16:09:12Z</time>
      </trkpt>
      <trkpt lat="44.19392" lon="3.06687">
        <ele>451</ele>
        <time>2014-02-13T16:09:16Z</time>
      </trkpt>
      <trkpt lat="44.1939" lon="3.06681">
        <ele>452</ele>
        <time>2014-02-13T16:09:19Z</time>
      </trkpt>
      <trkpt lat="44.19389" lon="3.06673">
        <ele>454</ele>
        <time>2014-02-13T16:09:23Z</time>
      </trkpt>
      <trkpt lat="44.1939" lon="3.06669">
        <ele>454</ele>
        <time>2014-02-13T16:09:31Z</time>
      </trkpt>
    </trkseg>
  </trk>
</gpx>